<?xml version="1.0" encoding="UTF-8" standalone="no" ?>
<gpx xmlns="http://www.topografix.com/GPX/1/1" xmlns:xsi="http://www.w3.org/2001/XMLSchema-instance" xsi:schemaLocation="http://www.topografix.com/GPX/1/1 http://www.topografix.com/GPX/1/1/gpx.xsd" version="1.1" creator="VisuGPX - https://www.visugpx.com">
  <metadata>
    <name>Yerres et alentours - Boucle 30 km</name>
    <desc><![CDATA[Boucle organisée en octobre 2017  par le Rando Club Yerrois a l'occasion de la 9 ème journée de la randonnée 
Tracée et animée par Jean Luc]]></desc>
  </metadata>
  <trk>
    <name><![CDATA[Yerres et alentours - Boucle 30 km_1]]></name>
    <trkseg>
      <trkpt lat="48.71438" lon="2.49045">
        <ele>35.5</ele>
        <time>2017-10-08T06:41:49Z</time>
      </trkpt>
      <trkpt lat="48.71438" lon="2.49045">
        <ele>94.6661</ele>
        <time>2017-10-08T06:41:54Z</time>
      </trkpt>
      <trkpt lat="48.71424" lon="2.49057">
        <ele>95.5511</ele>
        <time>2017-10-08T06:42:02Z</time>
      </trkpt>
      <trkpt lat="48.71424" lon="2.49076">
        <ele>94.429</ele>
        <time>2017-10-08T06:42:09Z</time>
      </trkpt>
      <trkpt lat="48.71432" lon="2.49102">
        <ele>81.4993</ele>
        <time>2017-10-08T06:42:19Z</time>
      </trkpt>
      <trkpt lat="48.71432" lon="2.49102">
        <ele>36</ele>
        <time>2017-10-08T06:42:26Z</time>
      </trkpt>
      <trkpt lat="48.71427" lon="2.49115">
        <ele>77.4891</ele>
        <time>2017-10-08T06:42:30Z</time>
      </trkpt>
      <trkpt lat="48.71427" lon="2.49115">
        <ele>35.8</ele>
        <time>2017-10-08T06:42:30Z</time>
      </trkpt>
      <trkpt lat="48.7142" lon="2.49127">
        <ele>77.1041</ele>
        <time>2017-10-08T06:42:37Z</time>
      </trkpt>
      <trkpt lat="48.71415" lon="2.49141">
        <ele>77.3006</ele>
        <time>2017-10-08T06:42:46Z</time>
      </trkpt>
      <trkpt lat="48.71399" lon="2.49174">
        <ele>77.0483</ele>
        <time>2017-10-08T06:43:04Z</time>
      </trkpt>
      <trkpt lat="48.71394" lon="2.49193">
        <ele>76.8409</ele>
        <time>2017-10-08T06:43:13Z</time>
      </trkpt>
      <trkpt lat="48.71387" lon="2.49213">
        <ele>76.6876</ele>
        <time>2017-10-08T06:43:22Z</time>
      </trkpt>
      <trkpt lat="48.71381" lon="2.49239">
        <ele>76.516</ele>
        <time>2017-10-08T06:43:34Z</time>
      </trkpt>
      <trkpt lat="48.71379" lon="2.49263">
        <ele>76.3686</ele>
        <time>2017-10-08T06:43:45Z</time>
      </trkpt>
      <trkpt lat="48.71375" lon="2.49283">
        <ele>76.21</ele>
        <time>2017-10-08T06:43:58Z</time>
      </trkpt>
      <trkpt lat="48.71362" lon="2.49306">
        <ele>76.097</ele>
        <time>2017-10-08T06:44:14Z</time>
      </trkpt>
      <trkpt lat="48.71348" lon="2.49307">
        <ele>76.0594</ele>
        <time>2017-10-08T06:44:28Z</time>
      </trkpt>
      <trkpt lat="48.71332" lon="2.493">
        <ele>75.9325</ele>
        <time>2017-10-08T06:44:41Z</time>
      </trkpt>
      <trkpt lat="48.71319" lon="2.49311">
        <ele>75.8145</ele>
        <time>2017-10-08T06:44:55Z</time>
      </trkpt>
      <trkpt lat="48.71303" lon="2.49322">
        <ele>75.7134</ele>
        <time>2017-10-08T06:45:07Z</time>
      </trkpt>
      <trkpt lat="48.71294" lon="2.49342">
        <ele>75.6806</ele>
        <time>2017-10-08T06:45:16Z</time>
      </trkpt>
      <trkpt lat="48.71287" lon="2.49362">
        <ele>75.6305</ele>
        <time>2017-10-08T06:45:29Z</time>
      </trkpt>
      <trkpt lat="48.7127" lon="2.4938">
        <ele>75.6056</ele>
        <time>2017-10-08T06:45:42Z</time>
      </trkpt>
      <trkpt lat="48.71255" lon="2.49387">
        <ele>75.566</ele>
        <time>2017-10-08T06:45:50Z</time>
      </trkpt>
      <trkpt lat="48.71237" lon="2.49388">
        <ele>75.4918</ele>
        <time>2017-10-08T06:45:59Z</time>
      </trkpt>
      <trkpt lat="48.71221" lon="2.49399">
        <ele>75.3883</ele>
        <time>2017-10-08T06:46:11Z</time>
      </trkpt>
      <trkpt lat="48.71203" lon="2.49415">
        <ele>75.3221</ele>
        <time>2017-10-08T06:46:27Z</time>
      </trkpt>
      <trkpt lat="48.71188" lon="2.4943">
        <ele>75.3361</ele>
        <time>2017-10-08T06:46:42Z</time>
      </trkpt>
      <trkpt lat="48.71173" lon="2.49438">
        <ele>75.321</ele>
        <time>2017-10-08T06:46:49Z</time>
      </trkpt>
      <trkpt lat="48.7116" lon="2.49458">
        <ele>75.3057</ele>
        <time>2017-10-08T06:46:59Z</time>
      </trkpt>
      <trkpt lat="48.71144" lon="2.49476">
        <ele>75.3534</ele>
        <time>2017-10-08T06:47:12Z</time>
      </trkpt>
      <trkpt lat="48.7113" lon="2.49485">
        <ele>75.4051</ele>
        <time>2017-10-08T06:47:22Z</time>
      </trkpt>
      <trkpt lat="48.71114" lon="2.49494">
        <ele>75.4423</ele>
        <time>2017-10-08T06:47:35Z</time>
      </trkpt>
      <trkpt lat="48.71099" lon="2.49497">
        <ele>75.4634</ele>
        <time>2017-10-08T06:47:45Z</time>
      </trkpt>
      <trkpt lat="48.71086" lon="2.49506">
        <ele>75.4892</ele>
        <time>2017-10-08T06:47:54Z</time>
      </trkpt>
      <trkpt lat="48.71069" lon="2.49514">
        <ele>75.5117</ele>
        <time>2017-10-08T06:48:07Z</time>
      </trkpt>
      <trkpt lat="48.71045" lon="2.49529">
        <ele>75.5326</ele>
        <time>2017-10-08T06:48:23Z</time>
      </trkpt>
      <trkpt lat="48.71031" lon="2.49548">
        <ele>75.5639</ele>
        <time>2017-10-08T06:48:36Z</time>
      </trkpt>
      <trkpt lat="48.71022" lon="2.49567">
        <ele>75.6182</ele>
        <time>2017-10-08T06:48:47Z</time>
      </trkpt>
      <trkpt lat="48.71014" lon="2.49584">
        <ele>75.673</ele>
        <time>2017-10-08T06:48:58Z</time>
      </trkpt>
      <trkpt lat="48.71" lon="2.49616">
        <ele>75.7316</ele>
        <time>2017-10-08T06:49:16Z</time>
      </trkpt>
      <trkpt lat="48.7098" lon="2.49631">
        <ele>75.741</ele>
        <time>2017-10-08T06:49:29Z</time>
      </trkpt>
      <trkpt lat="48.70963" lon="2.49638">
        <ele>75.7282</ele>
        <time>2017-10-08T06:49:41Z</time>
      </trkpt>
      <trkpt lat="48.7095" lon="2.49644">
        <ele>75.7088</ele>
        <time>2017-10-08T06:49:52Z</time>
      </trkpt>
      <trkpt lat="48.70933" lon="2.49642">
        <ele>75.6506</ele>
        <time>2017-10-08T06:50:05Z</time>
      </trkpt>
      <trkpt lat="48.70922" lon="2.4964">
        <ele>75.6307</ele>
        <time>2017-10-08T06:50:12Z</time>
      </trkpt>
      <trkpt lat="48.70898" lon="2.49638">
        <ele>75.5651</ele>
        <time>2017-10-08T06:50:27Z</time>
      </trkpt>
      <trkpt lat="48.70883" lon="2.49638">
        <ele>75.5212</ele>
        <time>2017-10-08T06:50:37Z</time>
      </trkpt>
      <trkpt lat="48.70876" lon="2.49639">
        <ele>75.4748</ele>
        <time>2017-10-08T06:50:45Z</time>
      </trkpt>
      <trkpt lat="48.70865" lon="2.49643">
        <ele>75.4017</ele>
        <time>2017-10-08T06:50:55Z</time>
      </trkpt>
      <trkpt lat="48.70839" lon="2.49662">
        <ele>75.3685</ele>
        <time>2017-10-08T06:51:12Z</time>
      </trkpt>
      <trkpt lat="48.70826" lon="2.4967">
        <ele>75.3922</ele>
        <time>2017-10-08T06:51:20Z</time>
      </trkpt>
      <trkpt lat="48.70812" lon="2.49673">
        <ele>75.4486</ele>
        <time>2017-10-08T06:51:33Z</time>
      </trkpt>
      <trkpt lat="48.70793" lon="2.49682">
        <ele>75.5405</ele>
        <time>2017-10-08T06:51:50Z</time>
      </trkpt>
      <trkpt lat="48.70787" lon="2.49712">
        <ele>75.6881</ele>
        <time>2017-10-08T06:52:02Z</time>
      </trkpt>
      <trkpt lat="48.70788" lon="2.49743">
        <ele>75.9551</ele>
        <time>2017-10-08T06:52:16Z</time>
      </trkpt>
      <trkpt lat="48.70797" lon="2.49752">
        <ele>76.0799</ele>
        <time>2017-10-08T06:52:23Z</time>
      </trkpt>
      <trkpt lat="48.70814" lon="2.4976">
        <ele>76.2873</ele>
        <time>2017-10-08T06:52:35Z</time>
      </trkpt>
      <trkpt lat="48.70826" lon="2.49758">
        <ele>76.4198</ele>
        <time>2017-10-08T06:52:43Z</time>
      </trkpt>
      <trkpt lat="48.70847" lon="2.49758">
        <ele>76.6706</ele>
        <time>2017-10-08T06:52:56Z</time>
      </trkpt>
      <trkpt lat="48.70863" lon="2.49754">
        <ele>76.8463</ele>
        <time>2017-10-08T06:53:07Z</time>
      </trkpt>
      <trkpt lat="48.70883" lon="2.49753">
        <ele>76.9978</ele>
        <time>2017-10-08T06:53:22Z</time>
      </trkpt>
      <trkpt lat="48.70892" lon="2.49776">
        <ele>77.056</ele>
        <time>2017-10-08T06:53:36Z</time>
      </trkpt>
      <trkpt lat="48.70899" lon="2.49794">
        <ele>77.083</ele>
        <time>2017-10-08T06:53:45Z</time>
      </trkpt>
      <trkpt lat="48.70906" lon="2.49823">
        <ele>77.1485</ele>
        <time>2017-10-08T06:54:01Z</time>
      </trkpt>
      <trkpt lat="48.70922" lon="2.49838">
        <ele>77.2185</ele>
        <time>2017-10-08T06:54:15Z</time>
      </trkpt>
      <trkpt lat="48.70936" lon="2.4985">
        <ele>77.2837</ele>
        <time>2017-10-08T06:54:28Z</time>
      </trkpt>
      <trkpt lat="48.70961" lon="2.49875">
        <ele>77.3597</ele>
        <time>2017-10-08T06:54:48Z</time>
      </trkpt>
      <trkpt lat="48.70972" lon="2.49889">
        <ele>77.413</ele>
        <time>2017-10-08T06:55:01Z</time>
      </trkpt>
      <trkpt lat="48.70972" lon="2.49889">
        <ele>77.413</ele>
        <time>2017-10-08T06:55:10Z</time>
      </trkpt>
      <trkpt lat="48.70972" lon="2.49889">
        <ele>42</ele>
        <time>2017-10-08T06:55:10Z</time>
      </trkpt>
      <trkpt lat="48.70972" lon="2.49889">
        <ele>42</ele>
        <time>2017-10-08T06:55:16Z</time>
      </trkpt>
      <trkpt lat="48.70959" lon="2.49904">
        <ele>77.5063</ele>
        <time>2017-10-08T06:55:16Z</time>
      </trkpt>
      <trkpt lat="48.70951" lon="2.49914">
        <ele>77.5479</ele>
        <time>2017-10-08T06:55:23Z</time>
      </trkpt>
      <trkpt lat="48.70939" lon="2.49933">
        <ele>77.6426</ele>
        <time>2017-10-08T06:55:36Z</time>
      </trkpt>
      <trkpt lat="48.70924" lon="2.49958">
        <ele>77.8247</ele>
        <time>2017-10-08T06:55:50Z</time>
      </trkpt>
      <trkpt lat="48.70918" lon="2.4998">
        <ele>78.0301</ele>
        <time>2017-10-08T06:56:03Z</time>
      </trkpt>
      <trkpt lat="48.70918" lon="2.50014">
        <ele>78.2098</ele>
        <time>2017-10-08T06:56:18Z</time>
      </trkpt>
      <trkpt lat="48.70929" lon="2.50057">
        <ele>78.413</ele>
        <time>2017-10-08T06:56:38Z</time>
      </trkpt>
      <trkpt lat="48.70935" lon="2.50083">
        <ele>78.526</ele>
        <time>2017-10-08T06:56:51Z</time>
      </trkpt>
      <trkpt lat="48.70944" lon="2.50102">
        <ele>78.611</ele>
        <time>2017-10-08T06:57:02Z</time>
      </trkpt>
      <trkpt lat="48.70938" lon="2.50131">
        <ele>78.7212</ele>
        <time>2017-10-08T06:57:16Z</time>
      </trkpt>
      <trkpt lat="48.7094" lon="2.50159">
        <ele>78.8255</ele>
        <time>2017-10-08T06:57:32Z</time>
      </trkpt>
      <trkpt lat="48.70949" lon="2.50184">
        <ele>78.8986</ele>
        <time>2017-10-08T06:57:44Z</time>
      </trkpt>
      <trkpt lat="48.70959" lon="2.50203">
        <ele>78.9798</ele>
        <time>2017-10-08T06:57:54Z</time>
      </trkpt>
      <trkpt lat="48.70972" lon="2.50217">
        <ele>79.1207</ele>
        <time>2017-10-08T06:58:07Z</time>
      </trkpt>
      <trkpt lat="48.70985" lon="2.50223">
        <ele>79.3997</ele>
        <time>2017-10-08T06:58:25Z</time>
      </trkpt>
      <trkpt lat="48.70992" lon="2.50241">
        <ele>79.5515</ele>
        <time>2017-10-08T06:58:35Z</time>
      </trkpt>
      <trkpt lat="48.71" lon="2.50261">
        <ele>79.7145</ele>
        <time>2017-10-08T06:58:46Z</time>
      </trkpt>
      <trkpt lat="48.71006" lon="2.50279">
        <ele>79.8861</ele>
        <time>2017-10-08T06:58:57Z</time>
      </trkpt>
      <trkpt lat="48.71016" lon="2.50295">
        <ele>80.035</ele>
        <time>2017-10-08T06:59:06Z</time>
      </trkpt>
      <trkpt lat="48.71027" lon="2.5031">
        <ele>80.2018</ele>
        <time>2017-10-08T06:59:16Z</time>
      </trkpt>
      <trkpt lat="48.71032" lon="2.5032">
        <ele>80.3568</ele>
        <time>2017-10-08T06:59:26Z</time>
      </trkpt>
      <trkpt lat="48.71035" lon="2.50333">
        <ele>80.5001</ele>
        <time>2017-10-08T06:59:36Z</time>
      </trkpt>
      <trkpt lat="48.71035" lon="2.50333">
        <ele>40</ele>
        <time>2017-10-08T06:59:43Z</time>
      </trkpt>
      <trkpt lat="48.71035" lon="2.50333">
        <ele>40</ele>
        <time>2017-10-08T06:59:48Z</time>
      </trkpt>
      <trkpt lat="48.7104" lon="2.50345">
        <ele>80.6501</ele>
        <time>2017-10-08T06:59:48Z</time>
      </trkpt>
      <trkpt lat="48.71055" lon="2.50377">
        <ele>80.8199</ele>
        <time>2017-10-08T07:00:04Z</time>
      </trkpt>
      <trkpt lat="48.7106" lon="2.50396">
        <ele>80.9688</ele>
        <time>2017-10-08T07:00:17Z</time>
      </trkpt>
      <trkpt lat="48.71069" lon="2.50421">
        <ele>81.2234</ele>
        <time>2017-10-08T07:00:33Z</time>
      </trkpt>
      <trkpt lat="48.71077" lon="2.5044">
        <ele>81.4688</ele>
        <time>2017-10-08T07:00:45Z</time>
      </trkpt>
      <trkpt lat="48.71086" lon="2.50457">
        <ele>81.7596</ele>
        <time>2017-10-08T07:00:57Z</time>
      </trkpt>
      <trkpt lat="48.71099" lon="2.50483">
        <ele>82.0646</ele>
        <time>2017-10-08T07:01:10Z</time>
      </trkpt>
      <trkpt lat="48.71107" lon="2.50505">
        <ele>82.3379</ele>
        <time>2017-10-08T07:01:22Z</time>
      </trkpt>
      <trkpt lat="48.71117" lon="2.50522">
        <ele>82.6083</ele>
        <time>2017-10-08T07:01:34Z</time>
      </trkpt>
      <trkpt lat="48.7113" lon="2.50537">
        <ele>82.8953</ele>
        <time>2017-10-08T07:01:47Z</time>
      </trkpt>
      <trkpt lat="48.71147" lon="2.50564">
        <ele>83.2244</ele>
        <time>2017-10-08T07:02:03Z</time>
      </trkpt>
      <trkpt lat="48.71155" lon="2.50601">
        <ele>83.4998</ele>
        <time>2017-10-08T07:02:17Z</time>
      </trkpt>
      <trkpt lat="48.71161" lon="2.50625">
        <ele>83.6492</ele>
        <time>2017-10-08T07:02:26Z</time>
      </trkpt>
      <trkpt lat="48.71165" lon="2.50646">
        <ele>83.7921</ele>
        <time>2017-10-08T07:02:37Z</time>
      </trkpt>
      <trkpt lat="48.71165" lon="2.50677">
        <ele>83.9325</ele>
        <time>2017-10-08T07:02:53Z</time>
      </trkpt>
      <trkpt lat="48.71173" lon="2.50701">
        <ele>84.0325</ele>
        <time>2017-10-08T07:03:06Z</time>
      </trkpt>
      <trkpt lat="48.71189" lon="2.50737">
        <ele>84.1621</ele>
        <time>2017-10-08T07:03:25Z</time>
      </trkpt>
      <trkpt lat="48.71204" lon="2.50757">
        <ele>84.4238</ele>
        <time>2017-10-08T07:03:43Z</time>
      </trkpt>
      <trkpt lat="48.7122" lon="2.50792">
        <ele>84.6699</ele>
        <time>2017-10-08T07:04:02Z</time>
      </trkpt>
      <trkpt lat="48.71226" lon="2.50818">
        <ele>84.8662</ele>
        <time>2017-10-08T07:04:17Z</time>
      </trkpt>
      <trkpt lat="48.7123" lon="2.50838">
        <ele>84.9771</ele>
        <time>2017-10-08T07:04:26Z</time>
      </trkpt>
      <trkpt lat="48.71234" lon="2.50865">
        <ele>85.1184</ele>
        <time>2017-10-08T07:04:38Z</time>
      </trkpt>
      <trkpt lat="48.71241" lon="2.50896">
        <ele>85.2834</ele>
        <time>2017-10-08T07:04:54Z</time>
      </trkpt>
      <trkpt lat="48.71247" lon="2.50917">
        <ele>85.4138</ele>
        <time>2017-10-08T07:05:07Z</time>
      </trkpt>
      <trkpt lat="48.71253" lon="2.50948">
        <ele>85.5224</ele>
        <time>2017-10-08T07:05:18Z</time>
      </trkpt>
      <trkpt lat="48.71252" lon="2.50968">
        <ele>85.598</ele>
        <time>2017-10-08T07:05:28Z</time>
      </trkpt>
      <trkpt lat="48.71256" lon="2.51007">
        <ele>85.7148</ele>
        <time>2017-10-08T07:05:43Z</time>
      </trkpt>
      <trkpt lat="48.71259" lon="2.51043">
        <ele>85.8431</ele>
        <time>2017-10-08T07:05:58Z</time>
      </trkpt>
      <trkpt lat="48.71264" lon="2.51073">
        <ele>85.9767</ele>
        <time>2017-10-08T07:06:11Z</time>
      </trkpt>
      <trkpt lat="48.71267" lon="2.51099">
        <ele>86.1486</ele>
        <time>2017-10-08T07:06:25Z</time>
      </trkpt>
      <trkpt lat="48.71271" lon="2.5114">
        <ele>86.3043</ele>
        <time>2017-10-08T07:06:40Z</time>
      </trkpt>
      <trkpt lat="48.71274" lon="2.51158">
        <ele>86.3582</ele>
        <time>2017-10-08T07:06:49Z</time>
      </trkpt>
      <trkpt lat="48.71275" lon="2.51181">
        <ele>86.3839</ele>
        <time>2017-10-08T07:06:59Z</time>
      </trkpt>
      <trkpt lat="48.71276" lon="2.51195">
        <ele>86.3902</ele>
        <time>2017-10-08T07:07:05Z</time>
      </trkpt>
      <trkpt lat="48.7128" lon="2.51217">
        <ele>86.3894</ele>
        <time>2017-10-08T07:07:16Z</time>
      </trkpt>
      <trkpt lat="48.71277" lon="2.5125">
        <ele>86.4321</ele>
        <time>2017-10-08T07:07:33Z</time>
      </trkpt>
      <trkpt lat="48.71273" lon="2.51279">
        <ele>86.5004</ele>
        <time>2017-10-08T07:07:47Z</time>
      </trkpt>
      <trkpt lat="48.71265" lon="2.51293">
        <ele>86.5367</ele>
        <time>2017-10-08T07:07:55Z</time>
      </trkpt>
      <trkpt lat="48.71257" lon="2.51314">
        <ele>86.576</ele>
        <time>2017-10-08T07:08:05Z</time>
      </trkpt>
      <trkpt lat="48.7125" lon="2.51332">
        <ele>86.6024</ele>
        <time>2017-10-08T07:08:15Z</time>
      </trkpt>
      <trkpt lat="48.71247" lon="2.51364">
        <ele>86.648</ele>
        <time>2017-10-08T07:08:31Z</time>
      </trkpt>
      <trkpt lat="48.71252" lon="2.51391">
        <ele>86.7104</ele>
        <time>2017-10-08T07:08:44Z</time>
      </trkpt>
      <trkpt lat="48.7126" lon="2.51415">
        <ele>86.7696</ele>
        <time>2017-10-08T07:08:53Z</time>
      </trkpt>
      <trkpt lat="48.71261" lon="2.51422">
        <ele>86.7982</ele>
        <time>2017-10-08T07:08:57Z</time>
      </trkpt>
      <trkpt lat="48.71261" lon="2.51422">
        <ele>48.7</ele>
        <time>2017-10-08T07:09:03Z</time>
      </trkpt>
      <trkpt lat="48.71261" lon="2.51422">
        <ele>48.7</ele>
        <time>2017-10-08T07:09:08Z</time>
      </trkpt>
      <trkpt lat="48.71266" lon="2.51437">
        <ele>86.9093</ele>
        <time>2017-10-08T07:09:08Z</time>
      </trkpt>
      <trkpt lat="48.71272" lon="2.51463">
        <ele>87.0416</ele>
        <time>2017-10-08T07:09:21Z</time>
      </trkpt>
      <trkpt lat="48.71278" lon="2.51484">
        <ele>87.1464</ele>
        <time>2017-10-08T07:09:31Z</time>
      </trkpt>
      <trkpt lat="48.71283" lon="2.51513">
        <ele>87.3701</ele>
        <time>2017-10-08T07:09:45Z</time>
      </trkpt>
      <trkpt lat="48.7129" lon="2.51538">
        <ele>87.6978</ele>
        <time>2017-10-08T07:09:59Z</time>
      </trkpt>
      <trkpt lat="48.71296" lon="2.51566">
        <ele>88.0817</ele>
        <time>2017-10-08T07:10:14Z</time>
      </trkpt>
      <trkpt lat="48.71307" lon="2.51593">
        <ele>88.4049</ele>
        <time>2017-10-08T07:10:27Z</time>
      </trkpt>
      <trkpt lat="48.71312" lon="2.51608">
        <ele>88.5221</ele>
        <time>2017-10-08T07:10:33Z</time>
      </trkpt>
      <trkpt lat="48.71316" lon="2.51622">
        <ele>88.6467</ele>
        <time>2017-10-08T07:10:40Z</time>
      </trkpt>
      <trkpt lat="48.71325" lon="2.51641">
        <ele>88.8929</ele>
        <time>2017-10-08T07:10:54Z</time>
      </trkpt>
      <trkpt lat="48.71336" lon="2.51669">
        <ele>89.1909</ele>
        <time>2017-10-08T07:11:11Z</time>
      </trkpt>
      <trkpt lat="48.71346" lon="2.51702">
        <ele>89.4812</ele>
        <time>2017-10-08T07:11:26Z</time>
      </trkpt>
      <trkpt lat="48.71351" lon="2.51724">
        <ele>89.696</ele>
        <time>2017-10-08T07:11:38Z</time>
      </trkpt>
      <trkpt lat="48.7136" lon="2.51754">
        <ele>89.8601</ele>
        <time>2017-10-08T07:11:50Z</time>
      </trkpt>
      <trkpt lat="48.71354" lon="2.51793">
        <ele>90.1882</ele>
        <time>2017-10-08T07:12:06Z</time>
      </trkpt>
      <trkpt lat="48.71351" lon="2.51808">
        <ele>90.4154</ele>
        <time>2017-10-08T07:12:15Z</time>
      </trkpt>
      <trkpt lat="48.7134" lon="2.51828">
        <ele>90.7654</ele>
        <time>2017-10-08T07:12:28Z</time>
      </trkpt>
      <trkpt lat="48.71327" lon="2.51843">
        <ele>91.0889</ele>
        <time>2017-10-08T07:12:40Z</time>
      </trkpt>
      <trkpt lat="48.71316" lon="2.51855">
        <ele>91.3025</ele>
        <time>2017-10-08T07:12:49Z</time>
      </trkpt>
      <trkpt lat="48.71306" lon="2.51862">
        <ele>91.455</ele>
        <time>2017-10-08T07:12:56Z</time>
      </trkpt>
      <trkpt lat="48.7129" lon="2.51879">
        <ele>91.7784</ele>
        <time>2017-10-08T07:13:10Z</time>
      </trkpt>
      <trkpt lat="48.71283" lon="2.51894">
        <ele>92.0571</ele>
        <time>2017-10-08T07:13:21Z</time>
      </trkpt>
      <trkpt lat="48.71283" lon="2.51921">
        <ele>92.5084</ele>
        <time>2017-10-08T07:13:36Z</time>
      </trkpt>
      <trkpt lat="48.71281" lon="2.51955">
        <ele>93.0984</ele>
        <time>2017-10-08T07:13:54Z</time>
      </trkpt>
      <trkpt lat="48.71282" lon="2.51977">
        <ele>93.4646</ele>
        <time>2017-10-08T07:14:06Z</time>
      </trkpt>
      <trkpt lat="48.71284" lon="2.51993">
        <ele>93.6877</ele>
        <time>2017-10-08T07:14:14Z</time>
      </trkpt>
      <trkpt lat="48.71291" lon="2.52019">
        <ele>94.0739</ele>
        <time>2017-10-08T07:14:30Z</time>
      </trkpt>
      <trkpt lat="48.71291" lon="2.52019">
        <ele>94.0739</ele>
        <time>2017-10-08T07:17:27Z</time>
      </trkpt>
      <trkpt lat="48.71306" lon="2.5205">
        <ele>93.9233</ele>
        <time>2017-10-08T07:17:36Z</time>
      </trkpt>
      <trkpt lat="48.71324" lon="2.5206">
        <ele>93.8717</ele>
        <time>2017-10-08T07:17:51Z</time>
      </trkpt>
      <trkpt lat="48.71339" lon="2.52052">
        <ele>93.859</ele>
        <time>2017-10-08T07:18:03Z</time>
      </trkpt>
      <trkpt lat="48.71364" lon="2.52039">
        <ele>93.8536</ele>
        <time>2017-10-08T07:18:22Z</time>
      </trkpt>
      <trkpt lat="48.71382" lon="2.52035">
        <ele>93.854</ele>
        <time>2017-10-08T07:18:34Z</time>
      </trkpt>
      <trkpt lat="48.71393" lon="2.52037">
        <ele>93.8535</ele>
        <time>2017-10-08T07:18:44Z</time>
      </trkpt>
      <trkpt lat="48.71409" lon="2.52065">
        <ele>93.8594</ele>
        <time>2017-10-08T07:19:01Z</time>
      </trkpt>
      <trkpt lat="48.71417" lon="2.52086">
        <ele>93.8648</ele>
        <time>2017-10-08T07:19:12Z</time>
      </trkpt>
      <trkpt lat="48.71424" lon="2.52102">
        <ele>93.8767</ele>
        <time>2017-10-08T07:19:20Z</time>
      </trkpt>
      <trkpt lat="48.71428" lon="2.52117">
        <ele>93.8963</ele>
        <time>2017-10-08T07:19:28Z</time>
      </trkpt>
      <trkpt lat="48.7143" lon="2.52147">
        <ele>93.948</ele>
        <time>2017-10-08T07:19:42Z</time>
      </trkpt>
      <trkpt lat="48.71429" lon="2.52164">
        <ele>93.9852</ele>
        <time>2017-10-08T07:19:50Z</time>
      </trkpt>
      <trkpt lat="48.71421" lon="2.52193">
        <ele>94.0167</ele>
        <time>2017-10-08T07:20:04Z</time>
      </trkpt>
      <trkpt lat="48.71415" lon="2.52211">
        <ele>94.0335</ele>
        <time>2017-10-08T07:20:14Z</time>
      </trkpt>
      <trkpt lat="48.71406" lon="2.52233">
        <ele>94.0545</ele>
        <time>2017-10-08T07:20:25Z</time>
      </trkpt>
      <trkpt lat="48.71399" lon="2.52251">
        <ele>94.0654</ele>
        <time>2017-10-08T07:20:35Z</time>
      </trkpt>
      <trkpt lat="48.71389" lon="2.52285">
        <ele>94.0968</ele>
        <time>2017-10-08T07:20:51Z</time>
      </trkpt>
      <trkpt lat="48.71382" lon="2.5231">
        <ele>94.1572</ele>
        <time>2017-10-08T07:21:05Z</time>
      </trkpt>
      <trkpt lat="48.71375" lon="2.52337">
        <ele>94.2335</ele>
        <time>2017-10-08T07:21:18Z</time>
      </trkpt>
      <trkpt lat="48.71362" lon="2.52364">
        <ele>94.351</ele>
        <time>2017-10-08T07:21:32Z</time>
      </trkpt>
      <trkpt lat="48.71353" lon="2.52382">
        <ele>94.4431</ele>
        <time>2017-10-08T07:21:42Z</time>
      </trkpt>
      <trkpt lat="48.71346" lon="2.52396">
        <ele>94.5172</ele>
        <time>2017-10-08T07:21:50Z</time>
      </trkpt>
      <trkpt lat="48.71339" lon="2.52421">
        <ele>94.6413</ele>
        <time>2017-10-08T07:22:03Z</time>
      </trkpt>
      <trkpt lat="48.71338" lon="2.52442">
        <ele>94.7544</ele>
        <time>2017-10-08T07:22:13Z</time>
      </trkpt>
      <trkpt lat="48.71338" lon="2.52474">
        <ele>94.9383</ele>
        <time>2017-10-08T07:22:28Z</time>
      </trkpt>
      <trkpt lat="48.71342" lon="2.52501">
        <ele>95.104</ele>
        <time>2017-10-08T07:22:41Z</time>
      </trkpt>
      <trkpt lat="48.71351" lon="2.52528">
        <ele>95.2556</ele>
        <time>2017-10-08T07:22:56Z</time>
      </trkpt>
      <trkpt lat="48.71362" lon="2.52554">
        <ele>95.3746</ele>
        <time>2017-10-08T07:23:12Z</time>
      </trkpt>
      <trkpt lat="48.71373" lon="2.52577">
        <ele>95.4817</ele>
        <time>2017-10-08T07:23:25Z</time>
      </trkpt>
      <trkpt lat="48.7138" lon="2.52588">
        <ele>95.5505</ele>
        <time>2017-10-08T07:23:33Z</time>
      </trkpt>
      <trkpt lat="48.71398" lon="2.52608">
        <ele>95.6865</ele>
        <time>2017-10-08T07:23:48Z</time>
      </trkpt>
      <trkpt lat="48.71409" lon="2.52628">
        <ele>95.7915</ele>
        <time>2017-10-08T07:24:00Z</time>
      </trkpt>
      <trkpt lat="48.71416" lon="2.52655">
        <ele>95.8758</ele>
        <time>2017-10-08T07:24:15Z</time>
      </trkpt>
      <trkpt lat="48.71418" lon="2.52675">
        <ele>95.9168</ele>
        <time>2017-10-08T07:24:24Z</time>
      </trkpt>
      <trkpt lat="48.71418" lon="2.52703">
        <ele>95.9859</ele>
        <time>2017-10-08T07:24:37Z</time>
      </trkpt>
      <trkpt lat="48.71416" lon="2.52716">
        <ele>96.034</ele>
        <time>2017-10-08T07:24:47Z</time>
      </trkpt>
      <trkpt lat="48.71405" lon="2.52729">
        <ele>96.1058</ele>
        <time>2017-10-08T07:25:04Z</time>
      </trkpt>
      <trkpt lat="48.71391" lon="2.52735">
        <ele>96.158</ele>
        <time>2017-10-08T07:25:14Z</time>
      </trkpt>
      <trkpt lat="48.71392" lon="2.52758">
        <ele>96.2251</ele>
        <time>2017-10-08T07:25:26Z</time>
      </trkpt>
      <trkpt lat="48.71392" lon="2.52788">
        <ele>96.3477</ele>
        <time>2017-10-08T07:25:40Z</time>
      </trkpt>
      <trkpt lat="48.71394" lon="2.52809">
        <ele>96.4702</ele>
        <time>2017-10-08T07:25:50Z</time>
      </trkpt>
      <trkpt lat="48.71401" lon="2.52842">
        <ele>96.6633</ele>
        <time>2017-10-08T07:26:05Z</time>
      </trkpt>
      <trkpt lat="48.71407" lon="2.52861">
        <ele>96.7583</ele>
        <time>2017-10-08T07:26:13Z</time>
      </trkpt>
      <trkpt lat="48.71415" lon="2.52888">
        <ele>96.8719</ele>
        <time>2017-10-08T07:26:26Z</time>
      </trkpt>
      <trkpt lat="48.71422" lon="2.52909">
        <ele>96.9364</ele>
        <time>2017-10-08T07:26:37Z</time>
      </trkpt>
      <trkpt lat="48.71433" lon="2.5294">
        <ele>97.0197</ele>
        <time>2017-10-08T07:26:52Z</time>
      </trkpt>
      <trkpt lat="48.71445" lon="2.5297">
        <ele>97.1269</ele>
        <time>2017-10-08T07:27:07Z</time>
      </trkpt>
      <trkpt lat="48.71456" lon="2.52995">
        <ele>97.2493</ele>
        <time>2017-10-08T07:27:22Z</time>
      </trkpt>
      <trkpt lat="48.71469" lon="2.5302">
        <ele>97.3424</ele>
        <time>2017-10-08T07:27:34Z</time>
      </trkpt>
      <trkpt lat="48.71476" lon="2.53036">
        <ele>97.3928</ele>
        <time>2017-10-08T07:27:42Z</time>
      </trkpt>
      <trkpt lat="48.71483" lon="2.53054">
        <ele>97.4493</ele>
        <time>2017-10-08T07:27:53Z</time>
      </trkpt>
      <trkpt lat="48.71488" lon="2.53065">
        <ele>97.4833</ele>
        <time>2017-10-08T07:28:00Z</time>
      </trkpt>
      <trkpt lat="48.71496" lon="2.53077">
        <ele>97.5293</ele>
        <time>2017-10-08T07:28:09Z</time>
      </trkpt>
      <trkpt lat="48.71508" lon="2.53094">
        <ele>97.5744</ele>
        <time>2017-10-08T07:28:24Z</time>
      </trkpt>
      <trkpt lat="48.71516" lon="2.53109">
        <ele>97.5834</ele>
        <time>2017-10-08T07:28:33Z</time>
      </trkpt>
      <trkpt lat="48.71523" lon="2.53122">
        <ele>97.5737</ele>
        <time>2017-10-08T07:28:41Z</time>
      </trkpt>
      <trkpt lat="48.71531" lon="2.53149">
        <ele>97.5577</ele>
        <time>2017-10-08T07:28:53Z</time>
      </trkpt>
      <trkpt lat="48.71536" lon="2.53169">
        <ele>97.5663</ele>
        <time>2017-10-08T07:29:03Z</time>
      </trkpt>
      <trkpt lat="48.71544" lon="2.53194">
        <ele>97.5895</ele>
        <time>2017-10-08T07:29:15Z</time>
      </trkpt>
      <trkpt lat="48.71555" lon="2.53217">
        <ele>97.624</ele>
        <time>2017-10-08T07:29:27Z</time>
      </trkpt>
      <trkpt lat="48.71561" lon="2.53243">
        <ele>97.6889</ele>
        <time>2017-10-08T07:29:41Z</time>
      </trkpt>
      <trkpt lat="48.71573" lon="2.53267">
        <ele>97.7252</ele>
        <time>2017-10-08T07:29:55Z</time>
      </trkpt>
      <trkpt lat="48.71583" lon="2.53292">
        <ele>97.7485</ele>
        <time>2017-10-08T07:30:07Z</time>
      </trkpt>
      <trkpt lat="48.71591" lon="2.53311">
        <ele>97.7765</ele>
        <time>2017-10-08T07:30:16Z</time>
      </trkpt>
      <trkpt lat="48.71598" lon="2.53327">
        <ele>97.8167</ele>
        <time>2017-10-08T07:30:25Z</time>
      </trkpt>
      <trkpt lat="48.71604" lon="2.53342">
        <ele>97.8646</ele>
        <time>2017-10-08T07:30:34Z</time>
      </trkpt>
      <trkpt lat="48.71608" lon="2.5335">
        <ele>97.9001</ele>
        <time>2017-10-08T07:30:41Z</time>
      </trkpt>
      <trkpt lat="48.71622" lon="2.53389">
        <ele>97.9473</ele>
        <time>2017-10-08T07:31:00Z</time>
      </trkpt>
      <trkpt lat="48.71629" lon="2.53407">
        <ele>97.9635</ele>
        <time>2017-10-08T07:31:09Z</time>
      </trkpt>
      <trkpt lat="48.71643" lon="2.53436">
        <ele>98.0003</ele>
        <time>2017-10-08T07:31:24Z</time>
      </trkpt>
      <trkpt lat="48.71651" lon="2.53459">
        <ele>98.0338</ele>
        <time>2017-10-08T07:31:35Z</time>
      </trkpt>
      <trkpt lat="48.71661" lon="2.53478">
        <ele>98.0842</ele>
        <time>2017-10-08T07:31:45Z</time>
      </trkpt>
      <trkpt lat="48.71668" lon="2.5351">
        <ele>98.1921</ele>
        <time>2017-10-08T07:32:01Z</time>
      </trkpt>
      <trkpt lat="48.71668" lon="2.53534">
        <ele>98.2805</ele>
        <time>2017-10-08T07:32:11Z</time>
      </trkpt>
      <trkpt lat="48.71669" lon="2.53557">
        <ele>98.3824</ele>
        <time>2017-10-08T07:32:20Z</time>
      </trkpt>
      <trkpt lat="48.71668" lon="2.53584">
        <ele>98.559</ele>
        <time>2017-10-08T07:32:33Z</time>
      </trkpt>
      <trkpt lat="48.71667" lon="2.53602">
        <ele>98.6969</ele>
        <time>2017-10-08T07:32:42Z</time>
      </trkpt>
      <trkpt lat="48.71662" lon="2.53633">
        <ele>98.9155</ele>
        <time>2017-10-08T07:32:58Z</time>
      </trkpt>
      <trkpt lat="48.71667" lon="2.53658">
        <ele>99.0881</ele>
        <time>2017-10-08T07:33:12Z</time>
      </trkpt>
      <trkpt lat="48.71676" lon="2.53683">
        <ele>99.211</ele>
        <time>2017-10-08T07:33:24Z</time>
      </trkpt>
      <trkpt lat="48.71674" lon="2.53702">
        <ele>99.3191</ele>
        <time>2017-10-08T07:33:38Z</time>
      </trkpt>
      <trkpt lat="48.71674" lon="2.53702">
        <ele>99.3191</ele>
        <time>2017-10-08T07:36:19Z</time>
      </trkpt>
      <trkpt lat="48.7168" lon="2.53732">
        <ele>100.419</ele>
        <time>2017-10-08T07:36:28Z</time>
      </trkpt>
      <trkpt lat="48.71685" lon="2.53754">
        <ele>100.715</ele>
        <time>2017-10-08T07:36:39Z</time>
      </trkpt>
      <trkpt lat="48.71699" lon="2.53783">
        <ele>101.073</ele>
        <time>2017-10-08T07:36:56Z</time>
      </trkpt>
      <trkpt lat="48.7171" lon="2.53811">
        <ele>101.352</ele>
        <time>2017-10-08T07:37:13Z</time>
      </trkpt>
      <trkpt lat="48.7172" lon="2.53827">
        <ele>101.482</ele>
        <time>2017-10-08T07:37:22Z</time>
      </trkpt>
      <trkpt lat="48.71739" lon="2.53852">
        <ele>101.702</ele>
        <time>2017-10-08T07:37:39Z</time>
      </trkpt>
      <trkpt lat="48.71751" lon="2.53872">
        <ele>101.845</ele>
        <time>2017-10-08T07:37:51Z</time>
      </trkpt>
      <trkpt lat="48.71764" lon="2.53892">
        <ele>102.013</ele>
        <time>2017-10-08T07:38:05Z</time>
      </trkpt>
      <trkpt lat="48.71779" lon="2.53913">
        <ele>102.17</ele>
        <time>2017-10-08T07:38:19Z</time>
      </trkpt>
      <trkpt lat="48.71791" lon="2.53931">
        <ele>102.272</ele>
        <time>2017-10-08T07:38:29Z</time>
      </trkpt>
      <trkpt lat="48.71802" lon="2.53945">
        <ele>102.372</ele>
        <time>2017-10-08T07:38:39Z</time>
      </trkpt>
      <trkpt lat="48.7182" lon="2.53969">
        <ele>102.503</ele>
        <time>2017-10-08T07:38:55Z</time>
      </trkpt>
      <trkpt lat="48.71832" lon="2.53988">
        <ele>102.582</ele>
        <time>2017-10-08T07:39:06Z</time>
      </trkpt>
      <trkpt lat="48.71841" lon="2.54007">
        <ele>102.664</ele>
        <time>2017-10-08T07:39:18Z</time>
      </trkpt>
      <trkpt lat="48.71858" lon="2.54029">
        <ele>102.804</ele>
        <time>2017-10-08T07:39:35Z</time>
      </trkpt>
      <trkpt lat="48.71867" lon="2.54043">
        <ele>102.888</ele>
        <time>2017-10-08T07:39:45Z</time>
      </trkpt>
      <trkpt lat="48.71884" lon="2.54065">
        <ele>103.01</ele>
        <time>2017-10-08T07:40:00Z</time>
      </trkpt>
      <trkpt lat="48.71895" lon="2.54091">
        <ele>103.155</ele>
        <time>2017-10-08T07:40:14Z</time>
      </trkpt>
      <trkpt lat="48.719" lon="2.54117">
        <ele>103.333</ele>
        <time>2017-10-08T07:40:27Z</time>
      </trkpt>
      <trkpt lat="48.71909" lon="2.54147">
        <ele>103.528</ele>
        <time>2017-10-08T07:40:41Z</time>
      </trkpt>
      <trkpt lat="48.71921" lon="2.54172">
        <ele>103.698</ele>
        <time>2017-10-08T07:40:54Z</time>
      </trkpt>
      <trkpt lat="48.71929" lon="2.54184">
        <ele>103.782</ele>
        <time>2017-10-08T07:41:00Z</time>
      </trkpt>
      <trkpt lat="48.71934" lon="2.54199">
        <ele>103.892</ele>
        <time>2017-10-08T07:41:08Z</time>
      </trkpt>
      <trkpt lat="48.71945" lon="2.54226">
        <ele>104.057</ele>
        <time>2017-10-08T07:41:21Z</time>
      </trkpt>
      <trkpt lat="48.7195" lon="2.54247">
        <ele>104.18</ele>
        <time>2017-10-08T07:41:33Z</time>
      </trkpt>
      <trkpt lat="48.71967" lon="2.5427">
        <ele>104.32</ele>
        <time>2017-10-08T07:41:52Z</time>
      </trkpt>
      <trkpt lat="48.71984" lon="2.54287">
        <ele>104.394</ele>
        <time>2017-10-08T07:42:05Z</time>
      </trkpt>
      <trkpt lat="48.72002" lon="2.54308">
        <ele>104.457</ele>
        <time>2017-10-08T07:42:17Z</time>
      </trkpt>
      <trkpt lat="48.72019" lon="2.54319">
        <ele>104.53</ele>
        <time>2017-10-08T07:42:32Z</time>
      </trkpt>
      <trkpt lat="48.72037" lon="2.54326">
        <ele>104.607</ele>
        <time>2017-10-08T07:42:49Z</time>
      </trkpt>
      <trkpt lat="48.72046" lon="2.54305">
        <ele>104.672</ele>
        <time>2017-10-08T07:43:03Z</time>
      </trkpt>
      <trkpt lat="48.72062" lon="2.54284">
        <ele>104.796</ele>
        <time>2017-10-08T07:43:22Z</time>
      </trkpt>
      <trkpt lat="48.72079" lon="2.54277">
        <ele>104.888</ele>
        <time>2017-10-08T07:43:34Z</time>
      </trkpt>
      <trkpt lat="48.72091" lon="2.5428">
        <ele>104.96</ele>
        <time>2017-10-08T07:43:43Z</time>
      </trkpt>
      <trkpt lat="48.72112" lon="2.5429">
        <ele>105.095</ele>
        <time>2017-10-08T07:43:59Z</time>
      </trkpt>
      <trkpt lat="48.72128" lon="2.54294">
        <ele>105.178</ele>
        <time>2017-10-08T07:44:09Z</time>
      </trkpt>
      <trkpt lat="48.72152" lon="2.543">
        <ele>105.281</ele>
        <time>2017-10-08T07:44:22Z</time>
      </trkpt>
      <trkpt lat="48.72171" lon="2.54307">
        <ele>105.374</ele>
        <time>2017-10-08T07:44:34Z</time>
      </trkpt>
      <trkpt lat="48.72187" lon="2.54313">
        <ele>105.446</ele>
        <time>2017-10-08T07:44:47Z</time>
      </trkpt>
      <trkpt lat="48.72203" lon="2.54324">
        <ele>105.505</ele>
        <time>2017-10-08T07:45:00Z</time>
      </trkpt>
      <trkpt lat="48.7222" lon="2.54326">
        <ele>105.556</ele>
        <time>2017-10-08T07:45:13Z</time>
      </trkpt>
      <trkpt lat="48.72231" lon="2.54338">
        <ele>105.6</ele>
        <time>2017-10-08T07:45:27Z</time>
      </trkpt>
      <trkpt lat="48.72234" lon="2.54366">
        <ele>105.633</ele>
        <time>2017-10-08T07:45:42Z</time>
      </trkpt>
      <trkpt lat="48.72234" lon="2.54366">
        <ele>57.1</ele>
        <time>2017-10-08T07:45:50Z</time>
      </trkpt>
      <trkpt lat="48.72234" lon="2.54366">
        <ele>57.1</ele>
        <time>2017-10-08T07:45:55Z</time>
      </trkpt>
      <trkpt lat="48.72237" lon="2.54383">
        <ele>105.681</ele>
        <time>2017-10-08T07:45:55Z</time>
      </trkpt>
      <trkpt lat="48.7224" lon="2.54404">
        <ele>105.752</ele>
        <time>2017-10-08T07:46:09Z</time>
      </trkpt>
      <trkpt lat="48.72235" lon="2.54424">
        <ele>105.796</ele>
        <time>2017-10-08T07:46:20Z</time>
      </trkpt>
      <trkpt lat="48.72234" lon="2.54445">
        <ele>105.823</ele>
        <time>2017-10-08T07:46:31Z</time>
      </trkpt>
      <trkpt lat="48.72238" lon="2.54468">
        <ele>105.866</ele>
        <time>2017-10-08T07:46:42Z</time>
      </trkpt>
      <trkpt lat="48.72238" lon="2.54493">
        <ele>105.902</ele>
        <time>2017-10-08T07:46:51Z</time>
      </trkpt>
      <trkpt lat="48.72237" lon="2.54512">
        <ele>105.94</ele>
        <time>2017-10-08T07:47:02Z</time>
      </trkpt>
      <trkpt lat="48.72233" lon="2.54542">
        <ele>106.035</ele>
        <time>2017-10-08T07:47:19Z</time>
      </trkpt>
      <trkpt lat="48.72236" lon="2.54565">
        <ele>106.109</ele>
        <time>2017-10-08T07:47:31Z</time>
      </trkpt>
      <trkpt lat="48.72239" lon="2.54593">
        <ele>106.216</ele>
        <time>2017-10-08T07:47:46Z</time>
      </trkpt>
      <trkpt lat="48.72237" lon="2.5461">
        <ele>106.296</ele>
        <time>2017-10-08T07:47:57Z</time>
      </trkpt>
      <trkpt lat="48.72227" lon="2.54647">
        <ele>106.44</ele>
        <time>2017-10-08T07:48:17Z</time>
      </trkpt>
      <trkpt lat="48.72225" lon="2.54667">
        <ele>106.551</ele>
        <time>2017-10-08T07:48:29Z</time>
      </trkpt>
      <trkpt lat="48.72213" lon="2.5469">
        <ele>106.691</ele>
        <time>2017-10-08T07:48:42Z</time>
      </trkpt>
      <trkpt lat="48.72208" lon="2.54713">
        <ele>106.999</ele>
        <time>2017-10-08T07:49:01Z</time>
      </trkpt>
      <trkpt lat="48.72193" lon="2.54729">
        <ele>107.296</ele>
        <time>2017-10-08T07:49:17Z</time>
      </trkpt>
      <trkpt lat="48.72185" lon="2.54738">
        <ele>107.425</ele>
        <time>2017-10-08T07:49:26Z</time>
      </trkpt>
      <trkpt lat="48.72164" lon="2.54742">
        <ele>107.602</ele>
        <time>2017-10-08T07:49:43Z</time>
      </trkpt>
      <trkpt lat="48.7215" lon="2.54746">
        <ele>107.707</ele>
        <time>2017-10-08T07:49:54Z</time>
      </trkpt>
      <trkpt lat="48.72132" lon="2.54752">
        <ele>107.846</ele>
        <time>2017-10-08T07:50:08Z</time>
      </trkpt>
      <trkpt lat="48.72117" lon="2.54755">
        <ele>107.953</ele>
        <time>2017-10-08T07:50:18Z</time>
      </trkpt>
      <trkpt lat="48.721" lon="2.5476">
        <ele>108.05</ele>
        <time>2017-10-08T07:50:31Z</time>
      </trkpt>
      <trkpt lat="48.7208" lon="2.54762">
        <ele>108.154</ele>
        <time>2017-10-08T07:50:47Z</time>
      </trkpt>
      <trkpt lat="48.7207" lon="2.54763">
        <ele>108.209</ele>
        <time>2017-10-08T07:51:00Z</time>
      </trkpt>
      <trkpt lat="48.72058" lon="2.54766">
        <ele>108.236</ele>
        <time>2017-10-08T07:51:06Z</time>
      </trkpt>
      <trkpt lat="48.72047" lon="2.54764">
        <ele>108.267</ele>
        <time>2017-10-08T07:51:15Z</time>
      </trkpt>
      <trkpt lat="48.7203" lon="2.54769">
        <ele>108.299</ele>
        <time>2017-10-08T07:51:28Z</time>
      </trkpt>
      <trkpt lat="48.72007" lon="2.54769">
        <ele>108.334</ele>
        <time>2017-10-08T07:51:41Z</time>
      </trkpt>
      <trkpt lat="48.7199" lon="2.54774">
        <ele>108.396</ele>
        <time>2017-10-08T07:51:52Z</time>
      </trkpt>
      <trkpt lat="48.71969" lon="2.54778">
        <ele>108.489</ele>
        <time>2017-10-08T07:52:05Z</time>
      </trkpt>
      <trkpt lat="48.7195" lon="2.54782">
        <ele>108.606</ele>
        <time>2017-10-08T07:52:18Z</time>
      </trkpt>
      <trkpt lat="48.71935" lon="2.54783">
        <ele>108.718</ele>
        <time>2017-10-08T07:52:29Z</time>
      </trkpt>
      <trkpt lat="48.71913" lon="2.54787">
        <ele>108.906</ele>
        <time>2017-10-08T07:52:46Z</time>
      </trkpt>
      <trkpt lat="48.71906" lon="2.54785">
        <ele>108.971</ele>
        <time>2017-10-08T07:52:52Z</time>
      </trkpt>
      <trkpt lat="48.71888" lon="2.54784">
        <ele>109.132</ele>
        <time>2017-10-08T07:53:09Z</time>
      </trkpt>
      <trkpt lat="48.71876" lon="2.54787">
        <ele>109.196</ele>
        <time>2017-10-08T07:53:22Z</time>
      </trkpt>
      <trkpt lat="48.71843" lon="2.54784">
        <ele>109.247</ele>
        <time>2017-10-08T07:53:39Z</time>
      </trkpt>
      <trkpt lat="48.71826" lon="2.54777">
        <ele>109.317</ele>
        <time>2017-10-08T07:53:52Z</time>
      </trkpt>
      <trkpt lat="48.71803" lon="2.54761">
        <ele>109.411</ele>
        <time>2017-10-08T07:54:05Z</time>
      </trkpt>
      <trkpt lat="48.71792" lon="2.54751">
        <ele>109.516</ele>
        <time>2017-10-08T07:54:15Z</time>
      </trkpt>
      <trkpt lat="48.7178" lon="2.5473">
        <ele>109.728</ele>
        <time>2017-10-08T07:54:28Z</time>
      </trkpt>
      <trkpt lat="48.71778" lon="2.54726">
        <ele>109.791</ele>
        <time>2017-10-08T07:54:31Z</time>
      </trkpt>
      <trkpt lat="48.71778" lon="2.54726">
        <ele>74</ele>
        <time>2017-10-08T07:54:39Z</time>
      </trkpt>
      <trkpt lat="48.71778" lon="2.54726">
        <ele>74</ele>
        <time>2017-10-08T07:54:58Z</time>
      </trkpt>
      <trkpt lat="48.71779" lon="2.54756">
        <ele>110.364</ele>
        <time>2017-10-08T07:54:58Z</time>
      </trkpt>
      <trkpt lat="48.7177" lon="2.54772">
        <ele>110.609</ele>
        <time>2017-10-08T07:55:11Z</time>
      </trkpt>
      <trkpt lat="48.71751" lon="2.54778">
        <ele>110.816</ele>
        <time>2017-10-08T07:55:24Z</time>
      </trkpt>
      <trkpt lat="48.71737" lon="2.54782">
        <ele>110.953</ele>
        <time>2017-10-08T07:55:33Z</time>
      </trkpt>
      <trkpt lat="48.71724" lon="2.54784">
        <ele>111.134</ele>
        <time>2017-10-08T07:55:44Z</time>
      </trkpt>
      <trkpt lat="48.71703" lon="2.54788">
        <ele>111.393</ele>
        <time>2017-10-08T07:56:00Z</time>
      </trkpt>
      <trkpt lat="48.71682" lon="2.5479">
        <ele>111.596</ele>
        <time>2017-10-08T07:56:16Z</time>
      </trkpt>
      <trkpt lat="48.71662" lon="2.5479">
        <ele>111.76</ele>
        <time>2017-10-08T07:56:29Z</time>
      </trkpt>
      <trkpt lat="48.71645" lon="2.54795">
        <ele>111.932</ele>
        <time>2017-10-08T07:56:41Z</time>
      </trkpt>
      <trkpt lat="48.71628" lon="2.54797">
        <ele>112.123</ele>
        <time>2017-10-08T07:56:53Z</time>
      </trkpt>
      <trkpt lat="48.71613" lon="2.54799">
        <ele>112.307</ele>
        <time>2017-10-08T07:57:04Z</time>
      </trkpt>
      <trkpt lat="48.716" lon="2.54801">
        <ele>112.493</ele>
        <time>2017-10-08T07:57:16Z</time>
      </trkpt>
      <trkpt lat="48.71576" lon="2.54803">
        <ele>112.719</ele>
        <time>2017-10-08T07:57:32Z</time>
      </trkpt>
      <trkpt lat="48.71557" lon="2.54808">
        <ele>112.97</ele>
        <time>2017-10-08T07:57:48Z</time>
      </trkpt>
      <trkpt lat="48.71543" lon="2.54815">
        <ele>113.184</ele>
        <time>2017-10-08T07:58:03Z</time>
      </trkpt>
      <trkpt lat="48.71526" lon="2.54815">
        <ele>113.398</ele>
        <time>2017-10-08T07:58:16Z</time>
      </trkpt>
      <trkpt lat="48.71506" lon="2.54819">
        <ele>113.613</ele>
        <time>2017-10-08T07:58:28Z</time>
      </trkpt>
      <trkpt lat="48.71492" lon="2.54824">
        <ele>113.749</ele>
        <time>2017-10-08T07:58:37Z</time>
      </trkpt>
      <trkpt lat="48.7147" lon="2.54829">
        <ele>113.913</ele>
        <time>2017-10-08T07:58:52Z</time>
      </trkpt>
      <trkpt lat="48.71463" lon="2.54827">
        <ele>113.94</ele>
        <time>2017-10-08T07:58:55Z</time>
      </trkpt>
      <trkpt lat="48.71463" lon="2.54827">
        <ele>83.6</ele>
        <time>2017-10-08T07:59:02Z</time>
      </trkpt>
      <trkpt lat="48.71463" lon="2.54827">
        <ele>83.6</ele>
        <time>2017-10-08T07:59:08Z</time>
      </trkpt>
      <trkpt lat="48.71456" lon="2.54832">
        <ele>114.06</ele>
        <time>2017-10-08T07:59:08Z</time>
      </trkpt>
      <trkpt lat="48.71452" lon="2.54834">
        <ele>114.073</ele>
        <time>2017-10-08T07:59:10Z</time>
      </trkpt>
      <trkpt lat="48.71452" lon="2.54834">
        <ele>83.7</ele>
        <time>2017-10-08T07:59:18Z</time>
      </trkpt>
      <trkpt lat="48.71452" lon="2.54834">
        <ele>83.7</ele>
        <time>2017-10-08T07:59:21Z</time>
      </trkpt>
      <trkpt lat="48.71442" lon="2.54835">
        <ele>114.167</ele>
        <time>2017-10-08T07:59:21Z</time>
      </trkpt>
      <trkpt lat="48.71435" lon="2.54839">
        <ele>114.22</ele>
        <time>2017-10-08T07:59:26Z</time>
      </trkpt>
      <trkpt lat="48.71422" lon="2.54842">
        <ele>114.308</ele>
        <time>2017-10-08T07:59:35Z</time>
      </trkpt>
      <trkpt lat="48.71404" lon="2.54845">
        <ele>114.41</ele>
        <time>2017-10-08T07:59:45Z</time>
      </trkpt>
      <trkpt lat="48.71385" lon="2.54855">
        <ele>114.644</ele>
        <time>2017-10-08T08:00:01Z</time>
      </trkpt>
      <trkpt lat="48.71371" lon="2.54864">
        <ele>114.86</ele>
        <time>2017-10-08T08:00:13Z</time>
      </trkpt>
      <trkpt lat="48.71354" lon="2.54871">
        <ele>115.144</ele>
        <time>2017-10-08T08:00:25Z</time>
      </trkpt>
      <trkpt lat="48.7134" lon="2.5488">
        <ele>115.435</ele>
        <time>2017-10-08T08:00:38Z</time>
      </trkpt>
      <trkpt lat="48.71315" lon="2.54897">
        <ele>115.955</ele>
        <time>2017-10-08T08:01:00Z</time>
      </trkpt>
      <trkpt lat="48.71309" lon="2.54906">
        <ele>116.167</ele>
        <time>2017-10-08T08:01:08Z</time>
      </trkpt>
      <trkpt lat="48.71303" lon="2.54909">
        <ele>116.319</ele>
        <time>2017-10-08T08:01:14Z</time>
      </trkpt>
      <trkpt lat="48.71303" lon="2.54909">
        <ele>88.1</ele>
        <time>2017-10-08T08:01:19Z</time>
      </trkpt>
      <trkpt lat="48.71303" lon="2.54909">
        <ele>88.1</ele>
        <time>2017-10-08T08:01:25Z</time>
      </trkpt>
      <trkpt lat="48.71295" lon="2.54911">
        <ele>116.656</ele>
        <time>2017-10-08T08:01:25Z</time>
      </trkpt>
      <trkpt lat="48.71287" lon="2.54918">
        <ele>117.037</ele>
        <time>2017-10-08T08:01:36Z</time>
      </trkpt>
      <trkpt lat="48.71287" lon="2.54918">
        <ele>88.6</ele>
        <time>2017-10-08T08:01:44Z</time>
      </trkpt>
      <trkpt lat="48.71287" lon="2.54918">
        <ele>88.6</ele>
        <time>2017-10-08T08:05:38Z</time>
      </trkpt>
      <trkpt lat="48.71274" lon="2.54947">
        <ele>120.148</ele>
        <time>2017-10-08T08:05:38Z</time>
      </trkpt>
      <trkpt lat="48.7126" lon="2.54963">
        <ele>120.811</ele>
        <time>2017-10-08T08:05:51Z</time>
      </trkpt>
      <trkpt lat="48.71247" lon="2.54976">
        <ele>121.332</ele>
        <time>2017-10-08T08:06:04Z</time>
      </trkpt>
      <trkpt lat="48.71238" lon="2.54986">
        <ele>121.638</ele>
        <time>2017-10-08T08:06:13Z</time>
      </trkpt>
      <trkpt lat="48.71222" lon="2.55002">
        <ele>122.047</ele>
        <time>2017-10-08T08:06:27Z</time>
      </trkpt>
      <trkpt lat="48.71213" lon="2.55009">
        <ele>122.251</ele>
        <time>2017-10-08T08:06:35Z</time>
      </trkpt>
      <trkpt lat="48.71197" lon="2.55028">
        <ele>122.633</ele>
        <time>2017-10-08T08:06:52Z</time>
      </trkpt>
      <trkpt lat="48.71184" lon="2.55047">
        <ele>122.89</ele>
        <time>2017-10-08T08:07:06Z</time>
      </trkpt>
      <trkpt lat="48.71168" lon="2.5507">
        <ele>123.15</ele>
        <time>2017-10-08T08:07:22Z</time>
      </trkpt>
      <trkpt lat="48.71159" lon="2.55086">
        <ele>123.268</ele>
        <time>2017-10-08T08:07:30Z</time>
      </trkpt>
      <trkpt lat="48.71139" lon="2.55101">
        <ele>123.465</ele>
        <time>2017-10-08T08:07:44Z</time>
      </trkpt>
      <trkpt lat="48.71131" lon="2.55114">
        <ele>123.658</ele>
        <time>2017-10-08T08:07:56Z</time>
      </trkpt>
      <trkpt lat="48.71116" lon="2.55135">
        <ele>123.941</ele>
        <time>2017-10-08T08:08:12Z</time>
      </trkpt>
      <trkpt lat="48.71106" lon="2.55159">
        <ele>124.154</ele>
        <time>2017-10-08T08:08:25Z</time>
      </trkpt>
      <trkpt lat="48.71099" lon="2.55169">
        <ele>124.27</ele>
        <time>2017-10-08T08:08:32Z</time>
      </trkpt>
      <trkpt lat="48.71082" lon="2.55198">
        <ele>124.546</ele>
        <time>2017-10-08T08:08:48Z</time>
      </trkpt>
      <trkpt lat="48.71072" lon="2.55223">
        <ele>124.789</ele>
        <time>2017-10-08T08:09:02Z</time>
      </trkpt>
      <trkpt lat="48.7106" lon="2.55246">
        <ele>125.032</ele>
        <time>2017-10-08T08:09:16Z</time>
      </trkpt>
      <trkpt lat="48.71052" lon="2.55261">
        <ele>125.173</ele>
        <time>2017-10-08T08:09:24Z</time>
      </trkpt>
      <trkpt lat="48.71042" lon="2.55288">
        <ele>125.453</ele>
        <time>2017-10-08T08:09:39Z</time>
      </trkpt>
      <trkpt lat="48.71039" lon="2.5531">
        <ele>125.679</ele>
        <time>2017-10-08T08:09:50Z</time>
      </trkpt>
      <trkpt lat="48.71028" lon="2.55335">
        <ele>125.953</ele>
        <time>2017-10-08T08:10:03Z</time>
      </trkpt>
      <trkpt lat="48.7102" lon="2.55362">
        <ele>126.238</ele>
        <time>2017-10-08T08:10:17Z</time>
      </trkpt>
      <trkpt lat="48.71011" lon="2.55384">
        <ele>126.493</ele>
        <time>2017-10-08T08:10:29Z</time>
      </trkpt>
      <trkpt lat="48.71003" lon="2.55408">
        <ele>126.767</ele>
        <time>2017-10-08T08:10:41Z</time>
      </trkpt>
      <trkpt lat="48.70997" lon="2.55442">
        <ele>127.175</ele>
        <time>2017-10-08T08:10:58Z</time>
      </trkpt>
      <trkpt lat="48.70987" lon="2.55467">
        <ele>127.541</ele>
        <time>2017-10-08T08:11:13Z</time>
      </trkpt>
      <trkpt lat="48.70982" lon="2.55493">
        <ele>128.003</ele>
        <time>2017-10-08T08:11:32Z</time>
      </trkpt>
      <trkpt lat="48.7097" lon="2.55531">
        <ele>128.343</ele>
        <time>2017-10-08T08:11:48Z</time>
      </trkpt>
      <trkpt lat="48.70967" lon="2.55565">
        <ele>128.523</ele>
        <time>2017-10-08T08:11:57Z</time>
      </trkpt>
      <trkpt lat="48.70968" lon="2.55579">
        <ele>128.696</ele>
        <time>2017-10-08T08:12:05Z</time>
      </trkpt>
      <trkpt lat="48.70963" lon="2.55606">
        <ele>129.005</ele>
        <time>2017-10-08T08:12:19Z</time>
      </trkpt>
      <trkpt lat="48.70959" lon="2.55637">
        <ele>129.226</ele>
        <time>2017-10-08T08:12:31Z</time>
      </trkpt>
      <trkpt lat="48.70958" lon="2.55663">
        <ele>129.374</ele>
        <time>2017-10-08T08:12:41Z</time>
      </trkpt>
      <trkpt lat="48.70949" lon="2.55683">
        <ele>129.491</ele>
        <time>2017-10-08T08:12:50Z</time>
      </trkpt>
      <trkpt lat="48.70946" lon="2.55706">
        <ele>129.625</ele>
        <time>2017-10-08T08:13:01Z</time>
      </trkpt>
      <trkpt lat="48.70945" lon="2.55732">
        <ele>129.834</ele>
        <time>2017-10-08T08:13:18Z</time>
      </trkpt>
      <trkpt lat="48.70945" lon="2.55768">
        <ele>130.077</ele>
        <time>2017-10-08T08:13:37Z</time>
      </trkpt>
      <trkpt lat="48.70946" lon="2.55801">
        <ele>130.287</ele>
        <time>2017-10-08T08:13:53Z</time>
      </trkpt>
      <trkpt lat="48.70946" lon="2.55819">
        <ele>130.399</ele>
        <time>2017-10-08T08:14:01Z</time>
      </trkpt>
      <trkpt lat="48.70948" lon="2.55846">
        <ele>130.59</ele>
        <time>2017-10-08T08:14:14Z</time>
      </trkpt>
      <trkpt lat="48.7095" lon="2.55862">
        <ele>130.697</ele>
        <time>2017-10-08T08:14:22Z</time>
      </trkpt>
      <trkpt lat="48.70951" lon="2.55892">
        <ele>130.846</ele>
        <time>2017-10-08T08:14:35Z</time>
      </trkpt>
      <trkpt lat="48.70956" lon="2.55924">
        <ele>130.989</ele>
        <time>2017-10-08T08:14:50Z</time>
      </trkpt>
      <trkpt lat="48.70958" lon="2.5595">
        <ele>131.155</ele>
        <time>2017-10-08T08:15:07Z</time>
      </trkpt>
      <trkpt lat="48.7096" lon="2.55972">
        <ele>131.304</ele>
        <time>2017-10-08T08:15:20Z</time>
      </trkpt>
      <trkpt lat="48.70966" lon="2.56007">
        <ele>131.433</ele>
        <time>2017-10-08T08:15:31Z</time>
      </trkpt>
      <trkpt lat="48.7097" lon="2.56026">
        <ele>131.54</ele>
        <time>2017-10-08T08:15:41Z</time>
      </trkpt>
      <trkpt lat="48.70975" lon="2.56049">
        <ele>131.741</ele>
        <time>2017-10-08T08:15:57Z</time>
      </trkpt>
      <trkpt lat="48.70976" lon="2.56083">
        <ele>132.041</ele>
        <time>2017-10-08T08:16:15Z</time>
      </trkpt>
      <trkpt lat="48.70988" lon="2.56106">
        <ele>132.234</ele>
        <time>2017-10-08T08:16:27Z</time>
      </trkpt>
      <trkpt lat="48.70977" lon="2.56143">
        <ele>132.43</ele>
        <time>2017-10-08T08:16:43Z</time>
      </trkpt>
      <trkpt lat="48.70965" lon="2.56142">
        <ele>132.525</ele>
        <time>2017-10-08T08:16:51Z</time>
      </trkpt>
      <trkpt lat="48.70945" lon="2.56133">
        <ele>132.783</ele>
        <time>2017-10-08T08:17:07Z</time>
      </trkpt>
      <trkpt lat="48.7093" lon="2.56122">
        <ele>133.031</ele>
        <time>2017-10-08T08:17:19Z</time>
      </trkpt>
      <trkpt lat="48.70909" lon="2.56104">
        <ele>133.398</ele>
        <time>2017-10-08T08:17:36Z</time>
      </trkpt>
      <trkpt lat="48.70898" lon="2.56095">
        <ele>133.68</ele>
        <time>2017-10-08T08:17:49Z</time>
      </trkpt>
      <trkpt lat="48.70884" lon="2.56089">
        <ele>133.864</ele>
        <time>2017-10-08T08:17:58Z</time>
      </trkpt>
      <trkpt lat="48.70869" lon="2.56086">
        <ele>134.05</ele>
        <time>2017-10-08T08:18:09Z</time>
      </trkpt>
      <trkpt lat="48.70843" lon="2.56071">
        <ele>134.195</ele>
        <time>2017-10-08T08:18:27Z</time>
      </trkpt>
      <trkpt lat="48.70827" lon="2.56052">
        <ele>134.24</ele>
        <time>2017-10-08T08:18:41Z</time>
      </trkpt>
      <trkpt lat="48.7081" lon="2.56038">
        <ele>134.254</ele>
        <time>2017-10-08T08:18:55Z</time>
      </trkpt>
      <trkpt lat="48.70794" lon="2.56023">
        <ele>134.25</ele>
        <time>2017-10-08T08:19:08Z</time>
      </trkpt>
      <trkpt lat="48.7078" lon="2.56006">
        <ele>134.245</ele>
        <time>2017-10-08T08:19:22Z</time>
      </trkpt>
      <trkpt lat="48.7077" lon="2.55995">
        <ele>134.232</ele>
        <time>2017-10-08T08:19:31Z</time>
      </trkpt>
      <trkpt lat="48.70757" lon="2.5598">
        <ele>134.199</ele>
        <time>2017-10-08T08:19:42Z</time>
      </trkpt>
      <trkpt lat="48.70749" lon="2.55971">
        <ele>134.182</ele>
        <time>2017-10-08T08:19:49Z</time>
      </trkpt>
      <trkpt lat="48.70732" lon="2.5595">
        <ele>134.12</ele>
        <time>2017-10-08T08:20:04Z</time>
      </trkpt>
      <trkpt lat="48.7072" lon="2.55935">
        <ele>134.039</ele>
        <time>2017-10-08T08:20:15Z</time>
      </trkpt>
      <trkpt lat="48.70709" lon="2.5592">
        <ele>133.959</ele>
        <time>2017-10-08T08:20:26Z</time>
      </trkpt>
      <trkpt lat="48.70691" lon="2.55899">
        <ele>133.872</ele>
        <time>2017-10-08T08:20:41Z</time>
      </trkpt>
      <trkpt lat="48.70678" lon="2.55886">
        <ele>133.838</ele>
        <time>2017-10-08T08:20:53Z</time>
      </trkpt>
      <trkpt lat="48.70667" lon="2.55873">
        <ele>133.818</ele>
        <time>2017-10-08T08:21:02Z</time>
      </trkpt>
      <trkpt lat="48.70658" lon="2.55863">
        <ele>133.806</ele>
        <time>2017-10-08T08:21:10Z</time>
      </trkpt>
      <trkpt lat="48.70646" lon="2.55851">
        <ele>133.802</ele>
        <time>2017-10-08T08:21:19Z</time>
      </trkpt>
      <trkpt lat="48.70632" lon="2.55833">
        <ele>133.817</ele>
        <time>2017-10-08T08:21:33Z</time>
      </trkpt>
      <trkpt lat="48.70621" lon="2.55817">
        <ele>133.82</ele>
        <time>2017-10-08T08:21:43Z</time>
      </trkpt>
      <trkpt lat="48.70609" lon="2.55805">
        <ele>133.82</ele>
        <time>2017-10-08T08:21:53Z</time>
      </trkpt>
      <trkpt lat="48.70601" lon="2.55794">
        <ele>133.811</ele>
        <time>2017-10-08T08:22:00Z</time>
      </trkpt>
      <trkpt lat="48.70593" lon="2.55781">
        <ele>133.783</ele>
        <time>2017-10-08T08:22:08Z</time>
      </trkpt>
      <trkpt lat="48.70582" lon="2.55767">
        <ele>133.723</ele>
        <time>2017-10-08T08:22:19Z</time>
      </trkpt>
      <trkpt lat="48.70567" lon="2.55756">
        <ele>133.663</ele>
        <time>2017-10-08T08:22:31Z</time>
      </trkpt>
      <trkpt lat="48.70557" lon="2.55738">
        <ele>133.614</ele>
        <time>2017-10-08T08:22:42Z</time>
      </trkpt>
      <trkpt lat="48.70545" lon="2.55721">
        <ele>133.571</ele>
        <time>2017-10-08T08:22:53Z</time>
      </trkpt>
      <trkpt lat="48.70533" lon="2.55705">
        <ele>133.534</ele>
        <time>2017-10-08T08:23:04Z</time>
      </trkpt>
      <trkpt lat="48.70521" lon="2.55692">
        <ele>133.524</ele>
        <time>2017-10-08T08:23:14Z</time>
      </trkpt>
      <trkpt lat="48.70508" lon="2.55674">
        <ele>133.507</ele>
        <time>2017-10-08T08:23:26Z</time>
      </trkpt>
      <trkpt lat="48.70492" lon="2.55653">
        <ele>133.455</ele>
        <time>2017-10-08T08:23:41Z</time>
      </trkpt>
      <trkpt lat="48.70479" lon="2.55634">
        <ele>133.409</ele>
        <time>2017-10-08T08:23:54Z</time>
      </trkpt>
      <trkpt lat="48.70465" lon="2.55613">
        <ele>133.364</ele>
        <time>2017-10-08T08:24:08Z</time>
      </trkpt>
      <trkpt lat="48.70449" lon="2.55601">
        <ele>133.358</ele>
        <time>2017-10-08T08:24:22Z</time>
      </trkpt>
      <trkpt lat="48.70435" lon="2.55606">
        <ele>133.348</ele>
        <time>2017-10-08T08:24:34Z</time>
      </trkpt>
      <trkpt lat="48.70421" lon="2.55635">
        <ele>133.356</ele>
        <time>2017-10-08T08:24:54Z</time>
      </trkpt>
      <trkpt lat="48.70414" lon="2.55653">
        <ele>133.38</ele>
        <time>2017-10-08T08:25:04Z</time>
      </trkpt>
      <trkpt lat="48.70402" lon="2.55676">
        <ele>133.458</ele>
        <time>2017-10-08T08:25:18Z</time>
      </trkpt>
      <trkpt lat="48.70392" lon="2.55695">
        <ele>133.561</ele>
        <time>2017-10-08T08:25:29Z</time>
      </trkpt>
      <trkpt lat="48.70387" lon="2.55705">
        <ele>133.634</ele>
        <time>2017-10-08T08:25:36Z</time>
      </trkpt>
      <trkpt lat="48.70373" lon="2.55733">
        <ele>133.803</ele>
        <time>2017-10-08T08:25:52Z</time>
      </trkpt>
      <trkpt lat="48.70362" lon="2.55753">
        <ele>133.926</ele>
        <time>2017-10-08T08:26:03Z</time>
      </trkpt>
      <trkpt lat="48.70356" lon="2.55766">
        <ele>134.022</ele>
        <time>2017-10-08T08:26:11Z</time>
      </trkpt>
      <trkpt lat="48.70344" lon="2.55793">
        <ele>134.218</ele>
        <time>2017-10-08T08:26:26Z</time>
      </trkpt>
      <trkpt lat="48.70339" lon="2.55807">
        <ele>134.338</ele>
        <time>2017-10-08T08:26:34Z</time>
      </trkpt>
      <trkpt lat="48.70328" lon="2.55825">
        <ele>134.527</ele>
        <time>2017-10-08T08:26:45Z</time>
      </trkpt>
      <trkpt lat="48.70315" lon="2.55851">
        <ele>134.816</ele>
        <time>2017-10-08T08:27:00Z</time>
      </trkpt>
      <trkpt lat="48.70304" lon="2.55872">
        <ele>135.039</ele>
        <time>2017-10-08T08:27:12Z</time>
      </trkpt>
      <trkpt lat="48.70293" lon="2.55893">
        <ele>135.223</ele>
        <time>2017-10-08T08:27:24Z</time>
      </trkpt>
      <trkpt lat="48.70283" lon="2.55909">
        <ele>135.372</ele>
        <time>2017-10-08T08:27:36Z</time>
      </trkpt>
      <trkpt lat="48.70271" lon="2.55934">
        <ele>135.562</ele>
        <time>2017-10-08T08:27:51Z</time>
      </trkpt>
      <trkpt lat="48.70264" lon="2.55954">
        <ele>135.683</ele>
        <time>2017-10-08T08:28:01Z</time>
      </trkpt>
      <trkpt lat="48.70242" lon="2.55961">
        <ele>135.818</ele>
        <time>2017-10-08T08:28:13Z</time>
      </trkpt>
      <trkpt lat="48.70223" lon="2.55965">
        <ele>135.919</ele>
        <time>2017-10-08T08:28:24Z</time>
      </trkpt>
      <trkpt lat="48.70207" lon="2.55967">
        <ele>136.063</ele>
        <time>2017-10-08T08:28:43Z</time>
      </trkpt>
      <trkpt lat="48.7021" lon="2.56008">
        <ele>136.355</ele>
        <time>2017-10-08T08:29:15Z</time>
      </trkpt>
      <trkpt lat="48.70214" lon="2.56031">
        <ele>136.52</ele>
        <time>2017-10-08T08:29:29Z</time>
      </trkpt>
      <trkpt lat="48.70216" lon="2.56039">
        <ele>136.552</ele>
        <time>2017-10-08T08:29:32Z</time>
      </trkpt>
      <trkpt lat="48.70216" lon="2.56039">
        <ele>95</ele>
        <time>2017-10-08T08:29:37Z</time>
      </trkpt>
      <trkpt lat="48.70216" lon="2.56039">
        <ele>95</ele>
        <time>2017-10-08T08:29:53Z</time>
      </trkpt>
      <trkpt lat="48.70219" lon="2.56067">
        <ele>136.794</ele>
        <time>2017-10-08T08:29:53Z</time>
      </trkpt>
      <trkpt lat="48.70223" lon="2.5609">
        <ele>136.918</ele>
        <time>2017-10-08T08:30:03Z</time>
      </trkpt>
      <trkpt lat="48.70229" lon="2.56119">
        <ele>137.035</ele>
        <time>2017-10-08T08:30:12Z</time>
      </trkpt>
      <trkpt lat="48.70242" lon="2.56143">
        <ele>137.199</ele>
        <time>2017-10-08T08:30:24Z</time>
      </trkpt>
      <trkpt lat="48.70251" lon="2.56159">
        <ele>137.308</ele>
        <time>2017-10-08T08:30:33Z</time>
      </trkpt>
      <trkpt lat="48.70261" lon="2.56177">
        <ele>137.439</ele>
        <time>2017-10-08T08:30:44Z</time>
      </trkpt>
      <trkpt lat="48.70272" lon="2.56197">
        <ele>137.589</ele>
        <time>2017-10-08T08:30:57Z</time>
      </trkpt>
      <trkpt lat="48.70288" lon="2.56219">
        <ele>137.743</ele>
        <time>2017-10-08T08:31:11Z</time>
      </trkpt>
      <trkpt lat="48.70302" lon="2.56241">
        <ele>137.886</ele>
        <time>2017-10-08T08:31:25Z</time>
      </trkpt>
      <trkpt lat="48.70314" lon="2.56259">
        <ele>138.013</ele>
        <time>2017-10-08T08:31:39Z</time>
      </trkpt>
      <trkpt lat="48.70323" lon="2.56279">
        <ele>138.089</ele>
        <time>2017-10-08T08:31:48Z</time>
      </trkpt>
      <trkpt lat="48.70335" lon="2.56299">
        <ele>138.192</ele>
        <time>2017-10-08T08:32:01Z</time>
      </trkpt>
      <trkpt lat="48.70344" lon="2.56311">
        <ele>138.268</ele>
        <time>2017-10-08T08:32:10Z</time>
      </trkpt>
      <trkpt lat="48.70357" lon="2.5633">
        <ele>138.353</ele>
        <time>2017-10-08T08:32:21Z</time>
      </trkpt>
      <trkpt lat="48.70367" lon="2.56342">
        <ele>138.409</ele>
        <time>2017-10-08T08:32:31Z</time>
      </trkpt>
      <trkpt lat="48.70387" lon="2.56372">
        <ele>138.483</ele>
        <time>2017-10-08T08:32:49Z</time>
      </trkpt>
      <trkpt lat="48.70396" lon="2.56392">
        <ele>138.502</ele>
        <time>2017-10-08T08:33:02Z</time>
      </trkpt>
      <trkpt lat="48.70414" lon="2.56418">
        <ele>138.533</ele>
        <time>2017-10-08T08:33:19Z</time>
      </trkpt>
      <trkpt lat="48.70424" lon="2.56435">
        <ele>138.544</ele>
        <time>2017-10-08T08:33:32Z</time>
      </trkpt>
      <trkpt lat="48.70429" lon="2.56444">
        <ele>138.556</ele>
        <time>2017-10-08T08:33:38Z</time>
      </trkpt>
      <trkpt lat="48.70443" lon="2.56464">
        <ele>138.571</ele>
        <time>2017-10-08T08:33:48Z</time>
      </trkpt>
      <trkpt lat="48.7045" lon="2.56474">
        <ele>138.579</ele>
        <time>2017-10-08T08:33:56Z</time>
      </trkpt>
      <trkpt lat="48.70462" lon="2.56487">
        <ele>138.593</ele>
        <time>2017-10-08T08:34:11Z</time>
      </trkpt>
      <trkpt lat="48.70475" lon="2.56498">
        <ele>138.61</ele>
        <time>2017-10-08T08:34:21Z</time>
      </trkpt>
      <trkpt lat="48.70486" lon="2.56512">
        <ele>138.62</ele>
        <time>2017-10-08T08:34:30Z</time>
      </trkpt>
      <trkpt lat="48.70501" lon="2.56525">
        <ele>138.624</ele>
        <time>2017-10-08T08:34:43Z</time>
      </trkpt>
      <trkpt lat="48.70522" lon="2.56552">
        <ele>138.63</ele>
        <time>2017-10-08T08:35:02Z</time>
      </trkpt>
      <trkpt lat="48.70531" lon="2.56565">
        <ele>138.651</ele>
        <time>2017-10-08T08:35:11Z</time>
      </trkpt>
      <trkpt lat="48.70547" lon="2.56582">
        <ele>138.681</ele>
        <time>2017-10-08T08:35:25Z</time>
      </trkpt>
      <trkpt lat="48.7056" lon="2.56599">
        <ele>138.689</ele>
        <time>2017-10-08T08:35:39Z</time>
      </trkpt>
      <trkpt lat="48.70575" lon="2.56614">
        <ele>138.68</ele>
        <time>2017-10-08T08:35:53Z</time>
      </trkpt>
      <trkpt lat="48.70591" lon="2.56629">
        <ele>138.692</ele>
        <time>2017-10-08T08:36:06Z</time>
      </trkpt>
      <trkpt lat="48.70604" lon="2.56645">
        <ele>138.707</ele>
        <time>2017-10-08T08:36:20Z</time>
      </trkpt>
      <trkpt lat="48.70618" lon="2.56661">
        <ele>138.731</ele>
        <time>2017-10-08T08:36:34Z</time>
      </trkpt>
      <trkpt lat="48.70634" lon="2.56682">
        <ele>138.774</ele>
        <time>2017-10-08T08:36:48Z</time>
      </trkpt>
      <trkpt lat="48.70644" lon="2.56692">
        <ele>138.817</ele>
        <time>2017-10-08T08:36:58Z</time>
      </trkpt>
      <trkpt lat="48.70662" lon="2.56715">
        <ele>138.94</ele>
        <time>2017-10-08T08:37:17Z</time>
      </trkpt>
      <trkpt lat="48.70676" lon="2.56736">
        <ele>139.085</ele>
        <time>2017-10-08T08:37:35Z</time>
      </trkpt>
      <trkpt lat="48.70685" lon="2.5676">
        <ele>139.183</ele>
        <time>2017-10-08T08:37:48Z</time>
      </trkpt>
      <trkpt lat="48.70693" lon="2.56783">
        <ele>139.28</ele>
        <time>2017-10-08T08:37:59Z</time>
      </trkpt>
      <trkpt lat="48.70704" lon="2.56811">
        <ele>139.413</ele>
        <time>2017-10-08T08:38:15Z</time>
      </trkpt>
      <trkpt lat="48.70714" lon="2.56831">
        <ele>139.519</ele>
        <time>2017-10-08T08:38:29Z</time>
      </trkpt>
      <trkpt lat="48.70721" lon="2.56858">
        <ele>139.621</ele>
        <time>2017-10-08T08:38:41Z</time>
      </trkpt>
      <trkpt lat="48.70721" lon="2.56858">
        <ele>95</ele>
        <time>2017-10-08T08:38:49Z</time>
      </trkpt>
      <trkpt lat="48.70721" lon="2.56858">
        <ele>95</ele>
        <time>2017-10-08T08:45:19Z</time>
      </trkpt>
      <trkpt lat="48.70723" lon="2.56884">
        <ele>139.949</ele>
        <time>2017-10-08T08:45:19Z</time>
      </trkpt>
      <trkpt lat="48.70729" lon="2.5691">
        <ele>140.49</ele>
        <time>2017-10-08T08:45:34Z</time>
      </trkpt>
      <trkpt lat="48.70732" lon="2.56924">
        <ele>140.733</ele>
        <time>2017-10-08T08:45:42Z</time>
      </trkpt>
      <trkpt lat="48.70738" lon="2.56953">
        <ele>141.148</ele>
        <time>2017-10-08T08:45:58Z</time>
      </trkpt>
      <trkpt lat="48.70744" lon="2.56978">
        <ele>141.392</ele>
        <time>2017-10-08T08:46:10Z</time>
      </trkpt>
      <trkpt lat="48.70747" lon="2.56992">
        <ele>141.509</ele>
        <time>2017-10-08T08:46:17Z</time>
      </trkpt>
      <trkpt lat="48.70754" lon="2.57016">
        <ele>141.688</ele>
        <time>2017-10-08T08:46:30Z</time>
      </trkpt>
      <trkpt lat="48.70759" lon="2.5703">
        <ele>141.78</ele>
        <time>2017-10-08T08:46:38Z</time>
      </trkpt>
      <trkpt lat="48.70767" lon="2.57057">
        <ele>141.903</ele>
        <time>2017-10-08T08:46:50Z</time>
      </trkpt>
      <trkpt lat="48.70775" lon="2.57081">
        <ele>142.036</ele>
        <time>2017-10-08T08:47:06Z</time>
      </trkpt>
      <trkpt lat="48.70783" lon="2.57106">
        <ele>142.132</ele>
        <time>2017-10-08T08:47:20Z</time>
      </trkpt>
      <trkpt lat="48.70787" lon="2.5713">
        <ele>142.205</ele>
        <time>2017-10-08T08:47:33Z</time>
      </trkpt>
      <trkpt lat="48.70791" lon="2.57167">
        <ele>142.295</ele>
        <time>2017-10-08T08:47:52Z</time>
      </trkpt>
      <trkpt lat="48.70794" lon="2.57194">
        <ele>142.361</ele>
        <time>2017-10-08T08:48:06Z</time>
      </trkpt>
      <trkpt lat="48.70796" lon="2.57218">
        <ele>142.433</ele>
        <time>2017-10-08T08:48:20Z</time>
      </trkpt>
      <trkpt lat="48.70803" lon="2.57252">
        <ele>142.546</ele>
        <time>2017-10-08T08:48:36Z</time>
      </trkpt>
      <trkpt lat="48.70809" lon="2.57266">
        <ele>142.631</ele>
        <time>2017-10-08T08:48:46Z</time>
      </trkpt>
      <trkpt lat="48.70825" lon="2.57282">
        <ele>142.764</ele>
        <time>2017-10-08T08:48:59Z</time>
      </trkpt>
      <trkpt lat="48.70838" lon="2.57294">
        <ele>142.869</ele>
        <time>2017-10-08T08:49:08Z</time>
      </trkpt>
      <trkpt lat="48.70846" lon="2.57301">
        <ele>142.951</ele>
        <time>2017-10-08T08:49:15Z</time>
      </trkpt>
      <trkpt lat="48.70858" lon="2.5731">
        <ele>143.083</ele>
        <time>2017-10-08T08:49:26Z</time>
      </trkpt>
      <trkpt lat="48.70868" lon="2.57326">
        <ele>143.228</ele>
        <time>2017-10-08T08:49:38Z</time>
      </trkpt>
      <trkpt lat="48.70873" lon="2.57352">
        <ele>143.363</ele>
        <time>2017-10-08T08:49:51Z</time>
      </trkpt>
      <trkpt lat="48.70876" lon="2.57379">
        <ele>143.467</ele>
        <time>2017-10-08T08:50:03Z</time>
      </trkpt>
      <trkpt lat="48.70877" lon="2.57406">
        <ele>143.545</ele>
        <time>2017-10-08T08:50:15Z</time>
      </trkpt>
      <trkpt lat="48.70878" lon="2.57428">
        <ele>143.597</ele>
        <time>2017-10-08T08:50:26Z</time>
      </trkpt>
      <trkpt lat="48.7088" lon="2.57451">
        <ele>143.637</ele>
        <time>2017-10-08T08:50:37Z</time>
      </trkpt>
      <trkpt lat="48.70881" lon="2.57472">
        <ele>143.67</ele>
        <time>2017-10-08T08:50:47Z</time>
      </trkpt>
      <trkpt lat="48.70884" lon="2.57492">
        <ele>143.698</ele>
        <time>2017-10-08T08:50:56Z</time>
      </trkpt>
      <trkpt lat="48.70889" lon="2.57513">
        <ele>143.736</ele>
        <time>2017-10-08T08:51:08Z</time>
      </trkpt>
      <trkpt lat="48.70898" lon="2.57545">
        <ele>143.786</ele>
        <time>2017-10-08T08:51:24Z</time>
      </trkpt>
      <trkpt lat="48.70901" lon="2.57561">
        <ele>143.812</ele>
        <time>2017-10-08T08:51:31Z</time>
      </trkpt>
      <trkpt lat="48.70909" lon="2.57587">
        <ele>143.863</ele>
        <time>2017-10-08T08:51:44Z</time>
      </trkpt>
      <trkpt lat="48.70917" lon="2.57603">
        <ele>143.904</ele>
        <time>2017-10-08T08:51:54Z</time>
      </trkpt>
      <trkpt lat="48.70926" lon="2.57625">
        <ele>143.955</ele>
        <time>2017-10-08T08:52:08Z</time>
      </trkpt>
      <trkpt lat="48.70941" lon="2.57652">
        <ele>144</ele>
        <time>2017-10-08T08:52:25Z</time>
      </trkpt>
      <trkpt lat="48.70952" lon="2.57674">
        <ele>144.023</ele>
        <time>2017-10-08T08:52:37Z</time>
      </trkpt>
      <trkpt lat="48.7096" lon="2.57697">
        <ele>144.034</ele>
        <time>2017-10-08T08:52:49Z</time>
      </trkpt>
      <trkpt lat="48.7097" lon="2.57721">
        <ele>144.049</ele>
        <time>2017-10-08T08:53:03Z</time>
      </trkpt>
      <trkpt lat="48.70975" lon="2.57732">
        <ele>144.067</ele>
        <time>2017-10-08T08:53:10Z</time>
      </trkpt>
      <trkpt lat="48.70988" lon="2.57759">
        <ele>144.14</ele>
        <time>2017-10-08T08:53:26Z</time>
      </trkpt>
      <trkpt lat="48.71005" lon="2.57783">
        <ele>144.301</ele>
        <time>2017-10-08T08:53:43Z</time>
      </trkpt>
      <trkpt lat="48.71012" lon="2.57792">
        <ele>144.374</ele>
        <time>2017-10-08T08:53:49Z</time>
      </trkpt>
      <trkpt lat="48.71023" lon="2.57803">
        <ele>144.485</ele>
        <time>2017-10-08T08:53:58Z</time>
      </trkpt>
      <trkpt lat="48.71031" lon="2.57812">
        <ele>144.59</ele>
        <time>2017-10-08T08:54:07Z</time>
      </trkpt>
      <trkpt lat="48.71049" lon="2.57838">
        <ele>144.775</ele>
        <time>2017-10-08T08:54:23Z</time>
      </trkpt>
      <trkpt lat="48.71065" lon="2.57856">
        <ele>144.884</ele>
        <time>2017-10-08T08:54:36Z</time>
      </trkpt>
      <trkpt lat="48.71081" lon="2.57874">
        <ele>144.998</ele>
        <time>2017-10-08T08:54:52Z</time>
      </trkpt>
      <trkpt lat="48.71095" lon="2.57892">
        <ele>145.077</ele>
        <time>2017-10-08T08:55:07Z</time>
      </trkpt>
      <trkpt lat="48.71105" lon="2.57912">
        <ele>145.13</ele>
        <time>2017-10-08T08:55:18Z</time>
      </trkpt>
      <trkpt lat="48.71113" lon="2.57935">
        <ele>145.183</ele>
        <time>2017-10-08T08:55:32Z</time>
      </trkpt>
      <trkpt lat="48.7112" lon="2.57952">
        <ele>145.218</ele>
        <time>2017-10-08T08:55:43Z</time>
      </trkpt>
      <trkpt lat="48.71131" lon="2.57983">
        <ele>145.277</ele>
        <time>2017-10-08T08:56:00Z</time>
      </trkpt>
      <trkpt lat="48.71138" lon="2.58007">
        <ele>145.326</ele>
        <time>2017-10-08T08:56:12Z</time>
      </trkpt>
      <trkpt lat="48.71132" lon="2.58027">
        <ele>145.362</ele>
        <time>2017-10-08T08:56:22Z</time>
      </trkpt>
      <trkpt lat="48.71119" lon="2.58051">
        <ele>145.422</ele>
        <time>2017-10-08T08:56:37Z</time>
      </trkpt>
      <trkpt lat="48.71119" lon="2.58074">
        <ele>145.484</ele>
        <time>2017-10-08T08:56:49Z</time>
      </trkpt>
      <trkpt lat="48.71124" lon="2.58088">
        <ele>145.521</ele>
        <time>2017-10-08T08:56:56Z</time>
      </trkpt>
      <trkpt lat="48.7113" lon="2.58099">
        <ele>145.558</ele>
        <time>2017-10-08T08:57:03Z</time>
      </trkpt>
      <trkpt lat="48.7113" lon="2.58099">
        <ele>95</ele>
        <time>2017-10-08T08:57:11Z</time>
      </trkpt>
      <trkpt lat="48.7113" lon="2.58099">
        <ele>95</ele>
        <time>2017-10-08T08:58:22Z</time>
      </trkpt>
      <trkpt lat="48.71159" lon="2.58104">
        <ele>145.986</ele>
        <time>2017-10-08T08:58:22Z</time>
      </trkpt>
      <trkpt lat="48.71161" lon="2.58129">
        <ele>146.128</ele>
        <time>2017-10-08T08:58:36Z</time>
      </trkpt>
      <trkpt lat="48.71176" lon="2.58153">
        <ele>146.313</ele>
        <time>2017-10-08T08:58:53Z</time>
      </trkpt>
      <trkpt lat="48.71195" lon="2.58172">
        <ele>146.495</ele>
        <time>2017-10-08T08:59:11Z</time>
      </trkpt>
      <trkpt lat="48.71216" lon="2.58195">
        <ele>146.672</ele>
        <time>2017-10-08T08:59:27Z</time>
      </trkpt>
      <trkpt lat="48.71225" lon="2.58208">
        <ele>146.76</ele>
        <time>2017-10-08T08:59:36Z</time>
      </trkpt>
      <trkpt lat="48.71243" lon="2.58231">
        <ele>146.899</ele>
        <time>2017-10-08T08:59:50Z</time>
      </trkpt>
      <trkpt lat="48.71257" lon="2.58244">
        <ele>147.006</ele>
        <time>2017-10-08T09:00:01Z</time>
      </trkpt>
      <trkpt lat="48.71273" lon="2.58263">
        <ele>147.148</ele>
        <time>2017-10-08T09:00:16Z</time>
      </trkpt>
      <trkpt lat="48.7128" lon="2.58267">
        <ele>147.195</ele>
        <time>2017-10-08T09:00:21Z</time>
      </trkpt>
      <trkpt lat="48.7128" lon="2.58267">
        <ele>95.9</ele>
        <time>2017-10-08T09:00:28Z</time>
      </trkpt>
      <trkpt lat="48.7128" lon="2.58267">
        <ele>95.9</ele>
        <time>2017-10-08T09:00:32Z</time>
      </trkpt>
      <trkpt lat="48.71284" lon="2.58247">
        <ele>147.304</ele>
        <time>2017-10-08T09:00:32Z</time>
      </trkpt>
      <trkpt lat="48.7129" lon="2.58235">
        <ele>147.398</ele>
        <time>2017-10-08T09:00:40Z</time>
      </trkpt>
      <trkpt lat="48.71297" lon="2.58224">
        <ele>147.496</ele>
        <time>2017-10-08T09:00:48Z</time>
      </trkpt>
      <trkpt lat="48.71306" lon="2.58207">
        <ele>147.612</ele>
        <time>2017-10-08T09:00:58Z</time>
      </trkpt>
      <trkpt lat="48.71317" lon="2.5818">
        <ele>147.751</ele>
        <time>2017-10-08T09:01:12Z</time>
      </trkpt>
      <trkpt lat="48.71326" lon="2.58162">
        <ele>147.824</ele>
        <time>2017-10-08T09:01:22Z</time>
      </trkpt>
      <trkpt lat="48.71335" lon="2.58142">
        <ele>147.896</ele>
        <time>2017-10-08T09:01:34Z</time>
      </trkpt>
      <trkpt lat="48.71348" lon="2.58116">
        <ele>147.963</ele>
        <time>2017-10-08T09:01:50Z</time>
      </trkpt>
      <trkpt lat="48.71353" lon="2.58101">
        <ele>147.985</ele>
        <time>2017-10-08T09:02:00Z</time>
      </trkpt>
      <trkpt lat="48.71358" lon="2.58089">
        <ele>147.997</ele>
        <time>2017-10-08T09:02:07Z</time>
      </trkpt>
      <trkpt lat="48.71372" lon="2.58074">
        <ele>148.022</ele>
        <time>2017-10-08T09:02:24Z</time>
      </trkpt>
      <trkpt lat="48.7139" lon="2.58089">
        <ele>148.05</ele>
        <time>2017-10-08T09:02:40Z</time>
      </trkpt>
      <trkpt lat="48.71408" lon="2.58104">
        <ele>148.062</ele>
        <time>2017-10-08T09:02:53Z</time>
      </trkpt>
      <trkpt lat="48.71425" lon="2.58119">
        <ele>148.066</ele>
        <time>2017-10-08T09:03:06Z</time>
      </trkpt>
      <trkpt lat="48.71434" lon="2.58128">
        <ele>148.059</ele>
        <time>2017-10-08T09:03:14Z</time>
      </trkpt>
      <trkpt lat="48.71447" lon="2.58138">
        <ele>148.047</ele>
        <time>2017-10-08T09:03:26Z</time>
      </trkpt>
      <trkpt lat="48.71464" lon="2.58153">
        <ele>148.029</ele>
        <time>2017-10-08T09:03:39Z</time>
      </trkpt>
      <trkpt lat="48.71481" lon="2.58165">
        <ele>148.019</ele>
        <time>2017-10-08T09:03:52Z</time>
      </trkpt>
      <trkpt lat="48.715" lon="2.58171">
        <ele>147.996</ele>
        <time>2017-10-08T09:04:06Z</time>
      </trkpt>
      <trkpt lat="48.71514" lon="2.58175">
        <ele>147.975</ele>
        <time>2017-10-08T09:04:17Z</time>
      </trkpt>
      <trkpt lat="48.71525" lon="2.58177">
        <ele>147.965</ele>
        <time>2017-10-08T09:04:24Z</time>
      </trkpt>
      <trkpt lat="48.71546" lon="2.58185">
        <ele>147.951</ele>
        <time>2017-10-08T09:04:39Z</time>
      </trkpt>
      <trkpt lat="48.71555" lon="2.58189">
        <ele>147.943</ele>
        <time>2017-10-08T09:04:45Z</time>
      </trkpt>
      <trkpt lat="48.71566" lon="2.58192">
        <ele>147.927</ele>
        <time>2017-10-08T09:04:53Z</time>
      </trkpt>
      <trkpt lat="48.71573" lon="2.58198">
        <ele>147.909</ele>
        <time>2017-10-08T09:05:00Z</time>
      </trkpt>
      <trkpt lat="48.71586" lon="2.58216">
        <ele>147.859</ele>
        <time>2017-10-08T09:05:14Z</time>
      </trkpt>
      <trkpt lat="48.71604" lon="2.58231">
        <ele>147.823</ele>
        <time>2017-10-08T09:05:28Z</time>
      </trkpt>
      <trkpt lat="48.71614" lon="2.58239">
        <ele>147.81</ele>
        <time>2017-10-08T09:05:36Z</time>
      </trkpt>
      <trkpt lat="48.71632" lon="2.58252">
        <ele>147.79</ele>
        <time>2017-10-08T09:05:49Z</time>
      </trkpt>
      <trkpt lat="48.71646" lon="2.58258">
        <ele>147.786</ele>
        <time>2017-10-08T09:06:03Z</time>
      </trkpt>
      <trkpt lat="48.71664" lon="2.58269">
        <ele>147.802</ele>
        <time>2017-10-08T09:06:20Z</time>
      </trkpt>
      <trkpt lat="48.71665" lon="2.58291">
        <ele>147.861</ele>
        <time>2017-10-08T09:06:38Z</time>
      </trkpt>
      <trkpt lat="48.71653" lon="2.58317">
        <ele>147.926</ele>
        <time>2017-10-08T09:06:55Z</time>
      </trkpt>
      <trkpt lat="48.71648" lon="2.58343">
        <ele>147.96</ele>
        <time>2017-10-08T09:07:04Z</time>
      </trkpt>
      <trkpt lat="48.71643" lon="2.58364">
        <ele>147.998</ele>
        <time>2017-10-08T09:07:15Z</time>
      </trkpt>
      <trkpt lat="48.71636" lon="2.58381">
        <ele>148.03</ele>
        <time>2017-10-08T09:07:24Z</time>
      </trkpt>
      <trkpt lat="48.71626" lon="2.58409">
        <ele>148.052</ele>
        <time>2017-10-08T09:07:38Z</time>
      </trkpt>
      <trkpt lat="48.71626" lon="2.58439">
        <ele>148.038</ele>
        <time>2017-10-08T09:07:49Z</time>
      </trkpt>
      <trkpt lat="48.71625" lon="2.58456">
        <ele>148.025</ele>
        <time>2017-10-08T09:07:57Z</time>
      </trkpt>
      <trkpt lat="48.71624" lon="2.58471">
        <ele>148.011</ele>
        <time>2017-10-08T09:08:05Z</time>
      </trkpt>
      <trkpt lat="48.71621" lon="2.58494">
        <ele>147.987</ele>
        <time>2017-10-08T09:08:16Z</time>
      </trkpt>
      <trkpt lat="48.71619" lon="2.5852">
        <ele>147.955</ele>
        <time>2017-10-08T09:08:28Z</time>
      </trkpt>
      <trkpt lat="48.71616" lon="2.58543">
        <ele>147.93</ele>
        <time>2017-10-08T09:08:42Z</time>
      </trkpt>
      <trkpt lat="48.71614" lon="2.58557">
        <ele>147.908</ele>
        <time>2017-10-08T09:08:49Z</time>
      </trkpt>
      <trkpt lat="48.71614" lon="2.58557">
        <ele>91.1</ele>
        <time>2017-10-08T09:08:56Z</time>
      </trkpt>
      <trkpt lat="48.71614" lon="2.58557">
        <ele>91.1</ele>
        <time>2017-10-08T09:09:30Z</time>
      </trkpt>
      <trkpt lat="48.7164" lon="2.58586">
        <ele>147.778</ele>
        <time>2017-10-08T09:09:30Z</time>
      </trkpt>
      <trkpt lat="48.7166" lon="2.58596">
        <ele>147.753</ele>
        <time>2017-10-08T09:09:45Z</time>
      </trkpt>
      <trkpt lat="48.71673" lon="2.58611">
        <ele>147.709</ele>
        <time>2017-10-08T09:10:00Z</time>
      </trkpt>
      <trkpt lat="48.71684" lon="2.58628">
        <ele>147.647</ele>
        <time>2017-10-08T09:10:15Z</time>
      </trkpt>
      <trkpt lat="48.71691" lon="2.58644">
        <ele>147.622</ele>
        <time>2017-10-08T09:10:23Z</time>
      </trkpt>
      <trkpt lat="48.71706" lon="2.58654">
        <ele>147.601</ele>
        <time>2017-10-08T09:10:34Z</time>
      </trkpt>
      <trkpt lat="48.71722" lon="2.58656">
        <ele>147.578</ele>
        <time>2017-10-08T09:10:48Z</time>
      </trkpt>
      <trkpt lat="48.71739" lon="2.5865">
        <ele>147.555</ele>
        <time>2017-10-08T09:11:00Z</time>
      </trkpt>
      <trkpt lat="48.71754" lon="2.58634">
        <ele>147.493</ele>
        <time>2017-10-08T09:11:14Z</time>
      </trkpt>
      <trkpt lat="48.71766" lon="2.58621">
        <ele>147.419</ele>
        <time>2017-10-08T09:11:27Z</time>
      </trkpt>
      <trkpt lat="48.71776" lon="2.58643">
        <ele>147.283</ele>
        <time>2017-10-08T09:11:44Z</time>
      </trkpt>
      <trkpt lat="48.7179" lon="2.58648">
        <ele>147.179</ele>
        <time>2017-10-08T09:11:57Z</time>
      </trkpt>
      <trkpt lat="48.71816" lon="2.58662">
        <ele>147.032</ele>
        <time>2017-10-08T09:12:14Z</time>
      </trkpt>
      <trkpt lat="48.71827" lon="2.58669">
        <ele>146.961</ele>
        <time>2017-10-08T09:12:22Z</time>
      </trkpt>
      <trkpt lat="48.71845" lon="2.58676">
        <ele>146.845</ele>
        <time>2017-10-08T09:12:35Z</time>
      </trkpt>
      <trkpt lat="48.71866" lon="2.58685">
        <ele>146.696</ele>
        <time>2017-10-08T09:12:50Z</time>
      </trkpt>
      <trkpt lat="48.71883" lon="2.58689">
        <ele>146.562</ele>
        <time>2017-10-08T09:13:03Z</time>
      </trkpt>
      <trkpt lat="48.71883" lon="2.58689">
        <ele>146.562</ele>
        <time>2017-10-08T09:13:08Z</time>
      </trkpt>
      <trkpt lat="48.71883" lon="2.58689">
        <ele>70.4</ele>
        <time>2017-10-08T09:13:08Z</time>
      </trkpt>
      <trkpt lat="48.71883" lon="2.58689">
        <ele>70.4</ele>
        <time>2017-10-08T09:13:15Z</time>
      </trkpt>
      <trkpt lat="48.71892" lon="2.58688">
        <ele>146.43</ele>
        <time>2017-10-08T09:13:15Z</time>
      </trkpt>
      <trkpt lat="48.71908" lon="2.5869">
        <ele>146.276</ele>
        <time>2017-10-08T09:13:28Z</time>
      </trkpt>
      <trkpt lat="48.71929" lon="2.5869">
        <ele>146.047</ele>
        <time>2017-10-08T09:13:44Z</time>
      </trkpt>
      <trkpt lat="48.71946" lon="2.58696">
        <ele>145.858</ele>
        <time>2017-10-08T09:13:58Z</time>
      </trkpt>
      <trkpt lat="48.71966" lon="2.58701">
        <ele>145.49</ele>
        <time>2017-10-08T09:14:16Z</time>
      </trkpt>
      <trkpt lat="48.71976" lon="2.58678">
        <ele>145.03</ele>
        <time>2017-10-08T09:14:33Z</time>
      </trkpt>
      <trkpt lat="48.71989" lon="2.58653">
        <ele>144.634</ele>
        <time>2017-10-08T09:14:51Z</time>
      </trkpt>
      <trkpt lat="48.71995" lon="2.58642">
        <ele>144.394</ele>
        <time>2017-10-08T09:15:00Z</time>
      </trkpt>
      <trkpt lat="48.72004" lon="2.58627">
        <ele>143.947</ele>
        <time>2017-10-08T09:15:11Z</time>
      </trkpt>
      <trkpt lat="48.72017" lon="2.58604">
        <ele>143.234</ele>
        <time>2017-10-08T09:15:25Z</time>
      </trkpt>
      <trkpt lat="48.72035" lon="2.5858">
        <ele>142.21</ele>
        <time>2017-10-08T09:15:43Z</time>
      </trkpt>
      <trkpt lat="48.72049" lon="2.58567">
        <ele>141.363</ele>
        <time>2017-10-08T09:15:57Z</time>
      </trkpt>
      <trkpt lat="48.72063" lon="2.58553">
        <ele>140.602</ele>
        <time>2017-10-08T09:16:10Z</time>
      </trkpt>
      <trkpt lat="48.72072" lon="2.58543">
        <ele>140.003</ele>
        <time>2017-10-08T09:16:20Z</time>
      </trkpt>
      <trkpt lat="48.72082" lon="2.58531">
        <ele>139.415</ele>
        <time>2017-10-08T09:16:31Z</time>
      </trkpt>
      <trkpt lat="48.72087" lon="2.58504">
        <ele>138.614</ele>
        <time>2017-10-08T09:16:49Z</time>
      </trkpt>
      <trkpt lat="48.721" lon="2.58475">
        <ele>137.879</ele>
        <time>2017-10-08T09:17:07Z</time>
      </trkpt>
      <trkpt lat="48.72116" lon="2.58461">
        <ele>137.302</ele>
        <time>2017-10-08T09:17:24Z</time>
      </trkpt>
      <trkpt lat="48.72131" lon="2.58455">
        <ele>136.944</ele>
        <time>2017-10-08T09:17:35Z</time>
      </trkpt>
      <trkpt lat="48.72148" lon="2.5845">
        <ele>136.55</ele>
        <time>2017-10-08T09:17:48Z</time>
      </trkpt>
      <trkpt lat="48.72156" lon="2.58427">
        <ele>136.076</ele>
        <time>2017-10-08T09:18:06Z</time>
      </trkpt>
      <trkpt lat="48.72155" lon="2.58392">
        <ele>135.612</ele>
        <time>2017-10-08T09:18:24Z</time>
      </trkpt>
      <trkpt lat="48.72156" lon="2.58364">
        <ele>135.229</ele>
        <time>2017-10-08T09:18:40Z</time>
      </trkpt>
      <trkpt lat="48.72156" lon="2.5836">
        <ele>135.161</ele>
        <time>2017-10-08T09:18:43Z</time>
      </trkpt>
      <trkpt lat="48.72156" lon="2.5836">
        <ele>66.4</ele>
        <time>2017-10-08T09:18:51Z</time>
      </trkpt>
      <trkpt lat="48.72156" lon="2.5836">
        <ele>66.4</ele>
        <time>2017-10-08T09:36:29Z</time>
      </trkpt>
      <trkpt lat="48.72167" lon="2.58316">
        <ele>124.942</ele>
        <time>2017-10-08T09:36:29Z</time>
      </trkpt>
      <trkpt lat="48.72169" lon="2.58297">
        <ele>124.551</ele>
        <time>2017-10-08T09:36:40Z</time>
      </trkpt>
      <trkpt lat="48.7216" lon="2.58267">
        <ele>124.1</ele>
        <time>2017-10-08T09:36:57Z</time>
      </trkpt>
      <trkpt lat="48.72153" lon="2.58248">
        <ele>123.868</ele>
        <time>2017-10-08T09:37:09Z</time>
      </trkpt>
      <trkpt lat="48.72143" lon="2.58219">
        <ele>123.644</ele>
        <time>2017-10-08T09:37:26Z</time>
      </trkpt>
      <trkpt lat="48.72137" lon="2.58189">
        <ele>123.468</ele>
        <time>2017-10-08T09:37:43Z</time>
      </trkpt>
      <trkpt lat="48.72121" lon="2.58177">
        <ele>123.334</ele>
        <time>2017-10-08T09:37:58Z</time>
      </trkpt>
      <trkpt lat="48.72117" lon="2.58162">
        <ele>123.265</ele>
        <time>2017-10-08T09:38:07Z</time>
      </trkpt>
      <trkpt lat="48.7212" lon="2.58133">
        <ele>123.129</ele>
        <time>2017-10-08T09:38:23Z</time>
      </trkpt>
      <trkpt lat="48.72125" lon="2.58111">
        <ele>123.02</ele>
        <time>2017-10-08T09:38:35Z</time>
      </trkpt>
      <trkpt lat="48.72133" lon="2.5809">
        <ele>122.905</ele>
        <time>2017-10-08T09:38:47Z</time>
      </trkpt>
      <trkpt lat="48.72141" lon="2.58071">
        <ele>122.739</ele>
        <time>2017-10-08T09:39:03Z</time>
      </trkpt>
      <trkpt lat="48.72147" lon="2.5806">
        <ele>122.673</ele>
        <time>2017-10-08T09:39:09Z</time>
      </trkpt>
      <trkpt lat="48.72154" lon="2.58042">
        <ele>122.56</ele>
        <time>2017-10-08T09:39:19Z</time>
      </trkpt>
      <trkpt lat="48.72159" lon="2.58031">
        <ele>122.464</ele>
        <time>2017-10-08T09:39:27Z</time>
      </trkpt>
      <trkpt lat="48.72169" lon="2.58006">
        <ele>122.249</ele>
        <time>2017-10-08T09:39:43Z</time>
      </trkpt>
      <trkpt lat="48.72172" lon="2.58">
        <ele>122.222</ele>
        <time>2017-10-08T09:39:45Z</time>
      </trkpt>
      <trkpt lat="48.72172" lon="2.58">
        <ele>67.8</ele>
        <time>2017-10-08T09:39:50Z</time>
      </trkpt>
      <trkpt lat="48.72172" lon="2.58">
        <ele>67.8</ele>
        <time>2017-10-08T09:39:53Z</time>
      </trkpt>
      <trkpt lat="48.72175" lon="2.57991">
        <ele>122.117</ele>
        <time>2017-10-08T09:39:53Z</time>
      </trkpt>
      <trkpt lat="48.72181" lon="2.5797">
        <ele>121.99</ele>
        <time>2017-10-08T09:40:03Z</time>
      </trkpt>
      <trkpt lat="48.72185" lon="2.57959">
        <ele>121.901</ele>
        <time>2017-10-08T09:40:11Z</time>
      </trkpt>
      <trkpt lat="48.72181" lon="2.57928">
        <ele>121.707</ele>
        <time>2017-10-08T09:40:31Z</time>
      </trkpt>
      <trkpt lat="48.72164" lon="2.57901">
        <ele>121.559</ele>
        <time>2017-10-08T09:40:51Z</time>
      </trkpt>
      <trkpt lat="48.72149" lon="2.57889">
        <ele>121.483</ele>
        <time>2017-10-08T09:41:06Z</time>
      </trkpt>
      <trkpt lat="48.72136" lon="2.57883">
        <ele>121.433</ele>
        <time>2017-10-08T09:41:17Z</time>
      </trkpt>
      <trkpt lat="48.72123" lon="2.57876">
        <ele>121.383</ele>
        <time>2017-10-08T09:41:27Z</time>
      </trkpt>
      <trkpt lat="48.72109" lon="2.57871">
        <ele>121.318</ele>
        <time>2017-10-08T09:41:37Z</time>
      </trkpt>
      <trkpt lat="48.72095" lon="2.57862">
        <ele>121.251</ele>
        <time>2017-10-08T09:41:48Z</time>
      </trkpt>
      <trkpt lat="48.72077" lon="2.57854">
        <ele>121.2</ele>
        <time>2017-10-08T09:41:59Z</time>
      </trkpt>
      <trkpt lat="48.72074" lon="2.57828">
        <ele>121.157</ele>
        <time>2017-10-08T09:42:13Z</time>
      </trkpt>
      <trkpt lat="48.72081" lon="2.57799">
        <ele>121.131</ele>
        <time>2017-10-08T09:42:29Z</time>
      </trkpt>
      <trkpt lat="48.7209" lon="2.57778">
        <ele>121.116</ele>
        <time>2017-10-08T09:42:42Z</time>
      </trkpt>
      <trkpt lat="48.72097" lon="2.57759">
        <ele>121.111</ele>
        <time>2017-10-08T09:42:56Z</time>
      </trkpt>
      <trkpt lat="48.72105" lon="2.57734">
        <ele>121.124</ele>
        <time>2017-10-08T09:43:13Z</time>
      </trkpt>
      <trkpt lat="48.7211" lon="2.57716">
        <ele>121.14</ele>
        <time>2017-10-08T09:43:27Z</time>
      </trkpt>
      <trkpt lat="48.72125" lon="2.57675">
        <ele>121.148</ele>
        <time>2017-10-08T09:43:45Z</time>
      </trkpt>
      <trkpt lat="48.72132" lon="2.57652">
        <ele>121.143</ele>
        <time>2017-10-08T09:43:56Z</time>
      </trkpt>
      <trkpt lat="48.72136" lon="2.57635">
        <ele>121.132</ele>
        <time>2017-10-08T09:44:06Z</time>
      </trkpt>
      <trkpt lat="48.72139" lon="2.57607">
        <ele>121.093</ele>
        <time>2017-10-08T09:44:20Z</time>
      </trkpt>
      <trkpt lat="48.72144" lon="2.57589">
        <ele>121.047</ele>
        <time>2017-10-08T09:44:31Z</time>
      </trkpt>
      <trkpt lat="48.72152" lon="2.57557">
        <ele>120.923</ele>
        <time>2017-10-08T09:44:49Z</time>
      </trkpt>
      <trkpt lat="48.72157" lon="2.57528">
        <ele>120.787</ele>
        <time>2017-10-08T09:45:04Z</time>
      </trkpt>
      <trkpt lat="48.72161" lon="2.57498">
        <ele>120.637</ele>
        <time>2017-10-08T09:45:18Z</time>
      </trkpt>
      <trkpt lat="48.72165" lon="2.57475">
        <ele>120.489</ele>
        <time>2017-10-08T09:45:31Z</time>
      </trkpt>
      <trkpt lat="48.72179" lon="2.57449">
        <ele>120.341</ele>
        <time>2017-10-08T09:45:44Z</time>
      </trkpt>
      <trkpt lat="48.72195" lon="2.57435">
        <ele>120.201</ele>
        <time>2017-10-08T09:45:57Z</time>
      </trkpt>
      <trkpt lat="48.72219" lon="2.57417">
        <ele>120.04</ele>
        <time>2017-10-08T09:46:13Z</time>
      </trkpt>
      <trkpt lat="48.72235" lon="2.574">
        <ele>119.917</ele>
        <time>2017-10-08T09:46:26Z</time>
      </trkpt>
      <trkpt lat="48.7225" lon="2.57388">
        <ele>119.792</ele>
        <time>2017-10-08T09:46:39Z</time>
      </trkpt>
      <trkpt lat="48.72274" lon="2.57382">
        <ele>119.645</ele>
        <time>2017-10-08T09:46:53Z</time>
      </trkpt>
      <trkpt lat="48.72288" lon="2.57372">
        <ele>119.56</ele>
        <time>2017-10-08T09:47:02Z</time>
      </trkpt>
      <trkpt lat="48.72301" lon="2.57364">
        <ele>119.439</ele>
        <time>2017-10-08T09:47:16Z</time>
      </trkpt>
      <trkpt lat="48.72325" lon="2.57359">
        <ele>119.321</ele>
        <time>2017-10-08T09:47:34Z</time>
      </trkpt>
      <trkpt lat="48.72343" lon="2.57331">
        <ele>119.176</ele>
        <time>2017-10-08T09:47:51Z</time>
      </trkpt>
      <trkpt lat="48.72347" lon="2.57326">
        <ele>119.141</ele>
        <time>2017-10-08T09:47:55Z</time>
      </trkpt>
      <trkpt lat="48.72347" lon="2.57326">
        <ele>65.5</ele>
        <time>2017-10-08T09:48:03Z</time>
      </trkpt>
      <trkpt lat="48.72347" lon="2.57326">
        <ele>65.5</ele>
        <time>2017-10-08T09:48:46Z</time>
      </trkpt>
      <trkpt lat="48.72377" lon="2.57322">
        <ele>118.845</ele>
        <time>2017-10-08T09:48:46Z</time>
      </trkpt>
      <trkpt lat="48.72388" lon="2.57322">
        <ele>118.782</ele>
        <time>2017-10-08T09:48:55Z</time>
      </trkpt>
      <trkpt lat="48.72405" lon="2.57325">
        <ele>118.714</ele>
        <time>2017-10-08T09:49:11Z</time>
      </trkpt>
      <trkpt lat="48.72409" lon="2.57329">
        <ele>118.702</ele>
        <time>2017-10-08T09:49:18Z</time>
      </trkpt>
      <trkpt lat="48.72409" lon="2.57329">
        <ele>66</ele>
        <time>2017-10-08T09:49:26Z</time>
      </trkpt>
      <trkpt lat="48.72409" lon="2.57329">
        <ele>66</ele>
        <time>2017-10-08T09:49:31Z</time>
      </trkpt>
      <trkpt lat="48.72425" lon="2.57333">
        <ele>118.711</ele>
        <time>2017-10-08T09:49:31Z</time>
      </trkpt>
      <trkpt lat="48.7244" lon="2.57347">
        <ele>118.732</ele>
        <time>2017-10-08T09:49:39Z</time>
      </trkpt>
      <trkpt lat="48.72447" lon="2.5735">
        <ele>118.764</ele>
        <time>2017-10-08T09:49:48Z</time>
      </trkpt>
      <trkpt lat="48.72457" lon="2.57352">
        <ele>118.799</ele>
        <time>2017-10-08T09:49:55Z</time>
      </trkpt>
      <trkpt lat="48.72457" lon="2.57352">
        <ele>118.799</ele>
        <time>2017-10-08T09:50:00Z</time>
      </trkpt>
      <trkpt lat="48.72457" lon="2.57352">
        <ele>67.1</ele>
        <time>2017-10-08T09:50:00Z</time>
      </trkpt>
      <trkpt lat="48.72457" lon="2.57352">
        <ele>67.1</ele>
        <time>2017-10-08T09:50:05Z</time>
      </trkpt>
      <trkpt lat="48.72469" lon="2.57339">
        <ele>118.838</ele>
        <time>2017-10-08T09:50:05Z</time>
      </trkpt>
      <trkpt lat="48.72476" lon="2.57319">
        <ele>118.872</ele>
        <time>2017-10-08T09:50:14Z</time>
      </trkpt>
      <trkpt lat="48.72484" lon="2.57302">
        <ele>118.98</ele>
        <time>2017-10-08T09:50:28Z</time>
      </trkpt>
      <trkpt lat="48.7249" lon="2.57279">
        <ele>119.063</ele>
        <time>2017-10-08T09:50:37Z</time>
      </trkpt>
      <trkpt lat="48.72494" lon="2.57266">
        <ele>119.135</ele>
        <time>2017-10-08T09:50:44Z</time>
      </trkpt>
      <trkpt lat="48.72499" lon="2.57249">
        <ele>119.249</ele>
        <time>2017-10-08T09:50:54Z</time>
      </trkpt>
      <trkpt lat="48.72512" lon="2.57248">
        <ele>119.401</ele>
        <time>2017-10-08T09:51:06Z</time>
      </trkpt>
      <trkpt lat="48.72521" lon="2.57244">
        <ele>119.493</ele>
        <time>2017-10-08T09:51:13Z</time>
      </trkpt>
      <trkpt lat="48.72539" lon="2.57242">
        <ele>119.661</ele>
        <time>2017-10-08T09:51:25Z</time>
      </trkpt>
      <trkpt lat="48.72558" lon="2.57242">
        <ele>119.885</ele>
        <time>2017-10-08T09:51:41Z</time>
      </trkpt>
      <trkpt lat="48.72571" lon="2.57236">
        <ele>120.112</ele>
        <time>2017-10-08T09:51:55Z</time>
      </trkpt>
      <trkpt lat="48.72576" lon="2.57263">
        <ele>120.434</ele>
        <time>2017-10-08T09:52:12Z</time>
      </trkpt>
      <trkpt lat="48.72592" lon="2.57283">
        <ele>120.74</ele>
        <time>2017-10-08T09:52:29Z</time>
      </trkpt>
      <trkpt lat="48.72605" lon="2.57294">
        <ele>120.963</ele>
        <time>2017-10-08T09:52:41Z</time>
      </trkpt>
      <trkpt lat="48.72624" lon="2.57303">
        <ele>121.237</ele>
        <time>2017-10-08T09:52:56Z</time>
      </trkpt>
      <trkpt lat="48.72622" lon="2.57335">
        <ele>121.562</ele>
        <time>2017-10-08T09:53:13Z</time>
      </trkpt>
      <trkpt lat="48.72619" lon="2.57351">
        <ele>121.735</ele>
        <time>2017-10-08T09:53:21Z</time>
      </trkpt>
      <trkpt lat="48.72616" lon="2.57371">
        <ele>121.956</ele>
        <time>2017-10-08T09:53:31Z</time>
      </trkpt>
      <trkpt lat="48.7262" lon="2.57392">
        <ele>122.2</ele>
        <time>2017-10-08T09:53:42Z</time>
      </trkpt>
      <trkpt lat="48.72628" lon="2.574">
        <ele>122.37</ele>
        <time>2017-10-08T09:53:50Z</time>
      </trkpt>
      <trkpt lat="48.72639" lon="2.57408">
        <ele>122.577</ele>
        <time>2017-10-08T09:54:00Z</time>
      </trkpt>
      <trkpt lat="48.72658" lon="2.57421">
        <ele>122.927</ele>
        <time>2017-10-08T09:54:17Z</time>
      </trkpt>
      <trkpt lat="48.7267" lon="2.57432">
        <ele>123.234</ele>
        <time>2017-10-08T09:54:33Z</time>
      </trkpt>
      <trkpt lat="48.72693" lon="2.5744">
        <ele>123.623</ele>
        <time>2017-10-08T09:54:52Z</time>
      </trkpt>
      <trkpt lat="48.72702" lon="2.57439">
        <ele>123.844</ele>
        <time>2017-10-08T09:55:01Z</time>
      </trkpt>
      <trkpt lat="48.72718" lon="2.57438">
        <ele>124.106</ele>
        <time>2017-10-08T09:55:11Z</time>
      </trkpt>
      <trkpt lat="48.72739" lon="2.57441">
        <ele>124.384</ele>
        <time>2017-10-08T09:55:21Z</time>
      </trkpt>
      <trkpt lat="48.72758" lon="2.57446">
        <ele>124.801</ele>
        <time>2017-10-08T09:55:35Z</time>
      </trkpt>
      <trkpt lat="48.72778" lon="2.57449">
        <ele>125.217</ele>
        <time>2017-10-08T09:55:50Z</time>
      </trkpt>
      <trkpt lat="48.72797" lon="2.57455">
        <ele>125.565</ele>
        <time>2017-10-08T09:56:04Z</time>
      </trkpt>
      <trkpt lat="48.72808" lon="2.57459">
        <ele>125.753</ele>
        <time>2017-10-08T09:56:12Z</time>
      </trkpt>
      <trkpt lat="48.72818" lon="2.57459">
        <ele>125.949</ele>
        <time>2017-10-08T09:56:20Z</time>
      </trkpt>
      <trkpt lat="48.72834" lon="2.57461">
        <ele>126.351</ele>
        <time>2017-10-08T09:56:35Z</time>
      </trkpt>
      <trkpt lat="48.72844" lon="2.57456">
        <ele>126.811</ele>
        <time>2017-10-08T09:56:51Z</time>
      </trkpt>
      <trkpt lat="48.72857" lon="2.57463">
        <ele>127.145</ele>
        <time>2017-10-08T09:57:02Z</time>
      </trkpt>
      <trkpt lat="48.72872" lon="2.5747">
        <ele>127.499</ele>
        <time>2017-10-08T09:57:14Z</time>
      </trkpt>
      <trkpt lat="48.72887" lon="2.57481">
        <ele>127.903</ele>
        <time>2017-10-08T09:57:28Z</time>
      </trkpt>
      <trkpt lat="48.72902" lon="2.57495">
        <ele>128.301</ele>
        <time>2017-10-08T09:57:42Z</time>
      </trkpt>
      <trkpt lat="48.72915" lon="2.57494">
        <ele>128.74</ele>
        <time>2017-10-08T09:57:57Z</time>
      </trkpt>
      <trkpt lat="48.72932" lon="2.57496">
        <ele>129.214</ele>
        <time>2017-10-08T09:58:13Z</time>
      </trkpt>
      <trkpt lat="48.72945" lon="2.57491">
        <ele>129.582</ele>
        <time>2017-10-08T09:58:25Z</time>
      </trkpt>
      <trkpt lat="48.72953" lon="2.57463">
        <ele>130.067</ele>
        <time>2017-10-08T09:58:42Z</time>
      </trkpt>
      <trkpt lat="48.72957" lon="2.57443">
        <ele>130.401</ele>
        <time>2017-10-08T09:58:55Z</time>
      </trkpt>
      <trkpt lat="48.72959" lon="2.5742">
        <ele>130.74</ele>
        <time>2017-10-08T09:59:07Z</time>
      </trkpt>
      <trkpt lat="48.72962" lon="2.57407">
        <ele>130.995</ele>
        <time>2017-10-08T09:59:16Z</time>
      </trkpt>
      <trkpt lat="48.72975" lon="2.57388">
        <ele>131.465</ele>
        <time>2017-10-08T09:59:33Z</time>
      </trkpt>
      <trkpt lat="48.72975" lon="2.57388">
        <ele>131.465</ele>
        <time>2017-10-08T09:59:38Z</time>
      </trkpt>
      <trkpt lat="48.72975" lon="2.57388">
        <ele>91</ele>
        <time>2017-10-08T09:59:38Z</time>
      </trkpt>
      <trkpt lat="48.72975" lon="2.57388">
        <ele>91</ele>
        <time>2017-10-08T09:59:41Z</time>
      </trkpt>
      <trkpt lat="48.72979" lon="2.57377">
        <ele>131.69</ele>
        <time>2017-10-08T09:59:41Z</time>
      </trkpt>
      <trkpt lat="48.72991" lon="2.5735">
        <ele>132.156</ele>
        <time>2017-10-08T09:59:59Z</time>
      </trkpt>
      <trkpt lat="48.72991" lon="2.5732">
        <ele>132.511</ele>
        <time>2017-10-08T10:00:15Z</time>
      </trkpt>
      <trkpt lat="48.72993" lon="2.57289">
        <ele>132.84</ele>
        <time>2017-10-08T10:00:32Z</time>
      </trkpt>
      <trkpt lat="48.72995" lon="2.5726">
        <ele>133.312</ele>
        <time>2017-10-08T10:00:49Z</time>
      </trkpt>
      <trkpt lat="48.72986" lon="2.57231">
        <ele>133.928</ele>
        <time>2017-10-08T10:01:06Z</time>
      </trkpt>
      <trkpt lat="48.72967" lon="2.57217">
        <ele>134.332</ele>
        <time>2017-10-08T10:01:20Z</time>
      </trkpt>
      <trkpt lat="48.72956" lon="2.57212">
        <ele>134.597</ele>
        <time>2017-10-08T10:01:30Z</time>
      </trkpt>
      <trkpt lat="48.72936" lon="2.57214">
        <ele>134.95</ele>
        <time>2017-10-08T10:01:43Z</time>
      </trkpt>
      <trkpt lat="48.72923" lon="2.57195">
        <ele>135.319</ele>
        <time>2017-10-08T10:01:58Z</time>
      </trkpt>
      <trkpt lat="48.7291" lon="2.57171">
        <ele>135.562</ele>
        <time>2017-10-08T10:02:14Z</time>
      </trkpt>
      <trkpt lat="48.72889" lon="2.57154">
        <ele>135.829</ele>
        <time>2017-10-08T10:02:33Z</time>
      </trkpt>
      <trkpt lat="48.72884" lon="2.57133">
        <ele>136.01</ele>
        <time>2017-10-08T10:02:48Z</time>
      </trkpt>
      <trkpt lat="48.72879" lon="2.57094">
        <ele>136.185</ele>
        <time>2017-10-08T10:03:05Z</time>
      </trkpt>
      <trkpt lat="48.72878" lon="2.57086">
        <ele>136.21</ele>
        <time>2017-10-08T10:03:08Z</time>
      </trkpt>
      <trkpt lat="48.72878" lon="2.57086">
        <ele>87.7</ele>
        <time>2017-10-08T10:03:15Z</time>
      </trkpt>
      <trkpt lat="48.72878" lon="2.57086">
        <ele>87.7</ele>
        <time>2017-10-08T10:03:20Z</time>
      </trkpt>
      <trkpt lat="48.72873" lon="2.57076">
        <ele>136.299</ele>
        <time>2017-10-08T10:03:20Z</time>
      </trkpt>
      <trkpt lat="48.72859" lon="2.57072">
        <ele>136.406</ele>
        <time>2017-10-08T10:03:33Z</time>
      </trkpt>
      <trkpt lat="48.72836" lon="2.57074">
        <ele>136.533</ele>
        <time>2017-10-08T10:03:50Z</time>
      </trkpt>
      <trkpt lat="48.72822" lon="2.57076">
        <ele>136.625</ele>
        <time>2017-10-08T10:04:03Z</time>
      </trkpt>
      <trkpt lat="48.72804" lon="2.57079">
        <ele>136.681</ele>
        <time>2017-10-08T10:04:16Z</time>
      </trkpt>
      <trkpt lat="48.72785" lon="2.57083">
        <ele>136.705</ele>
        <time>2017-10-08T10:04:29Z</time>
      </trkpt>
      <trkpt lat="48.72783" lon="2.57084">
        <ele>136.704</ele>
        <time>2017-10-08T10:04:31Z</time>
      </trkpt>
      <trkpt lat="48.72783" lon="2.57084">
        <ele>82.2</ele>
        <time>2017-10-08T10:04:36Z</time>
      </trkpt>
      <trkpt lat="48.72783" lon="2.57084">
        <ele>82.2</ele>
        <time>2017-10-08T10:05:24Z</time>
      </trkpt>
      <trkpt lat="48.72795" lon="2.57048">
        <ele>136.719</ele>
        <time>2017-10-08T10:05:24Z</time>
      </trkpt>
      <trkpt lat="48.72808" lon="2.57021">
        <ele>136.773</ele>
        <time>2017-10-08T10:05:40Z</time>
      </trkpt>
      <trkpt lat="48.7282" lon="2.56995">
        <ele>136.803</ele>
        <time>2017-10-08T10:06:00Z</time>
      </trkpt>
      <trkpt lat="48.72828" lon="2.56971">
        <ele>136.784</ele>
        <time>2017-10-08T10:06:14Z</time>
      </trkpt>
      <trkpt lat="48.72835" lon="2.56953">
        <ele>136.752</ele>
        <time>2017-10-08T10:06:25Z</time>
      </trkpt>
      <trkpt lat="48.72839" lon="2.56938">
        <ele>136.727</ele>
        <time>2017-10-08T10:06:32Z</time>
      </trkpt>
      <trkpt lat="48.72844" lon="2.56915">
        <ele>136.677</ele>
        <time>2017-10-08T10:06:43Z</time>
      </trkpt>
      <trkpt lat="48.7285" lon="2.56889">
        <ele>136.607</ele>
        <time>2017-10-08T10:06:56Z</time>
      </trkpt>
      <trkpt lat="48.72856" lon="2.56863">
        <ele>136.552</ele>
        <time>2017-10-08T10:07:09Z</time>
      </trkpt>
      <trkpt lat="48.72861" lon="2.56836">
        <ele>136.539</ele>
        <time>2017-10-08T10:07:23Z</time>
      </trkpt>
      <trkpt lat="48.72864" lon="2.56821">
        <ele>136.548</ele>
        <time>2017-10-08T10:07:31Z</time>
      </trkpt>
      <trkpt lat="48.72867" lon="2.56809">
        <ele>136.561</ele>
        <time>2017-10-08T10:07:39Z</time>
      </trkpt>
      <trkpt lat="48.72876" lon="2.56778">
        <ele>136.557</ele>
        <time>2017-10-08T10:07:56Z</time>
      </trkpt>
      <trkpt lat="48.72884" lon="2.56751">
        <ele>136.57</ele>
        <time>2017-10-08T10:08:12Z</time>
      </trkpt>
      <trkpt lat="48.72901" lon="2.56714">
        <ele>136.557</ele>
        <time>2017-10-08T10:08:31Z</time>
      </trkpt>
      <trkpt lat="48.72909" lon="2.5669">
        <ele>136.547</ele>
        <time>2017-10-08T10:08:44Z</time>
      </trkpt>
      <trkpt lat="48.72916" lon="2.56661">
        <ele>136.572</ele>
        <time>2017-10-08T10:09:00Z</time>
      </trkpt>
      <trkpt lat="48.72922" lon="2.56627">
        <ele>136.584</ele>
        <time>2017-10-08T10:09:18Z</time>
      </trkpt>
      <trkpt lat="48.72926" lon="2.56597">
        <ele>136.626</ele>
        <time>2017-10-08T10:09:36Z</time>
      </trkpt>
      <trkpt lat="48.72934" lon="2.56568">
        <ele>136.67</ele>
        <time>2017-10-08T10:09:48Z</time>
      </trkpt>
      <trkpt lat="48.7294" lon="2.5655">
        <ele>136.703</ele>
        <time>2017-10-08T10:09:59Z</time>
      </trkpt>
      <trkpt lat="48.72946" lon="2.56527">
        <ele>136.713</ele>
        <time>2017-10-08T10:10:13Z</time>
      </trkpt>
      <trkpt lat="48.72952" lon="2.56507">
        <ele>136.701</ele>
        <time>2017-10-08T10:10:28Z</time>
      </trkpt>
      <trkpt lat="48.72959" lon="2.56494">
        <ele>136.71</ele>
        <time>2017-10-08T10:10:40Z</time>
      </trkpt>
      <trkpt lat="48.72966" lon="2.56477">
        <ele>136.719</ele>
        <time>2017-10-08T10:10:49Z</time>
      </trkpt>
      <trkpt lat="48.72969" lon="2.56458">
        <ele>136.717</ele>
        <time>2017-10-08T10:11:02Z</time>
      </trkpt>
      <trkpt lat="48.72978" lon="2.56443">
        <ele>136.707</ele>
        <time>2017-10-08T10:11:13Z</time>
      </trkpt>
      <trkpt lat="48.72985" lon="2.56426">
        <ele>136.682</ele>
        <time>2017-10-08T10:11:21Z</time>
      </trkpt>
      <trkpt lat="48.72992" lon="2.56408">
        <ele>136.628</ele>
        <time>2017-10-08T10:11:36Z</time>
      </trkpt>
      <trkpt lat="48.73002" lon="2.56384">
        <ele>136.599</ele>
        <time>2017-10-08T10:11:50Z</time>
      </trkpt>
      <trkpt lat="48.73006" lon="2.56374">
        <ele>136.582</ele>
        <time>2017-10-08T10:11:55Z</time>
      </trkpt>
      <trkpt lat="48.73006" lon="2.56374">
        <ele>73.3</ele>
        <time>2017-10-08T10:12:03Z</time>
      </trkpt>
      <trkpt lat="48.73006" lon="2.56374">
        <ele>73.3</ele>
        <time>2017-10-08T10:12:32Z</time>
      </trkpt>
      <trkpt lat="48.73008" lon="2.56344">
        <ele>136.242</ele>
        <time>2017-10-08T10:12:32Z</time>
      </trkpt>
      <trkpt lat="48.73021" lon="2.56321">
        <ele>135.881</ele>
        <time>2017-10-08T10:12:52Z</time>
      </trkpt>
      <trkpt lat="48.73024" lon="2.56303">
        <ele>135.724</ele>
        <time>2017-10-08T10:13:03Z</time>
      </trkpt>
      <trkpt lat="48.73031" lon="2.5628">
        <ele>135.594</ele>
        <time>2017-10-08T10:13:14Z</time>
      </trkpt>
      <trkpt lat="48.73038" lon="2.56261">
        <ele>135.463</ele>
        <time>2017-10-08T10:13:28Z</time>
      </trkpt>
      <trkpt lat="48.73044" lon="2.56234">
        <ele>135.372</ele>
        <time>2017-10-08T10:13:41Z</time>
      </trkpt>
      <trkpt lat="48.73049" lon="2.56209">
        <ele>135.304</ele>
        <time>2017-10-08T10:13:55Z</time>
      </trkpt>
      <trkpt lat="48.73049" lon="2.56209">
        <ele>81</ele>
        <time>2017-10-08T10:14:03Z</time>
      </trkpt>
      <trkpt lat="48.73049" lon="2.56209">
        <ele>81</ele>
        <time>2017-10-08T10:14:45Z</time>
      </trkpt>
      <trkpt lat="48.73071" lon="2.56223">
        <ele>135.389</ele>
        <time>2017-10-08T10:14:45Z</time>
      </trkpt>
      <trkpt lat="48.73076" lon="2.56231">
        <ele>135.436</ele>
        <time>2017-10-08T10:14:55Z</time>
      </trkpt>
      <trkpt lat="48.73083" lon="2.56245">
        <ele>135.493</ele>
        <time>2017-10-08T10:15:04Z</time>
      </trkpt>
      <trkpt lat="48.73102" lon="2.56254">
        <ele>135.579</ele>
        <time>2017-10-08T10:15:17Z</time>
      </trkpt>
      <trkpt lat="48.73107" lon="2.56244">
        <ele>135.636</ele>
        <time>2017-10-08T10:15:27Z</time>
      </trkpt>
      <trkpt lat="48.73112" lon="2.56216">
        <ele>135.721</ele>
        <time>2017-10-08T10:15:45Z</time>
      </trkpt>
      <trkpt lat="48.73118" lon="2.56197">
        <ele>135.762</ele>
        <time>2017-10-08T10:15:58Z</time>
      </trkpt>
      <trkpt lat="48.73118" lon="2.56197">
        <ele>85.2</ele>
        <time>2017-10-08T10:16:06Z</time>
      </trkpt>
      <trkpt lat="48.73118" lon="2.56197">
        <ele>85.2</ele>
        <time>2017-10-08T10:16:11Z</time>
      </trkpt>
      <trkpt lat="48.73128" lon="2.56199">
        <ele>135.795</ele>
        <time>2017-10-08T10:16:11Z</time>
      </trkpt>
      <trkpt lat="48.73148" lon="2.56207">
        <ele>135.799</ele>
        <time>2017-10-08T10:16:26Z</time>
      </trkpt>
      <trkpt lat="48.73161" lon="2.56213">
        <ele>135.802</ele>
        <time>2017-10-08T10:16:36Z</time>
      </trkpt>
      <trkpt lat="48.73161" lon="2.56213">
        <ele>86.3</ele>
        <time>2017-10-08T10:16:44Z</time>
      </trkpt>
      <trkpt lat="48.73161" lon="2.56213">
        <ele>86.3</ele>
        <time>2017-10-08T10:19:02Z</time>
      </trkpt>
      <trkpt lat="48.73188" lon="2.56192">
        <ele>135.899</ele>
        <time>2017-10-08T10:19:02Z</time>
      </trkpt>
      <trkpt lat="48.73195" lon="2.56175">
        <ele>135.996</ele>
        <time>2017-10-08T10:19:15Z</time>
      </trkpt>
      <trkpt lat="48.73201" lon="2.56166">
        <ele>136.034</ele>
        <time>2017-10-08T10:19:21Z</time>
      </trkpt>
      <trkpt lat="48.73209" lon="2.56147">
        <ele>136.101</ele>
        <time>2017-10-08T10:19:34Z</time>
      </trkpt>
      <trkpt lat="48.7322" lon="2.56118">
        <ele>136.187</ele>
        <time>2017-10-08T10:19:53Z</time>
      </trkpt>
      <trkpt lat="48.7323" lon="2.56095">
        <ele>136.229</ele>
        <time>2017-10-08T10:20:07Z</time>
      </trkpt>
      <trkpt lat="48.73242" lon="2.56065">
        <ele>136.266</ele>
        <time>2017-10-08T10:20:23Z</time>
      </trkpt>
      <trkpt lat="48.73251" lon="2.56042">
        <ele>136.278</ele>
        <time>2017-10-08T10:20:36Z</time>
      </trkpt>
      <trkpt lat="48.7326" lon="2.5602">
        <ele>136.277</ele>
        <time>2017-10-08T10:20:51Z</time>
      </trkpt>
      <trkpt lat="48.73267" lon="2.55996">
        <ele>136.242</ele>
        <time>2017-10-08T10:21:06Z</time>
      </trkpt>
      <trkpt lat="48.73271" lon="2.55979">
        <ele>136.222</ele>
        <time>2017-10-08T10:21:15Z</time>
      </trkpt>
      <trkpt lat="48.73275" lon="2.55965">
        <ele>136.206</ele>
        <time>2017-10-08T10:21:22Z</time>
      </trkpt>
      <trkpt lat="48.73279" lon="2.55936">
        <ele>136.174</ele>
        <time>2017-10-08T10:21:36Z</time>
      </trkpt>
      <trkpt lat="48.73283" lon="2.55908">
        <ele>136.141</ele>
        <time>2017-10-08T10:21:50Z</time>
      </trkpt>
      <trkpt lat="48.73284" lon="2.55889">
        <ele>136.124</ele>
        <time>2017-10-08T10:22:00Z</time>
      </trkpt>
      <trkpt lat="48.73287" lon="2.55866">
        <ele>136.117</ele>
        <time>2017-10-08T10:22:13Z</time>
      </trkpt>
      <trkpt lat="48.73291" lon="2.55848">
        <ele>136.124</ele>
        <time>2017-10-08T10:22:21Z</time>
      </trkpt>
      <trkpt lat="48.73296" lon="2.55818">
        <ele>136.143</ele>
        <time>2017-10-08T10:22:36Z</time>
      </trkpt>
      <trkpt lat="48.73303" lon="2.55785">
        <ele>136.174</ele>
        <time>2017-10-08T10:22:52Z</time>
      </trkpt>
      <trkpt lat="48.7331" lon="2.55746">
        <ele>136.251</ele>
        <time>2017-10-08T10:23:10Z</time>
      </trkpt>
      <trkpt lat="48.73314" lon="2.55725">
        <ele>136.336</ele>
        <time>2017-10-08T10:23:21Z</time>
      </trkpt>
      <trkpt lat="48.73319" lon="2.55714">
        <ele>136.41</ele>
        <time>2017-10-08T10:23:30Z</time>
      </trkpt>
      <trkpt lat="48.73326" lon="2.5569">
        <ele>136.564</ele>
        <time>2017-10-08T10:23:47Z</time>
      </trkpt>
      <trkpt lat="48.73318" lon="2.5568">
        <ele>136.754</ele>
        <time>2017-10-08T10:24:04Z</time>
      </trkpt>
      <trkpt lat="48.73306" lon="2.55677">
        <ele>136.874</ele>
        <time>2017-10-08T10:24:15Z</time>
      </trkpt>
      <trkpt lat="48.73279" lon="2.55674">
        <ele>137.083</ele>
        <time>2017-10-08T10:24:34Z</time>
      </trkpt>
      <trkpt lat="48.73257" lon="2.5567">
        <ele>137.251</ele>
        <time>2017-10-08T10:24:50Z</time>
      </trkpt>
      <trkpt lat="48.73245" lon="2.55667">
        <ele>137.332</ele>
        <time>2017-10-08T10:25:00Z</time>
      </trkpt>
      <trkpt lat="48.73221" lon="2.55659">
        <ele>137.462</ele>
        <time>2017-10-08T10:25:16Z</time>
      </trkpt>
      <trkpt lat="48.73213" lon="2.55657">
        <ele>137.525</ele>
        <time>2017-10-08T10:25:23Z</time>
      </trkpt>
      <trkpt lat="48.732" lon="2.55653">
        <ele>137.594</ele>
        <time>2017-10-08T10:25:31Z</time>
      </trkpt>
      <trkpt lat="48.73189" lon="2.5565">
        <ele>137.675</ele>
        <time>2017-10-08T10:25:40Z</time>
      </trkpt>
      <trkpt lat="48.7317" lon="2.55644">
        <ele>137.807</ele>
        <time>2017-10-08T10:25:56Z</time>
      </trkpt>
      <trkpt lat="48.73152" lon="2.55639">
        <ele>137.882</ele>
        <time>2017-10-08T10:26:06Z</time>
      </trkpt>
      <trkpt lat="48.73139" lon="2.55635">
        <ele>137.943</ele>
        <time>2017-10-08T10:26:16Z</time>
      </trkpt>
      <trkpt lat="48.73126" lon="2.55628">
        <ele>138.002</ele>
        <time>2017-10-08T10:26:29Z</time>
      </trkpt>
      <trkpt lat="48.73132" lon="2.55594">
        <ele>138.041</ele>
        <time>2017-10-08T10:26:47Z</time>
      </trkpt>
      <trkpt lat="48.73134" lon="2.5557">
        <ele>138.029</ele>
        <time>2017-10-08T10:26:59Z</time>
      </trkpt>
      <trkpt lat="48.73138" lon="2.55555">
        <ele>138</ele>
        <time>2017-10-08T10:27:07Z</time>
      </trkpt>
      <trkpt lat="48.7315" lon="2.55531">
        <ele>137.908</ele>
        <time>2017-10-08T10:27:23Z</time>
      </trkpt>
      <trkpt lat="48.73166" lon="2.55516">
        <ele>137.786</ele>
        <time>2017-10-08T10:27:37Z</time>
      </trkpt>
      <trkpt lat="48.73184" lon="2.55492">
        <ele>137.61</ele>
        <time>2017-10-08T10:27:53Z</time>
      </trkpt>
      <trkpt lat="48.73196" lon="2.55465">
        <ele>137.437</ele>
        <time>2017-10-08T10:28:09Z</time>
      </trkpt>
      <trkpt lat="48.73198" lon="2.5544">
        <ele>137.304</ele>
        <time>2017-10-08T10:28:23Z</time>
      </trkpt>
      <trkpt lat="48.73203" lon="2.55409">
        <ele>137.167</ele>
        <time>2017-10-08T10:28:41Z</time>
      </trkpt>
      <trkpt lat="48.73203" lon="2.55392">
        <ele>137.118</ele>
        <time>2017-10-08T10:28:50Z</time>
      </trkpt>
      <trkpt lat="48.73203" lon="2.55389">
        <ele>137.102</ele>
        <time>2017-10-08T10:28:53Z</time>
      </trkpt>
      <trkpt lat="48.73203" lon="2.55389">
        <ele>80.6</ele>
        <time>2017-10-08T10:29:01Z</time>
      </trkpt>
      <trkpt lat="48.73203" lon="2.55389">
        <ele>80.6</ele>
        <time>2017-10-08T10:29:19Z</time>
      </trkpt>
      <trkpt lat="48.73207" lon="2.5537">
        <ele>136.981</ele>
        <time>2017-10-08T10:29:19Z</time>
      </trkpt>
      <trkpt lat="48.73212" lon="2.55342">
        <ele>136.887</ele>
        <time>2017-10-08T10:29:30Z</time>
      </trkpt>
      <trkpt lat="48.73214" lon="2.55317">
        <ele>136.776</ele>
        <time>2017-10-08T10:29:43Z</time>
      </trkpt>
      <trkpt lat="48.73214" lon="2.55289">
        <ele>136.624</ele>
        <time>2017-10-08T10:30:04Z</time>
      </trkpt>
      <trkpt lat="48.73204" lon="2.5525">
        <ele>136.516</ele>
        <time>2017-10-08T10:30:21Z</time>
      </trkpt>
      <trkpt lat="48.73205" lon="2.55246">
        <ele>136.488</ele>
        <time>2017-10-08T10:30:25Z</time>
      </trkpt>
      <trkpt lat="48.73205" lon="2.55246">
        <ele>81.8</ele>
        <time>2017-10-08T10:30:32Z</time>
      </trkpt>
      <trkpt lat="48.73205" lon="2.55246">
        <ele>81.8</ele>
        <time>2017-10-08T10:30:37Z</time>
      </trkpt>
      <trkpt lat="48.73201" lon="2.5523">
        <ele>136.404</ele>
        <time>2017-10-08T10:30:37Z</time>
      </trkpt>
      <trkpt lat="48.73181" lon="2.55204">
        <ele>136.255</ele>
        <time>2017-10-08T10:30:53Z</time>
      </trkpt>
      <trkpt lat="48.73167" lon="2.55206">
        <ele>136.146</ele>
        <time>2017-10-08T10:31:02Z</time>
      </trkpt>
      <trkpt lat="48.73159" lon="2.5521">
        <ele>136.048</ele>
        <time>2017-10-08T10:31:09Z</time>
      </trkpt>
      <trkpt lat="48.73159" lon="2.5521">
        <ele>77.5</ele>
        <time>2017-10-08T10:31:16Z</time>
      </trkpt>
      <trkpt lat="48.73159" lon="2.5521">
        <ele>77.5</ele>
        <time>2017-10-08T10:31:21Z</time>
      </trkpt>
      <trkpt lat="48.73151" lon="2.55212">
        <ele>135.861</ele>
        <time>2017-10-08T10:31:21Z</time>
      </trkpt>
      <trkpt lat="48.73131" lon="2.55224">
        <ele>135.563</ele>
        <time>2017-10-08T10:31:38Z</time>
      </trkpt>
      <trkpt lat="48.73119" lon="2.55226">
        <ele>135.35</ele>
        <time>2017-10-08T10:31:48Z</time>
      </trkpt>
      <trkpt lat="48.731" lon="2.55223">
        <ele>134.927</ele>
        <time>2017-10-08T10:32:06Z</time>
      </trkpt>
      <trkpt lat="48.73084" lon="2.55221">
        <ele>134.562</ele>
        <time>2017-10-08T10:32:20Z</time>
      </trkpt>
      <trkpt lat="48.73084" lon="2.55221">
        <ele>68</ele>
        <time>2017-10-08T10:32:28Z</time>
      </trkpt>
      <trkpt lat="48.73084" lon="2.55221">
        <ele>68</ele>
        <time>2017-10-08T10:32:35Z</time>
      </trkpt>
      <trkpt lat="48.73076" lon="2.5521">
        <ele>134.16</ele>
        <time>2017-10-08T10:32:35Z</time>
      </trkpt>
      <trkpt lat="48.73062" lon="2.55175">
        <ele>133.701</ele>
        <time>2017-10-08T10:32:53Z</time>
      </trkpt>
      <trkpt lat="48.7306" lon="2.55148">
        <ele>133.282</ele>
        <time>2017-10-08T10:33:11Z</time>
      </trkpt>
      <trkpt lat="48.73057" lon="2.55131">
        <ele>133.105</ele>
        <time>2017-10-08T10:33:19Z</time>
      </trkpt>
      <trkpt lat="48.73057" lon="2.55106">
        <ele>132.843</ele>
        <time>2017-10-08T10:33:30Z</time>
      </trkpt>
      <trkpt lat="48.73055" lon="2.55098">
        <ele>132.748</ele>
        <time>2017-10-08T10:33:34Z</time>
      </trkpt>
      <trkpt lat="48.73055" lon="2.55098">
        <ele>61</ele>
        <time>2017-10-08T10:33:41Z</time>
      </trkpt>
      <trkpt lat="48.73055" lon="2.55098">
        <ele>61</ele>
        <time>2017-10-08T10:50:51Z</time>
      </trkpt>
      <trkpt lat="48.73044" lon="2.55027">
        <ele>115.582</ele>
        <time>2017-10-08T11:12:32Z</time>
      </trkpt>
      <trkpt lat="48.73052" lon="2.55061">
        <ele>115.576</ele>
        <time>2017-10-08T11:12:42Z</time>
      </trkpt>
      <trkpt lat="48.73052" lon="2.55061">
        <ele>115.576</ele>
        <time>2017-10-08T11:12:49Z</time>
      </trkpt>
      <trkpt lat="48.73052" lon="2.55061">
        <ele>60.7</ele>
        <time>2017-10-08T11:12:49Z</time>
      </trkpt>
      <trkpt lat="48.73052" lon="2.55061">
        <ele>60.7</ele>
        <time>2017-10-08T11:12:59Z</time>
      </trkpt>
      <trkpt lat="48.73055" lon="2.55081">
        <ele>115.563</ele>
        <time>2017-10-08T11:12:59Z</time>
      </trkpt>
      <trkpt lat="48.73055" lon="2.55081">
        <ele>115.563</ele>
        <time>2017-10-08T11:15:02Z</time>
      </trkpt>
      <trkpt lat="48.73029" lon="2.5505">
        <ele>99.3858</ele>
        <time>2017-10-08T11:25:12Z</time>
      </trkpt>
      <trkpt lat="48.73029" lon="2.5505">
        <ele>99.3858</ele>
        <time>2017-10-08T11:25:19Z</time>
      </trkpt>
      <trkpt lat="48.73029" lon="2.5505">
        <ele>59.2</ele>
        <time>2017-10-08T11:25:19Z</time>
      </trkpt>
      <trkpt lat="48.73029" lon="2.5505">
        <ele>59.2</ele>
        <time>2017-10-08T11:25:35Z</time>
      </trkpt>
      <trkpt lat="48.73021" lon="2.55032">
        <ele>98.0257</ele>
        <time>2017-10-08T11:25:35Z</time>
      </trkpt>
      <trkpt lat="48.73016" lon="2.55013">
        <ele>97.6207</ele>
        <time>2017-10-08T11:25:46Z</time>
      </trkpt>
      <trkpt lat="48.73006" lon="2.54988">
        <ele>97.2149</ele>
        <time>2017-10-08T11:25:58Z</time>
      </trkpt>
      <trkpt lat="48.72996" lon="2.54976">
        <ele>96.9255</ele>
        <time>2017-10-08T11:26:09Z</time>
      </trkpt>
      <trkpt lat="48.72989" lon="2.54961">
        <ele>96.6842</ele>
        <time>2017-10-08T11:26:22Z</time>
      </trkpt>
      <trkpt lat="48.72976" lon="2.54948">
        <ele>96.5211</ele>
        <time>2017-10-08T11:26:33Z</time>
      </trkpt>
      <trkpt lat="48.72967" lon="2.54928">
        <ele>96.3977</ele>
        <time>2017-10-08T11:26:43Z</time>
      </trkpt>
      <trkpt lat="48.72966" lon="2.54895">
        <ele>96.2657</ele>
        <time>2017-10-08T11:26:56Z</time>
      </trkpt>
      <trkpt lat="48.72959" lon="2.5487">
        <ele>96.0889</ele>
        <time>2017-10-08T11:27:08Z</time>
      </trkpt>
      <trkpt lat="48.72951" lon="2.54852">
        <ele>95.9547</ele>
        <time>2017-10-08T11:27:19Z</time>
      </trkpt>
      <trkpt lat="48.72942" lon="2.54828">
        <ele>95.9106</ele>
        <time>2017-10-08T11:27:34Z</time>
      </trkpt>
      <trkpt lat="48.72938" lon="2.54799">
        <ele>96.0143</ele>
        <time>2017-10-08T11:27:49Z</time>
      </trkpt>
      <trkpt lat="48.72936" lon="2.54777">
        <ele>96.1691</ele>
        <time>2017-10-08T11:28:01Z</time>
      </trkpt>
      <trkpt lat="48.72937" lon="2.54756">
        <ele>96.3454</ele>
        <time>2017-10-08T11:28:11Z</time>
      </trkpt>
      <trkpt lat="48.72938" lon="2.54735">
        <ele>96.607</ele>
        <time>2017-10-08T11:28:24Z</time>
      </trkpt>
      <trkpt lat="48.72936" lon="2.54704">
        <ele>96.8932</ele>
        <time>2017-10-08T11:28:41Z</time>
      </trkpt>
      <trkpt lat="48.7293" lon="2.54674">
        <ele>97.1231</ele>
        <time>2017-10-08T11:28:58Z</time>
      </trkpt>
      <trkpt lat="48.72927" lon="2.54648">
        <ele>97.3116</ele>
        <time>2017-10-08T11:29:14Z</time>
      </trkpt>
      <trkpt lat="48.72916" lon="2.54631">
        <ele>97.5555</ele>
        <time>2017-10-08T11:29:30Z</time>
      </trkpt>
      <trkpt lat="48.72904" lon="2.5461">
        <ele>97.7997</ele>
        <time>2017-10-08T11:29:44Z</time>
      </trkpt>
      <trkpt lat="48.72891" lon="2.54595">
        <ele>97.9229</ele>
        <time>2017-10-08T11:29:52Z</time>
      </trkpt>
      <trkpt lat="48.72876" lon="2.54581">
        <ele>98.136</ele>
        <time>2017-10-08T11:30:05Z</time>
      </trkpt>
      <trkpt lat="48.72861" lon="2.54567">
        <ele>98.4135</ele>
        <time>2017-10-08T11:30:19Z</time>
      </trkpt>
      <trkpt lat="48.72841" lon="2.54571">
        <ele>98.7444</ele>
        <time>2017-10-08T11:30:38Z</time>
      </trkpt>
      <trkpt lat="48.72825" lon="2.54575">
        <ele>98.8729</ele>
        <time>2017-10-08T11:30:49Z</time>
      </trkpt>
      <trkpt lat="48.72816" lon="2.54568">
        <ele>98.9828</ele>
        <time>2017-10-08T11:31:00Z</time>
      </trkpt>
      <trkpt lat="48.72802" lon="2.54559">
        <ele>99.0752</ele>
        <time>2017-10-08T11:31:15Z</time>
      </trkpt>
      <trkpt lat="48.7279" lon="2.54547">
        <ele>99.0939</ele>
        <time>2017-10-08T11:31:25Z</time>
      </trkpt>
      <trkpt lat="48.72761" lon="2.54544">
        <ele>99.147</ele>
        <time>2017-10-08T11:31:51Z</time>
      </trkpt>
      <trkpt lat="48.72738" lon="2.54544">
        <ele>99.1425</ele>
        <time>2017-10-08T11:32:06Z</time>
      </trkpt>
      <trkpt lat="48.72723" lon="2.5455">
        <ele>99.172</ele>
        <time>2017-10-08T11:32:21Z</time>
      </trkpt>
      <trkpt lat="48.72713" lon="2.54548">
        <ele>99.1933</ele>
        <time>2017-10-08T11:32:30Z</time>
      </trkpt>
      <trkpt lat="48.72692" lon="2.5454">
        <ele>99.1842</ele>
        <time>2017-10-08T11:32:46Z</time>
      </trkpt>
      <trkpt lat="48.72671" lon="2.54527">
        <ele>99.1822</ele>
        <time>2017-10-08T11:33:02Z</time>
      </trkpt>
      <trkpt lat="48.72661" lon="2.54512">
        <ele>99.1714</ele>
        <time>2017-10-08T11:33:10Z</time>
      </trkpt>
      <trkpt lat="48.72654" lon="2.54497">
        <ele>99.1485</ele>
        <time>2017-10-08T11:33:17Z</time>
      </trkpt>
      <trkpt lat="48.72644" lon="2.54487">
        <ele>99.1155</ele>
        <time>2017-10-08T11:33:25Z</time>
      </trkpt>
      <trkpt lat="48.72629" lon="2.5447">
        <ele>99.0575</ele>
        <time>2017-10-08T11:33:38Z</time>
      </trkpt>
      <trkpt lat="48.72617" lon="2.54451">
        <ele>99.0118</ele>
        <time>2017-10-08T11:33:50Z</time>
      </trkpt>
      <trkpt lat="48.72599" lon="2.5443">
        <ele>98.9891</ele>
        <time>2017-10-08T11:34:07Z</time>
      </trkpt>
      <trkpt lat="48.72591" lon="2.54414">
        <ele>99.0199</ele>
        <time>2017-10-08T11:34:16Z</time>
      </trkpt>
      <trkpt lat="48.72574" lon="2.54405">
        <ele>99.095</ele>
        <time>2017-10-08T11:34:33Z</time>
      </trkpt>
      <trkpt lat="48.7256" lon="2.54384">
        <ele>99.1438</ele>
        <time>2017-10-08T11:34:52Z</time>
      </trkpt>
      <trkpt lat="48.72564" lon="2.54348">
        <ele>99.2259</ele>
        <time>2017-10-08T11:35:12Z</time>
      </trkpt>
      <trkpt lat="48.72566" lon="2.54326">
        <ele>99.3215</ele>
        <time>2017-10-08T11:35:25Z</time>
      </trkpt>
      <trkpt lat="48.72569" lon="2.543">
        <ele>99.4208</ele>
        <time>2017-10-08T11:35:42Z</time>
      </trkpt>
      <trkpt lat="48.72581" lon="2.54265">
        <ele>99.5764</ele>
        <time>2017-10-08T11:36:01Z</time>
      </trkpt>
      <trkpt lat="48.72587" lon="2.54235">
        <ele>99.8255</ele>
        <time>2017-10-08T11:36:19Z</time>
      </trkpt>
      <trkpt lat="48.72594" lon="2.54204">
        <ele>100.156</ele>
        <time>2017-10-08T11:36:34Z</time>
      </trkpt>
      <trkpt lat="48.72599" lon="2.54179">
        <ele>100.523</ele>
        <time>2017-10-08T11:36:47Z</time>
      </trkpt>
      <trkpt lat="48.72602" lon="2.54153">
        <ele>100.856</ele>
        <time>2017-10-08T11:37:01Z</time>
      </trkpt>
      <trkpt lat="48.72605" lon="2.54122">
        <ele>101.16</ele>
        <time>2017-10-08T11:37:19Z</time>
      </trkpt>
      <trkpt lat="48.72612" lon="2.54084">
        <ele>101.43</ele>
        <time>2017-10-08T11:37:38Z</time>
      </trkpt>
      <trkpt lat="48.72613" lon="2.54061">
        <ele>101.567</ele>
        <time>2017-10-08T11:37:50Z</time>
      </trkpt>
      <trkpt lat="48.7261" lon="2.54037">
        <ele>101.806</ele>
        <time>2017-10-08T11:38:11Z</time>
      </trkpt>
      <trkpt lat="48.72615" lon="2.54015">
        <ele>102.002</ele>
        <time>2017-10-08T11:38:27Z</time>
      </trkpt>
      <trkpt lat="48.72621" lon="2.53978">
        <ele>102.245</ele>
        <time>2017-10-08T11:38:47Z</time>
      </trkpt>
      <trkpt lat="48.72622" lon="2.53955">
        <ele>102.46</ele>
        <time>2017-10-08T11:39:02Z</time>
      </trkpt>
      <trkpt lat="48.72624" lon="2.53934">
        <ele>102.653</ele>
        <time>2017-10-08T11:39:12Z</time>
      </trkpt>
      <trkpt lat="48.72628" lon="2.5391">
        <ele>103.002</ele>
        <time>2017-10-08T11:39:26Z</time>
      </trkpt>
      <trkpt lat="48.72633" lon="2.53885">
        <ele>103.375</ele>
        <time>2017-10-08T11:39:39Z</time>
      </trkpt>
      <trkpt lat="48.72636" lon="2.5387">
        <ele>103.578</ele>
        <time>2017-10-08T11:39:47Z</time>
      </trkpt>
      <trkpt lat="48.72638" lon="2.53841">
        <ele>103.869</ele>
        <time>2017-10-08T11:40:01Z</time>
      </trkpt>
      <trkpt lat="48.72637" lon="2.53811">
        <ele>104.1</ele>
        <time>2017-10-08T11:40:16Z</time>
      </trkpt>
      <trkpt lat="48.72639" lon="2.53789">
        <ele>104.263</ele>
        <time>2017-10-08T11:40:28Z</time>
      </trkpt>
      <trkpt lat="48.72639" lon="2.53769">
        <ele>104.379</ele>
        <time>2017-10-08T11:40:38Z</time>
      </trkpt>
      <trkpt lat="48.72639" lon="2.53736">
        <ele>104.548</ele>
        <time>2017-10-08T11:40:54Z</time>
      </trkpt>
      <trkpt lat="48.72638" lon="2.53702">
        <ele>104.704</ele>
        <time>2017-10-08T11:41:10Z</time>
      </trkpt>
      <trkpt lat="48.72637" lon="2.53674">
        <ele>104.82</ele>
        <time>2017-10-08T11:41:23Z</time>
      </trkpt>
      <trkpt lat="48.72634" lon="2.53654">
        <ele>104.999</ele>
        <time>2017-10-08T11:41:38Z</time>
      </trkpt>
      <trkpt lat="48.72634" lon="2.53654">
        <ele>104.999</ele>
        <time>2017-10-08T11:44:06Z</time>
      </trkpt>
      <trkpt lat="48.72629" lon="2.53613">
        <ele>105.593</ele>
        <time>2017-10-08T11:44:14Z</time>
      </trkpt>
      <trkpt lat="48.7263" lon="2.53587">
        <ele>105.868</ele>
        <time>2017-10-08T11:44:28Z</time>
      </trkpt>
      <trkpt lat="48.72627" lon="2.53562">
        <ele>106.098</ele>
        <time>2017-10-08T11:44:41Z</time>
      </trkpt>
      <trkpt lat="48.72623" lon="2.53539">
        <ele>106.286</ele>
        <time>2017-10-08T11:44:54Z</time>
      </trkpt>
      <trkpt lat="48.72627" lon="2.53496">
        <ele>107.42</ele>
        <time>2017-10-08T11:46:19Z</time>
      </trkpt>
      <trkpt lat="48.72626" lon="2.5347">
        <ele>107.833</ele>
        <time>2017-10-08T11:46:32Z</time>
      </trkpt>
      <trkpt lat="48.72628" lon="2.53437">
        <ele>108.236</ele>
        <time>2017-10-08T11:46:47Z</time>
      </trkpt>
      <trkpt lat="48.72627" lon="2.53414">
        <ele>108.491</ele>
        <time>2017-10-08T11:46:58Z</time>
      </trkpt>
      <trkpt lat="48.72625" lon="2.53386">
        <ele>108.822</ele>
        <time>2017-10-08T11:47:12Z</time>
      </trkpt>
      <trkpt lat="48.72625" lon="2.5336">
        <ele>109.127</ele>
        <time>2017-10-08T11:47:25Z</time>
      </trkpt>
      <trkpt lat="48.72626" lon="2.53337">
        <ele>109.359</ele>
        <time>2017-10-08T11:47:37Z</time>
      </trkpt>
      <trkpt lat="48.72625" lon="2.53316">
        <ele>109.519</ele>
        <time>2017-10-08T11:47:47Z</time>
      </trkpt>
      <trkpt lat="48.72626" lon="2.53287">
        <ele>109.707</ele>
        <time>2017-10-08T11:48:00Z</time>
      </trkpt>
      <trkpt lat="48.72625" lon="2.5326">
        <ele>109.882</ele>
        <time>2017-10-08T11:48:14Z</time>
      </trkpt>
      <trkpt lat="48.72626" lon="2.53231">
        <ele>110.007</ele>
        <time>2017-10-08T11:48:28Z</time>
      </trkpt>
      <trkpt lat="48.72627" lon="2.53214">
        <ele>110.063</ele>
        <time>2017-10-08T11:48:36Z</time>
      </trkpt>
      <trkpt lat="48.72628" lon="2.53185">
        <ele>110.167</ele>
        <time>2017-10-08T11:48:49Z</time>
      </trkpt>
      <trkpt lat="48.72615" lon="2.53177">
        <ele>110.281</ele>
        <time>2017-10-08T11:48:59Z</time>
      </trkpt>
      <trkpt lat="48.72607" lon="2.53164">
        <ele>110.482</ele>
        <time>2017-10-08T11:49:15Z</time>
      </trkpt>
      <trkpt lat="48.72618" lon="2.53134">
        <ele>110.659</ele>
        <time>2017-10-08T11:49:29Z</time>
      </trkpt>
      <trkpt lat="48.7262" lon="2.53109">
        <ele>110.822</ele>
        <time>2017-10-08T11:49:44Z</time>
      </trkpt>
      <trkpt lat="48.72623" lon="2.53075">
        <ele>111.019</ele>
        <time>2017-10-08T11:50:01Z</time>
      </trkpt>
      <trkpt lat="48.7263" lon="2.53045">
        <ele>111.222</ele>
        <time>2017-10-08T11:50:15Z</time>
      </trkpt>
      <trkpt lat="48.72633" lon="2.53025">
        <ele>111.338</ele>
        <time>2017-10-08T11:50:24Z</time>
      </trkpt>
      <trkpt lat="48.72637" lon="2.53007">
        <ele>111.435</ele>
        <time>2017-10-08T11:50:32Z</time>
      </trkpt>
      <trkpt lat="48.72642" lon="2.52985">
        <ele>111.58</ele>
        <time>2017-10-08T11:50:45Z</time>
      </trkpt>
      <trkpt lat="48.72649" lon="2.52962">
        <ele>111.703</ele>
        <time>2017-10-08T11:50:56Z</time>
      </trkpt>
      <trkpt lat="48.72653" lon="2.52947">
        <ele>111.789</ele>
        <time>2017-10-08T11:51:04Z</time>
      </trkpt>
      <trkpt lat="48.7266" lon="2.52923">
        <ele>111.917</ele>
        <time>2017-10-08T11:51:16Z</time>
      </trkpt>
      <trkpt lat="48.72671" lon="2.52897">
        <ele>112.054</ele>
        <time>2017-10-08T11:51:30Z</time>
      </trkpt>
      <trkpt lat="48.72679" lon="2.52872">
        <ele>112.15</ele>
        <time>2017-10-08T11:51:42Z</time>
      </trkpt>
      <trkpt lat="48.72684" lon="2.52857">
        <ele>112.204</ele>
        <time>2017-10-08T11:51:50Z</time>
      </trkpt>
      <trkpt lat="48.72692" lon="2.52835">
        <ele>112.272</ele>
        <time>2017-10-08T11:52:02Z</time>
      </trkpt>
      <trkpt lat="48.72697" lon="2.52821">
        <ele>112.309</ele>
        <time>2017-10-08T11:52:11Z</time>
      </trkpt>
      <trkpt lat="48.72704" lon="2.52801">
        <ele>112.349</ele>
        <time>2017-10-08T11:52:21Z</time>
      </trkpt>
      <trkpt lat="48.72715" lon="2.5279">
        <ele>112.382</ele>
        <time>2017-10-08T11:52:31Z</time>
      </trkpt>
      <trkpt lat="48.72728" lon="2.52779">
        <ele>112.432</ele>
        <time>2017-10-08T11:52:41Z</time>
      </trkpt>
      <trkpt lat="48.72737" lon="2.52755">
        <ele>112.519</ele>
        <time>2017-10-08T11:52:55Z</time>
      </trkpt>
      <trkpt lat="48.72749" lon="2.52729">
        <ele>112.642</ele>
        <time>2017-10-08T11:53:12Z</time>
      </trkpt>
      <trkpt lat="48.72758" lon="2.5271">
        <ele>112.73</ele>
        <time>2017-10-08T11:53:22Z</time>
      </trkpt>
      <trkpt lat="48.72769" lon="2.52686">
        <ele>112.861</ele>
        <time>2017-10-08T11:53:36Z</time>
      </trkpt>
      <trkpt lat="48.72772" lon="2.52679">
        <ele>112.91</ele>
        <time>2017-10-08T11:53:41Z</time>
      </trkpt>
      <trkpt lat="48.72772" lon="2.52679">
        <ele>93</ele>
        <time>2017-10-08T11:53:47Z</time>
      </trkpt>
      <trkpt lat="48.72772" lon="2.52679">
        <ele>93</ele>
        <time>2017-10-08T11:53:52Z</time>
      </trkpt>
      <trkpt lat="48.72779" lon="2.52673">
        <ele>113.023</ele>
        <time>2017-10-08T11:53:52Z</time>
      </trkpt>
      <trkpt lat="48.72793" lon="2.52654">
        <ele>113.227</ele>
        <time>2017-10-08T11:54:09Z</time>
      </trkpt>
      <trkpt lat="48.728" lon="2.52632">
        <ele>113.373</ele>
        <time>2017-10-08T11:54:22Z</time>
      </trkpt>
      <trkpt lat="48.72811" lon="2.52607">
        <ele>113.538</ele>
        <time>2017-10-08T11:54:37Z</time>
      </trkpt>
      <trkpt lat="48.72819" lon="2.52585">
        <ele>113.65</ele>
        <time>2017-10-08T11:54:48Z</time>
      </trkpt>
      <trkpt lat="48.72826" lon="2.52567">
        <ele>113.774</ele>
        <time>2017-10-08T11:55:01Z</time>
      </trkpt>
      <trkpt lat="48.72821" lon="2.52549">
        <ele>113.922</ele>
        <time>2017-10-08T11:55:15Z</time>
      </trkpt>
      <trkpt lat="48.72827" lon="2.52521">
        <ele>114.074</ele>
        <time>2017-10-08T11:55:28Z</time>
      </trkpt>
      <trkpt lat="48.72833" lon="2.52502">
        <ele>114.171</ele>
        <time>2017-10-08T11:55:37Z</time>
      </trkpt>
      <trkpt lat="48.72838" lon="2.5248">
        <ele>114.269</ele>
        <time>2017-10-08T11:55:48Z</time>
      </trkpt>
      <trkpt lat="48.72849" lon="2.52449">
        <ele>114.358</ele>
        <time>2017-10-08T11:56:04Z</time>
      </trkpt>
      <trkpt lat="48.72856" lon="2.52416">
        <ele>114.415</ele>
        <time>2017-10-08T11:56:20Z</time>
      </trkpt>
      <trkpt lat="48.72862" lon="2.52391">
        <ele>114.433</ele>
        <time>2017-10-08T11:56:33Z</time>
      </trkpt>
      <trkpt lat="48.72871" lon="2.52368">
        <ele>114.428</ele>
        <time>2017-10-08T11:56:45Z</time>
      </trkpt>
      <trkpt lat="48.72883" lon="2.52338">
        <ele>114.418</ele>
        <time>2017-10-08T11:57:01Z</time>
      </trkpt>
      <trkpt lat="48.72897" lon="2.5231">
        <ele>114.444</ele>
        <time>2017-10-08T11:57:17Z</time>
      </trkpt>
      <trkpt lat="48.72905" lon="2.52292">
        <ele>114.457</ele>
        <time>2017-10-08T11:57:27Z</time>
      </trkpt>
      <trkpt lat="48.72914" lon="2.5227">
        <ele>114.475</ele>
        <time>2017-10-08T11:57:39Z</time>
      </trkpt>
      <trkpt lat="48.72923" lon="2.52243">
        <ele>114.475</ele>
        <time>2017-10-08T11:57:53Z</time>
      </trkpt>
      <trkpt lat="48.7293" lon="2.52214">
        <ele>114.561</ele>
        <time>2017-10-08T11:58:09Z</time>
      </trkpt>
      <trkpt lat="48.72936" lon="2.52193">
        <ele>114.727</ele>
        <time>2017-10-08T11:58:20Z</time>
      </trkpt>
      <trkpt lat="48.72944" lon="2.52173">
        <ele>114.961</ele>
        <time>2017-10-08T11:58:31Z</time>
      </trkpt>
      <trkpt lat="48.72951" lon="2.52149">
        <ele>115.254</ele>
        <time>2017-10-08T11:58:44Z</time>
      </trkpt>
      <trkpt lat="48.72956" lon="2.52138">
        <ele>115.384</ele>
        <time>2017-10-08T11:58:50Z</time>
      </trkpt>
      <trkpt lat="48.72956" lon="2.52138">
        <ele>92.2</ele>
        <time>2017-10-08T11:58:55Z</time>
      </trkpt>
      <trkpt lat="48.72956" lon="2.52138">
        <ele>92.2</ele>
        <time>2017-10-08T12:02:57Z</time>
      </trkpt>
      <trkpt lat="48.72962" lon="2.52103">
        <ele>116.66</ele>
        <time>2017-10-08T12:02:57Z</time>
      </trkpt>
      <trkpt lat="48.72971" lon="2.5208">
        <ele>116.99</ele>
        <time>2017-10-08T12:03:11Z</time>
      </trkpt>
      <trkpt lat="48.72988" lon="2.52051">
        <ele>117.296</ele>
        <time>2017-10-08T12:03:26Z</time>
      </trkpt>
      <trkpt lat="48.73001" lon="2.52028">
        <ele>117.554</ele>
        <time>2017-10-08T12:03:42Z</time>
      </trkpt>
      <trkpt lat="48.7301" lon="2.52002">
        <ele>117.754</ele>
        <time>2017-10-08T12:03:58Z</time>
      </trkpt>
      <trkpt lat="48.73016" lon="2.51987">
        <ele>117.89</ele>
        <time>2017-10-08T12:04:08Z</time>
      </trkpt>
      <trkpt lat="48.73024" lon="2.51965">
        <ele>118.126</ele>
        <time>2017-10-08T12:04:23Z</time>
      </trkpt>
      <trkpt lat="48.73038" lon="2.51938">
        <ele>118.338</ele>
        <time>2017-10-08T12:04:38Z</time>
      </trkpt>
      <trkpt lat="48.73047" lon="2.51917">
        <ele>118.461</ele>
        <time>2017-10-08T12:04:51Z</time>
      </trkpt>
      <trkpt lat="48.73056" lon="2.51899">
        <ele>118.52</ele>
        <time>2017-10-08T12:05:02Z</time>
      </trkpt>
      <trkpt lat="48.73066" lon="2.5187">
        <ele>118.562</ele>
        <time>2017-10-08T12:05:21Z</time>
      </trkpt>
      <trkpt lat="48.73077" lon="2.5185">
        <ele>118.591</ele>
        <time>2017-10-08T12:05:34Z</time>
      </trkpt>
      <trkpt lat="48.73085" lon="2.5183">
        <ele>118.606</ele>
        <time>2017-10-08T12:05:46Z</time>
      </trkpt>
      <trkpt lat="48.73095" lon="2.51803">
        <ele>118.632</ele>
        <time>2017-10-08T12:06:00Z</time>
      </trkpt>
      <trkpt lat="48.73101" lon="2.51787">
        <ele>118.709</ele>
        <time>2017-10-08T12:06:10Z</time>
      </trkpt>
      <trkpt lat="48.73117" lon="2.51753">
        <ele>118.908</ele>
        <time>2017-10-08T12:06:28Z</time>
      </trkpt>
      <trkpt lat="48.73124" lon="2.51736">
        <ele>119.014</ele>
        <time>2017-10-08T12:06:38Z</time>
      </trkpt>
      <trkpt lat="48.73136" lon="2.51709">
        <ele>119.158</ele>
        <time>2017-10-08T12:06:53Z</time>
      </trkpt>
      <trkpt lat="48.7315" lon="2.51675">
        <ele>119.315</ele>
        <time>2017-10-08T12:07:09Z</time>
      </trkpt>
      <trkpt lat="48.73161" lon="2.51648">
        <ele>119.418</ele>
        <time>2017-10-08T12:07:23Z</time>
      </trkpt>
      <trkpt lat="48.73169" lon="2.51633">
        <ele>119.451</ele>
        <time>2017-10-08T12:07:32Z</time>
      </trkpt>
      <trkpt lat="48.73181" lon="2.51604">
        <ele>119.444</ele>
        <time>2017-10-08T12:07:48Z</time>
      </trkpt>
      <trkpt lat="48.73187" lon="2.51588">
        <ele>119.428</ele>
        <time>2017-10-08T12:07:56Z</time>
      </trkpt>
      <trkpt lat="48.73196" lon="2.51562">
        <ele>119.393</ele>
        <time>2017-10-08T12:08:10Z</time>
      </trkpt>
      <trkpt lat="48.73203" lon="2.51538">
        <ele>119.359</ele>
        <time>2017-10-08T12:08:22Z</time>
      </trkpt>
      <trkpt lat="48.73209" lon="2.51525">
        <ele>119.339</ele>
        <time>2017-10-08T12:08:30Z</time>
      </trkpt>
      <trkpt lat="48.73219" lon="2.51495">
        <ele>119.387</ele>
        <time>2017-10-08T12:08:46Z</time>
      </trkpt>
      <trkpt lat="48.73225" lon="2.51476">
        <ele>119.441</ele>
        <time>2017-10-08T12:08:56Z</time>
      </trkpt>
      <trkpt lat="48.73228" lon="2.51463">
        <ele>119.485</ele>
        <time>2017-10-08T12:09:03Z</time>
      </trkpt>
      <trkpt lat="48.73238" lon="2.51438">
        <ele>119.543</ele>
        <time>2017-10-08T12:09:15Z</time>
      </trkpt>
      <trkpt lat="48.73246" lon="2.5141">
        <ele>119.582</ele>
        <time>2017-10-08T12:09:29Z</time>
      </trkpt>
      <trkpt lat="48.7325" lon="2.51395">
        <ele>119.594</ele>
        <time>2017-10-08T12:09:36Z</time>
      </trkpt>
      <trkpt lat="48.73257" lon="2.51364">
        <ele>119.584</ele>
        <time>2017-10-08T12:09:52Z</time>
      </trkpt>
      <trkpt lat="48.73265" lon="2.51336">
        <ele>119.564</ele>
        <time>2017-10-08T12:10:06Z</time>
      </trkpt>
      <trkpt lat="48.73276" lon="2.51316">
        <ele>119.535</ele>
        <time>2017-10-08T12:10:20Z</time>
      </trkpt>
      <trkpt lat="48.73285" lon="2.513">
        <ele>119.54</ele>
        <time>2017-10-08T12:10:31Z</time>
      </trkpt>
      <trkpt lat="48.73295" lon="2.51273">
        <ele>119.617</ele>
        <time>2017-10-08T12:10:46Z</time>
      </trkpt>
      <trkpt lat="48.73297" lon="2.51261">
        <ele>119.643</ele>
        <time>2017-10-08T12:10:53Z</time>
      </trkpt>
      <trkpt lat="48.73297" lon="2.51261">
        <ele>91.7</ele>
        <time>2017-10-08T12:11:00Z</time>
      </trkpt>
      <trkpt lat="48.73297" lon="2.51261">
        <ele>91.7</ele>
        <time>2017-10-08T12:11:05Z</time>
      </trkpt>
      <trkpt lat="48.73304" lon="2.5125">
        <ele>119.688</ele>
        <time>2017-10-08T12:11:05Z</time>
      </trkpt>
      <trkpt lat="48.73322" lon="2.51235">
        <ele>119.762</ele>
        <time>2017-10-08T12:11:20Z</time>
      </trkpt>
      <trkpt lat="48.73341" lon="2.51226">
        <ele>119.878</ele>
        <time>2017-10-08T12:11:37Z</time>
      </trkpt>
      <trkpt lat="48.73364" lon="2.51225">
        <ele>120.032</ele>
        <time>2017-10-08T12:11:53Z</time>
      </trkpt>
      <trkpt lat="48.73385" lon="2.51224">
        <ele>120.204</ele>
        <time>2017-10-08T12:12:07Z</time>
      </trkpt>
      <trkpt lat="48.73406" lon="2.51222">
        <ele>120.42</ele>
        <time>2017-10-08T12:12:21Z</time>
      </trkpt>
      <trkpt lat="48.73412" lon="2.51219">
        <ele>120.491</ele>
        <time>2017-10-08T12:12:25Z</time>
      </trkpt>
      <trkpt lat="48.73412" lon="2.51219">
        <ele>91</ele>
        <time>2017-10-08T12:12:30Z</time>
      </trkpt>
      <trkpt lat="48.73412" lon="2.51219">
        <ele>91</ele>
        <time>2017-10-08T12:12:35Z</time>
      </trkpt>
      <trkpt lat="48.73422" lon="2.5122">
        <ele>120.706</ele>
        <time>2017-10-08T12:12:35Z</time>
      </trkpt>
      <trkpt lat="48.73436" lon="2.51223">
        <ele>120.967</ele>
        <time>2017-10-08T12:12:45Z</time>
      </trkpt>
      <trkpt lat="48.73456" lon="2.51222">
        <ele>121.425</ele>
        <time>2017-10-08T12:13:00Z</time>
      </trkpt>
      <trkpt lat="48.73476" lon="2.51225">
        <ele>121.845</ele>
        <time>2017-10-08T12:13:13Z</time>
      </trkpt>
      <trkpt lat="48.735" lon="2.51222">
        <ele>122.39</ele>
        <time>2017-10-08T12:13:31Z</time>
      </trkpt>
      <trkpt lat="48.73516" lon="2.51223">
        <ele>122.699</ele>
        <time>2017-10-08T12:13:42Z</time>
      </trkpt>
      <trkpt lat="48.73536" lon="2.51221">
        <ele>123.057</ele>
        <time>2017-10-08T12:13:56Z</time>
      </trkpt>
      <trkpt lat="48.73549" lon="2.51218">
        <ele>123.28</ele>
        <time>2017-10-08T12:14:05Z</time>
      </trkpt>
      <trkpt lat="48.73566" lon="2.51217">
        <ele>123.594</ele>
        <time>2017-10-08T12:14:18Z</time>
      </trkpt>
      <trkpt lat="48.73582" lon="2.51213">
        <ele>123.787</ele>
        <time>2017-10-08T12:14:26Z</time>
      </trkpt>
      <trkpt lat="48.73598" lon="2.51218">
        <ele>124.085</ele>
        <time>2017-10-08T12:14:38Z</time>
      </trkpt>
      <trkpt lat="48.73607" lon="2.51201">
        <ele>124.369</ele>
        <time>2017-10-08T12:14:53Z</time>
      </trkpt>
      <trkpt lat="48.73617" lon="2.5117">
        <ele>124.576</ele>
        <time>2017-10-08T12:15:11Z</time>
      </trkpt>
      <trkpt lat="48.73624" lon="2.51135">
        <ele>124.785</ele>
        <time>2017-10-08T12:15:28Z</time>
      </trkpt>
      <trkpt lat="48.73628" lon="2.51118">
        <ele>124.893</ele>
        <time>2017-10-08T12:15:36Z</time>
      </trkpt>
      <trkpt lat="48.73633" lon="2.51091">
        <ele>125.06</ele>
        <time>2017-10-08T12:15:49Z</time>
      </trkpt>
      <trkpt lat="48.73633" lon="2.51068">
        <ele>125.233</ele>
        <time>2017-10-08T12:16:00Z</time>
      </trkpt>
      <trkpt lat="48.73638" lon="2.51042">
        <ele>125.498</ele>
        <time>2017-10-08T12:16:13Z</time>
      </trkpt>
      <trkpt lat="48.73642" lon="2.51019">
        <ele>125.721</ele>
        <time>2017-10-08T12:16:24Z</time>
      </trkpt>
      <trkpt lat="48.73644" lon="2.51">
        <ele>125.875</ele>
        <time>2017-10-08T12:16:33Z</time>
      </trkpt>
      <trkpt lat="48.7365" lon="2.50968">
        <ele>126.082</ele>
        <time>2017-10-08T12:16:48Z</time>
      </trkpt>
      <trkpt lat="48.73654" lon="2.50943">
        <ele>126.238</ele>
        <time>2017-10-08T12:17:03Z</time>
      </trkpt>
      <trkpt lat="48.73661" lon="2.5091">
        <ele>126.398</ele>
        <time>2017-10-08T12:17:18Z</time>
      </trkpt>
      <trkpt lat="48.73668" lon="2.50898">
        <ele>126.471</ele>
        <time>2017-10-08T12:17:25Z</time>
      </trkpt>
      <trkpt lat="48.73677" lon="2.50878">
        <ele>126.579</ele>
        <time>2017-10-08T12:17:35Z</time>
      </trkpt>
      <trkpt lat="48.73685" lon="2.50854">
        <ele>126.747</ele>
        <time>2017-10-08T12:17:49Z</time>
      </trkpt>
      <trkpt lat="48.73684" lon="2.50833">
        <ele>126.92</ele>
        <time>2017-10-08T12:18:04Z</time>
      </trkpt>
      <trkpt lat="48.73676" lon="2.50799">
        <ele>127.121</ele>
        <time>2017-10-08T12:18:22Z</time>
      </trkpt>
      <trkpt lat="48.7367" lon="2.50777">
        <ele>127.27</ele>
        <time>2017-10-08T12:18:34Z</time>
      </trkpt>
      <trkpt lat="48.73666" lon="2.5076">
        <ele>127.385</ele>
        <time>2017-10-08T12:18:43Z</time>
      </trkpt>
      <trkpt lat="48.73659" lon="2.50737">
        <ele>127.547</ele>
        <time>2017-10-08T12:18:54Z</time>
      </trkpt>
      <trkpt lat="48.73649" lon="2.5071">
        <ele>127.751</ele>
        <time>2017-10-08T12:19:07Z</time>
      </trkpt>
      <trkpt lat="48.7364" lon="2.5068">
        <ele>127.962</ele>
        <time>2017-10-08T12:19:21Z</time>
      </trkpt>
      <trkpt lat="48.73643" lon="2.50662">
        <ele>128.073</ele>
        <time>2017-10-08T12:19:29Z</time>
      </trkpt>
      <trkpt lat="48.73647" lon="2.50646">
        <ele>128.171</ele>
        <time>2017-10-08T12:19:37Z</time>
      </trkpt>
      <trkpt lat="48.7365" lon="2.50627">
        <ele>128.258</ele>
        <time>2017-10-08T12:19:44Z</time>
      </trkpt>
      <trkpt lat="48.73657" lon="2.50594">
        <ele>128.435</ele>
        <time>2017-10-08T12:19:58Z</time>
      </trkpt>
      <trkpt lat="48.73661" lon="2.5057">
        <ele>128.553</ele>
        <time>2017-10-08T12:20:09Z</time>
      </trkpt>
      <trkpt lat="48.73665" lon="2.50545">
        <ele>128.658</ele>
        <time>2017-10-08T12:20:22Z</time>
      </trkpt>
      <trkpt lat="48.7367" lon="2.50517">
        <ele>128.798</ele>
        <time>2017-10-08T12:20:37Z</time>
      </trkpt>
      <trkpt lat="48.7368" lon="2.50486">
        <ele>128.963</ele>
        <time>2017-10-08T12:20:53Z</time>
      </trkpt>
      <trkpt lat="48.73688" lon="2.50467">
        <ele>129.036</ele>
        <time>2017-10-08T12:21:02Z</time>
      </trkpt>
      <trkpt lat="48.73695" lon="2.50442">
        <ele>129.122</ele>
        <time>2017-10-08T12:21:15Z</time>
      </trkpt>
      <trkpt lat="48.73701" lon="2.50417">
        <ele>129.229</ele>
        <time>2017-10-08T12:21:28Z</time>
      </trkpt>
      <trkpt lat="48.73708" lon="2.50394">
        <ele>129.374</ele>
        <time>2017-10-08T12:21:41Z</time>
      </trkpt>
      <trkpt lat="48.73717" lon="2.50364">
        <ele>129.582</ele>
        <time>2017-10-08T12:21:57Z</time>
      </trkpt>
      <trkpt lat="48.73725" lon="2.5034">
        <ele>129.795</ele>
        <time>2017-10-08T12:22:12Z</time>
      </trkpt>
      <trkpt lat="48.7373" lon="2.50301">
        <ele>130.002</ele>
        <time>2017-10-08T12:22:29Z</time>
      </trkpt>
      <trkpt lat="48.73729" lon="2.50294">
        <ele>130.021</ele>
        <time>2017-10-08T12:22:33Z</time>
      </trkpt>
      <trkpt lat="48.73729" lon="2.50294">
        <ele>91.7</ele>
        <time>2017-10-08T12:22:38Z</time>
      </trkpt>
      <trkpt lat="48.73729" lon="2.50294">
        <ele>91.7</ele>
        <time>2017-10-08T12:22:43Z</time>
      </trkpt>
      <trkpt lat="48.7372" lon="2.50294">
        <ele>130.013</ele>
        <time>2017-10-08T12:22:43Z</time>
      </trkpt>
      <trkpt lat="48.7372" lon="2.50294">
        <ele>130.013</ele>
        <time>2017-10-08T12:22:51Z</time>
      </trkpt>
      <trkpt lat="48.7372" lon="2.50294">
        <ele>91.6</ele>
        <time>2017-10-08T12:22:51Z</time>
      </trkpt>
      <trkpt lat="48.7372" lon="2.50294">
        <ele>91.6</ele>
        <time>2017-10-08T12:23:01Z</time>
      </trkpt>
      <trkpt lat="48.73706" lon="2.50301">
        <ele>129.915</ele>
        <time>2017-10-08T12:23:01Z</time>
      </trkpt>
      <trkpt lat="48.73695" lon="2.50305">
        <ele>129.892</ele>
        <time>2017-10-08T12:23:12Z</time>
      </trkpt>
      <trkpt lat="48.73671" lon="2.50306">
        <ele>129.902</ele>
        <time>2017-10-08T12:23:29Z</time>
      </trkpt>
      <trkpt lat="48.73653" lon="2.50305">
        <ele>129.947</ele>
        <time>2017-10-08T12:23:42Z</time>
      </trkpt>
      <trkpt lat="48.73639" lon="2.50305">
        <ele>130.006</ele>
        <time>2017-10-08T12:23:54Z</time>
      </trkpt>
      <trkpt lat="48.73612" lon="2.5031">
        <ele>130.195</ele>
        <time>2017-10-08T12:24:13Z</time>
      </trkpt>
      <trkpt lat="48.7359" lon="2.50312">
        <ele>130.48</ele>
        <time>2017-10-08T12:24:29Z</time>
      </trkpt>
      <trkpt lat="48.73571" lon="2.50313">
        <ele>130.746</ele>
        <time>2017-10-08T12:24:41Z</time>
      </trkpt>
      <trkpt lat="48.73554" lon="2.50316">
        <ele>130.985</ele>
        <time>2017-10-08T12:24:52Z</time>
      </trkpt>
      <trkpt lat="48.73545" lon="2.50317">
        <ele>131.108</ele>
        <time>2017-10-08T12:24:58Z</time>
      </trkpt>
      <trkpt lat="48.73534" lon="2.50316">
        <ele>131.245</ele>
        <time>2017-10-08T12:25:05Z</time>
      </trkpt>
      <trkpt lat="48.73516" lon="2.50314">
        <ele>131.361</ele>
        <time>2017-10-08T12:25:14Z</time>
      </trkpt>
      <trkpt lat="48.735" lon="2.50318">
        <ele>131.472</ele>
        <time>2017-10-08T12:25:26Z</time>
      </trkpt>
      <trkpt lat="48.7348" lon="2.50324">
        <ele>131.552</ele>
        <time>2017-10-08T12:25:37Z</time>
      </trkpt>
      <trkpt lat="48.73462" lon="2.50326">
        <ele>131.676</ele>
        <time>2017-10-08T12:25:50Z</time>
      </trkpt>
      <trkpt lat="48.73441" lon="2.50327">
        <ele>131.865</ele>
        <time>2017-10-08T12:26:06Z</time>
      </trkpt>
      <trkpt lat="48.73422" lon="2.5033">
        <ele>131.985</ele>
        <time>2017-10-08T12:26:18Z</time>
      </trkpt>
      <trkpt lat="48.73396" lon="2.5032">
        <ele>132.194</ele>
        <time>2017-10-08T12:26:36Z</time>
      </trkpt>
      <trkpt lat="48.73385" lon="2.50317">
        <ele>132.294</ele>
        <time>2017-10-08T12:26:43Z</time>
      </trkpt>
      <trkpt lat="48.73357" lon="2.50315">
        <ele>132.484</ele>
        <time>2017-10-08T12:26:57Z</time>
      </trkpt>
      <trkpt lat="48.73344" lon="2.5031">
        <ele>132.65</ele>
        <time>2017-10-08T12:27:12Z</time>
      </trkpt>
      <trkpt lat="48.73351" lon="2.50282">
        <ele>132.789</ele>
        <time>2017-10-08T12:27:27Z</time>
      </trkpt>
      <trkpt lat="48.73349" lon="2.50258">
        <ele>132.877</ele>
        <time>2017-10-08T12:27:37Z</time>
      </trkpt>
      <trkpt lat="48.73349" lon="2.50243">
        <ele>132.947</ele>
        <time>2017-10-08T12:27:46Z</time>
      </trkpt>
      <trkpt lat="48.7335" lon="2.5022">
        <ele>133.009</ele>
        <time>2017-10-08T12:27:59Z</time>
      </trkpt>
      <trkpt lat="48.73352" lon="2.50194">
        <ele>133.053</ele>
        <time>2017-10-08T12:28:12Z</time>
      </trkpt>
      <trkpt lat="48.73355" lon="2.50161">
        <ele>133.097</ele>
        <time>2017-10-08T12:28:27Z</time>
      </trkpt>
      <trkpt lat="48.7336" lon="2.5012">
        <ele>133.062</ele>
        <time>2017-10-08T12:28:45Z</time>
      </trkpt>
      <trkpt lat="48.73365" lon="2.50101">
        <ele>133.025</ele>
        <time>2017-10-08T12:28:53Z</time>
      </trkpt>
      <trkpt lat="48.73367" lon="2.5008">
        <ele>132.98</ele>
        <time>2017-10-08T12:29:03Z</time>
      </trkpt>
      <trkpt lat="48.73367" lon="2.5008">
        <ele>91.6</ele>
        <time>2017-10-08T12:29:11Z</time>
      </trkpt>
      <trkpt lat="48.73367" lon="2.5008">
        <ele>91.6</ele>
        <time>2017-10-08T12:32:54Z</time>
      </trkpt>
      <trkpt lat="48.73378" lon="2.50041">
        <ele>133.295</ele>
        <time>2017-10-08T12:32:54Z</time>
      </trkpt>
      <trkpt lat="48.73379" lon="2.5002">
        <ele>133.296</ele>
        <time>2017-10-08T12:33:09Z</time>
      </trkpt>
      <trkpt lat="48.73371" lon="2.49987">
        <ele>133.223</ele>
        <time>2017-10-08T12:33:29Z</time>
      </trkpt>
      <trkpt lat="48.7337" lon="2.49966">
        <ele>133.149</ele>
        <time>2017-10-08T12:33:38Z</time>
      </trkpt>
      <trkpt lat="48.7337" lon="2.49966">
        <ele>92</ele>
        <time>2017-10-08T12:33:46Z</time>
      </trkpt>
      <trkpt lat="48.7337" lon="2.49966">
        <ele>92</ele>
        <time>2017-10-08T12:34:14Z</time>
      </trkpt>
      <trkpt lat="48.73372" lon="2.49937">
        <ele>132.715</ele>
        <time>2017-10-08T12:34:14Z</time>
      </trkpt>
      <trkpt lat="48.73375" lon="2.49909">
        <ele>132.401</ele>
        <time>2017-10-08T12:34:28Z</time>
      </trkpt>
      <trkpt lat="48.73378" lon="2.49888">
        <ele>132.124</ele>
        <time>2017-10-08T12:34:40Z</time>
      </trkpt>
      <trkpt lat="48.73381" lon="2.49854">
        <ele>131.767</ele>
        <time>2017-10-08T12:34:56Z</time>
      </trkpt>
      <trkpt lat="48.73382" lon="2.49823">
        <ele>131.465</ele>
        <time>2017-10-08T12:35:10Z</time>
      </trkpt>
      <trkpt lat="48.73384" lon="2.49802">
        <ele>131.195</ele>
        <time>2017-10-08T12:35:23Z</time>
      </trkpt>
      <trkpt lat="48.73386" lon="2.49778">
        <ele>130.941</ele>
        <time>2017-10-08T12:35:34Z</time>
      </trkpt>
      <trkpt lat="48.73392" lon="2.49753">
        <ele>130.584</ele>
        <time>2017-10-08T12:35:48Z</time>
      </trkpt>
      <trkpt lat="48.73395" lon="2.49736">
        <ele>130.338</ele>
        <time>2017-10-08T12:35:57Z</time>
      </trkpt>
      <trkpt lat="48.73396" lon="2.49727">
        <ele>130.176</ele>
        <time>2017-10-08T12:36:03Z</time>
      </trkpt>
      <trkpt lat="48.73396" lon="2.49727">
        <ele>91.3</ele>
        <time>2017-10-08T12:36:11Z</time>
      </trkpt>
      <trkpt lat="48.73396" lon="2.49727">
        <ele>91.3</ele>
        <time>2017-10-08T12:36:16Z</time>
      </trkpt>
      <trkpt lat="48.73399" lon="2.49719">
        <ele>129.824</ele>
        <time>2017-10-08T12:36:16Z</time>
      </trkpt>
      <trkpt lat="48.73399" lon="2.49695">
        <ele>129.604</ele>
        <time>2017-10-08T12:36:25Z</time>
      </trkpt>
      <trkpt lat="48.73399" lon="2.49671">
        <ele>129.367</ele>
        <time>2017-10-08T12:36:38Z</time>
      </trkpt>
      <trkpt lat="48.73387" lon="2.49666">
        <ele>129.185</ele>
        <time>2017-10-08T12:36:49Z</time>
      </trkpt>
      <trkpt lat="48.73387" lon="2.49666">
        <ele>91.9</ele>
        <time>2017-10-08T12:36:56Z</time>
      </trkpt>
      <trkpt lat="48.73387" lon="2.49666">
        <ele>91.9</ele>
        <time>2017-10-08T12:37:29Z</time>
      </trkpt>
      <trkpt lat="48.73359" lon="2.49681">
        <ele>128.392</ele>
        <time>2017-10-08T12:37:29Z</time>
      </trkpt>
      <trkpt lat="48.73352" lon="2.49682">
        <ele>128.238</ele>
        <time>2017-10-08T12:37:36Z</time>
      </trkpt>
      <trkpt lat="48.7333" lon="2.49689">
        <ele>127.914</ele>
        <time>2017-10-08T12:37:53Z</time>
      </trkpt>
      <trkpt lat="48.7331" lon="2.49668">
        <ele>127.665</ele>
        <time>2017-10-08T12:38:10Z</time>
      </trkpt>
      <trkpt lat="48.73304" lon="2.49653">
        <ele>127.55</ele>
        <time>2017-10-08T12:38:21Z</time>
      </trkpt>
      <trkpt lat="48.73292" lon="2.4963">
        <ele>127.489</ele>
        <time>2017-10-08T12:38:32Z</time>
      </trkpt>
      <trkpt lat="48.73288" lon="2.49617">
        <ele>127.468</ele>
        <time>2017-10-08T12:38:38Z</time>
      </trkpt>
      <trkpt lat="48.73281" lon="2.4959">
        <ele>127.47</ele>
        <time>2017-10-08T12:38:51Z</time>
      </trkpt>
      <trkpt lat="48.73274" lon="2.49574">
        <ele>127.496</ele>
        <time>2017-10-08T12:39:00Z</time>
      </trkpt>
      <trkpt lat="48.73274" lon="2.49574">
        <ele>91</ele>
        <time>2017-10-08T12:39:07Z</time>
      </trkpt>
      <trkpt lat="48.73274" lon="2.49574">
        <ele>91</ele>
        <time>2017-10-08T12:39:24Z</time>
      </trkpt>
      <trkpt lat="48.7327" lon="2.49549">
        <ele>127.46</ele>
        <time>2017-10-08T12:39:24Z</time>
      </trkpt>
      <trkpt lat="48.73265" lon="2.49523">
        <ele>127.329</ele>
        <time>2017-10-08T12:39:37Z</time>
      </trkpt>
      <trkpt lat="48.73256" lon="2.49494">
        <ele>127.09</ele>
        <time>2017-10-08T12:39:52Z</time>
      </trkpt>
      <trkpt lat="48.73249" lon="2.49466">
        <ele>126.819</ele>
        <time>2017-10-08T12:40:07Z</time>
      </trkpt>
      <trkpt lat="48.73241" lon="2.49436">
        <ele>126.577</ele>
        <time>2017-10-08T12:40:24Z</time>
      </trkpt>
      <trkpt lat="48.73226" lon="2.49401">
        <ele>126.445</ele>
        <time>2017-10-08T12:40:40Z</time>
      </trkpt>
      <trkpt lat="48.73218" lon="2.49383">
        <ele>126.427</ele>
        <time>2017-10-08T12:40:51Z</time>
      </trkpt>
      <trkpt lat="48.73213" lon="2.49367">
        <ele>126.435</ele>
        <time>2017-10-08T12:40:58Z</time>
      </trkpt>
      <trkpt lat="48.73204" lon="2.49338">
        <ele>126.388</ele>
        <time>2017-10-08T12:41:14Z</time>
      </trkpt>
      <trkpt lat="48.73198" lon="2.49312">
        <ele>126.271</ele>
        <time>2017-10-08T12:41:26Z</time>
      </trkpt>
      <trkpt lat="48.7319" lon="2.49294">
        <ele>126.116</ele>
        <time>2017-10-08T12:41:37Z</time>
      </trkpt>
      <trkpt lat="48.73184" lon="2.49272">
        <ele>125.89</ele>
        <time>2017-10-08T12:41:49Z</time>
      </trkpt>
      <trkpt lat="48.73177" lon="2.49245">
        <ele>125.6</ele>
        <time>2017-10-08T12:42:02Z</time>
      </trkpt>
      <trkpt lat="48.73172" lon="2.49228">
        <ele>125.389</ele>
        <time>2017-10-08T12:42:11Z</time>
      </trkpt>
      <trkpt lat="48.73168" lon="2.49214">
        <ele>125.196</ele>
        <time>2017-10-08T12:42:19Z</time>
      </trkpt>
      <trkpt lat="48.73159" lon="2.49191">
        <ele>124.809</ele>
        <time>2017-10-08T12:42:35Z</time>
      </trkpt>
      <trkpt lat="48.73148" lon="2.4917">
        <ele>124.467</ele>
        <time>2017-10-08T12:42:49Z</time>
      </trkpt>
      <trkpt lat="48.7314" lon="2.49151">
        <ele>124.182</ele>
        <time>2017-10-08T12:43:03Z</time>
      </trkpt>
      <trkpt lat="48.73135" lon="2.49136">
        <ele>123.962</ele>
        <time>2017-10-08T12:43:15Z</time>
      </trkpt>
      <trkpt lat="48.73129" lon="2.49104">
        <ele>123.653</ele>
        <time>2017-10-08T12:43:33Z</time>
      </trkpt>
      <trkpt lat="48.73124" lon="2.49075">
        <ele>123.481</ele>
        <time>2017-10-08T12:43:45Z</time>
      </trkpt>
      <trkpt lat="48.73114" lon="2.49051">
        <ele>123.378</ele>
        <time>2017-10-08T12:43:59Z</time>
      </trkpt>
      <trkpt lat="48.7311" lon="2.49028">
        <ele>123.227</ele>
        <time>2017-10-08T12:44:17Z</time>
      </trkpt>
      <trkpt lat="48.73106" lon="2.49006">
        <ele>123.13</ele>
        <time>2017-10-08T12:44:26Z</time>
      </trkpt>
      <trkpt lat="48.73099" lon="2.48987">
        <ele>123.011</ele>
        <time>2017-10-08T12:44:39Z</time>
      </trkpt>
      <trkpt lat="48.73091" lon="2.4897">
        <ele>122.917</ele>
        <time>2017-10-08T12:44:49Z</time>
      </trkpt>
      <trkpt lat="48.7308" lon="2.48942">
        <ele>122.82</ele>
        <time>2017-10-08T12:45:04Z</time>
      </trkpt>
      <trkpt lat="48.73074" lon="2.48925">
        <ele>122.799</ele>
        <time>2017-10-08T12:45:13Z</time>
      </trkpt>
      <trkpt lat="48.7307" lon="2.4891">
        <ele>122.777</ele>
        <time>2017-10-08T12:45:22Z</time>
      </trkpt>
      <trkpt lat="48.73063" lon="2.48888">
        <ele>122.738</ele>
        <time>2017-10-08T12:45:39Z</time>
      </trkpt>
      <trkpt lat="48.73063" lon="2.48881">
        <ele>122.729</ele>
        <time>2017-10-08T12:45:43Z</time>
      </trkpt>
      <trkpt lat="48.73063" lon="2.48881">
        <ele>90</ele>
        <time>2017-10-08T12:45:51Z</time>
      </trkpt>
      <trkpt lat="48.73063" lon="2.48881">
        <ele>90</ele>
        <time>2017-10-08T12:46:18Z</time>
      </trkpt>
      <trkpt lat="48.73049" lon="2.48843">
        <ele>122.694</ele>
        <time>2017-10-08T12:46:18Z</time>
      </trkpt>
      <trkpt lat="48.73036" lon="2.48817">
        <ele>122.722</ele>
        <time>2017-10-08T12:46:34Z</time>
      </trkpt>
      <trkpt lat="48.73029" lon="2.48797">
        <ele>122.762</ele>
        <time>2017-10-08T12:46:47Z</time>
      </trkpt>
      <trkpt lat="48.73025" lon="2.48785">
        <ele>122.783</ele>
        <time>2017-10-08T12:46:54Z</time>
      </trkpt>
      <trkpt lat="48.73015" lon="2.48758">
        <ele>122.826</ele>
        <time>2017-10-08T12:47:08Z</time>
      </trkpt>
      <trkpt lat="48.7301" lon="2.48738">
        <ele>122.873</ele>
        <time>2017-10-08T12:47:18Z</time>
      </trkpt>
      <trkpt lat="48.73001" lon="2.48713">
        <ele>122.928</ele>
        <time>2017-10-08T12:47:32Z</time>
      </trkpt>
      <trkpt lat="48.72996" lon="2.48687">
        <ele>122.984</ele>
        <time>2017-10-08T12:47:54Z</time>
      </trkpt>
      <trkpt lat="48.72984" lon="2.48659">
        <ele>122.985</ele>
        <time>2017-10-08T12:48:11Z</time>
      </trkpt>
      <trkpt lat="48.7298" lon="2.48647">
        <ele>123.008</ele>
        <time>2017-10-08T12:48:19Z</time>
      </trkpt>
      <trkpt lat="48.72967" lon="2.48616">
        <ele>123.123</ele>
        <time>2017-10-08T12:48:34Z</time>
      </trkpt>
      <trkpt lat="48.72961" lon="2.48598">
        <ele>123.268</ele>
        <time>2017-10-08T12:48:45Z</time>
      </trkpt>
      <trkpt lat="48.72958" lon="2.48579">
        <ele>123.412</ele>
        <time>2017-10-08T12:48:55Z</time>
      </trkpt>
      <trkpt lat="48.72952" lon="2.48556">
        <ele>123.586</ele>
        <time>2017-10-08T12:49:09Z</time>
      </trkpt>
      <trkpt lat="48.72946" lon="2.48534">
        <ele>123.687</ele>
        <time>2017-10-08T12:49:20Z</time>
      </trkpt>
      <trkpt lat="48.7294" lon="2.48516">
        <ele>123.799</ele>
        <time>2017-10-08T12:49:30Z</time>
      </trkpt>
      <trkpt lat="48.72932" lon="2.48498">
        <ele>123.92</ele>
        <time>2017-10-08T12:49:39Z</time>
      </trkpt>
      <trkpt lat="48.72925" lon="2.48474">
        <ele>124.088</ele>
        <time>2017-10-08T12:49:51Z</time>
      </trkpt>
      <trkpt lat="48.72912" lon="2.48462">
        <ele>124.256</ele>
        <time>2017-10-08T12:50:03Z</time>
      </trkpt>
      <trkpt lat="48.72891" lon="2.48468">
        <ele>124.552</ele>
        <time>2017-10-08T12:50:27Z</time>
      </trkpt>
      <trkpt lat="48.72873" lon="2.4848">
        <ele>124.647</ele>
        <time>2017-10-08T12:50:39Z</time>
      </trkpt>
      <trkpt lat="48.72865" lon="2.48487">
        <ele>124.673</ele>
        <time>2017-10-08T12:50:46Z</time>
      </trkpt>
      <trkpt lat="48.72854" lon="2.48494">
        <ele>124.688</ele>
        <time>2017-10-08T12:50:55Z</time>
      </trkpt>
      <trkpt lat="48.72838" lon="2.48501">
        <ele>124.714</ele>
        <time>2017-10-08T12:51:07Z</time>
      </trkpt>
      <trkpt lat="48.72817" lon="2.48514">
        <ele>124.69</ele>
        <time>2017-10-08T12:51:26Z</time>
      </trkpt>
      <trkpt lat="48.72799" lon="2.48523">
        <ele>124.592</ele>
        <time>2017-10-08T12:51:42Z</time>
      </trkpt>
      <trkpt lat="48.7278" lon="2.48533">
        <ele>124.437</ele>
        <time>2017-10-08T12:51:57Z</time>
      </trkpt>
      <trkpt lat="48.72768" lon="2.48541">
        <ele>124.344</ele>
        <time>2017-10-08T12:52:04Z</time>
      </trkpt>
      <trkpt lat="48.7275" lon="2.48549">
        <ele>124.072</ele>
        <time>2017-10-08T12:52:19Z</time>
      </trkpt>
      <trkpt lat="48.72727" lon="2.48545">
        <ele>123.668</ele>
        <time>2017-10-08T12:52:37Z</time>
      </trkpt>
      <trkpt lat="48.72714" lon="2.48543">
        <ele>123.417</ele>
        <time>2017-10-08T12:52:47Z</time>
      </trkpt>
      <trkpt lat="48.72701" lon="2.48538">
        <ele>123.162</ele>
        <time>2017-10-08T12:52:59Z</time>
      </trkpt>
      <trkpt lat="48.72701" lon="2.48538">
        <ele>88</ele>
        <time>2017-10-08T12:53:06Z</time>
      </trkpt>
      <trkpt lat="48.72701" lon="2.48538">
        <ele>88</ele>
        <time>2017-10-08T12:53:52Z</time>
      </trkpt>
      <trkpt lat="48.72696" lon="2.48521">
        <ele>122.403</ele>
        <time>2017-10-08T12:53:52Z</time>
      </trkpt>
      <trkpt lat="48.72689" lon="2.48488">
        <ele>122.135</ele>
        <time>2017-10-08T12:54:08Z</time>
      </trkpt>
      <trkpt lat="48.72681" lon="2.48449">
        <ele>121.956</ele>
        <time>2017-10-08T12:54:26Z</time>
      </trkpt>
      <trkpt lat="48.72673" lon="2.48429">
        <ele>121.901</ele>
        <time>2017-10-08T12:54:38Z</time>
      </trkpt>
      <trkpt lat="48.72668" lon="2.48407">
        <ele>121.913</ele>
        <time>2017-10-08T12:54:49Z</time>
      </trkpt>
      <trkpt lat="48.72663" lon="2.48386">
        <ele>121.971</ele>
        <time>2017-10-08T12:55:03Z</time>
      </trkpt>
      <trkpt lat="48.7266" lon="2.48363">
        <ele>122.024</ele>
        <time>2017-10-08T12:55:14Z</time>
      </trkpt>
      <trkpt lat="48.72659" lon="2.48344">
        <ele>122.076</ele>
        <time>2017-10-08T12:55:24Z</time>
      </trkpt>
      <trkpt lat="48.72654" lon="2.48324">
        <ele>122.106</ele>
        <time>2017-10-08T12:55:35Z</time>
      </trkpt>
      <trkpt lat="48.72643" lon="2.48293">
        <ele>122.158</ele>
        <time>2017-10-08T12:55:50Z</time>
      </trkpt>
      <trkpt lat="48.72638" lon="2.4828">
        <ele>122.216</ele>
        <time>2017-10-08T12:55:59Z</time>
      </trkpt>
      <trkpt lat="48.72633" lon="2.48256">
        <ele>122.295</ele>
        <time>2017-10-08T12:56:13Z</time>
      </trkpt>
      <trkpt lat="48.72628" lon="2.48236">
        <ele>122.352</ele>
        <time>2017-10-08T12:56:23Z</time>
      </trkpt>
      <trkpt lat="48.72625" lon="2.4822">
        <ele>122.408</ele>
        <time>2017-10-08T12:56:31Z</time>
      </trkpt>
      <trkpt lat="48.72618" lon="2.48183">
        <ele>122.532</ele>
        <time>2017-10-08T12:56:47Z</time>
      </trkpt>
      <trkpt lat="48.72611" lon="2.48153">
        <ele>122.671</ele>
        <time>2017-10-08T12:57:02Z</time>
      </trkpt>
      <trkpt lat="48.72606" lon="2.48124">
        <ele>122.814</ele>
        <time>2017-10-08T12:57:15Z</time>
      </trkpt>
      <trkpt lat="48.72602" lon="2.48104">
        <ele>122.98</ele>
        <time>2017-10-08T12:57:27Z</time>
      </trkpt>
      <trkpt lat="48.72595" lon="2.48073">
        <ele>123.18</ele>
        <time>2017-10-08T12:57:45Z</time>
      </trkpt>
      <trkpt lat="48.72589" lon="2.48045">
        <ele>123.297</ele>
        <time>2017-10-08T12:57:58Z</time>
      </trkpt>
      <trkpt lat="48.72583" lon="2.48004">
        <ele>123.448</ele>
        <time>2017-10-08T12:58:16Z</time>
      </trkpt>
      <trkpt lat="48.72577" lon="2.47975">
        <ele>123.635</ele>
        <time>2017-10-08T12:58:31Z</time>
      </trkpt>
      <trkpt lat="48.7257" lon="2.47947">
        <ele>123.82</ele>
        <time>2017-10-08T12:58:45Z</time>
      </trkpt>
      <trkpt lat="48.72568" lon="2.47925">
        <ele>123.924</ele>
        <time>2017-10-08T12:58:57Z</time>
      </trkpt>
      <trkpt lat="48.72561" lon="2.47893">
        <ele>124.005</ele>
        <time>2017-10-08T12:59:11Z</time>
      </trkpt>
      <trkpt lat="48.72558" lon="2.47873">
        <ele>124.064</ele>
        <time>2017-10-08T12:59:24Z</time>
      </trkpt>
      <trkpt lat="48.72551" lon="2.47838">
        <ele>124.085</ele>
        <time>2017-10-08T12:59:39Z</time>
      </trkpt>
      <trkpt lat="48.72546" lon="2.47817">
        <ele>124.123</ele>
        <time>2017-10-08T12:59:49Z</time>
      </trkpt>
      <trkpt lat="48.7254" lon="2.4779">
        <ele>124.254</ele>
        <time>2017-10-08T13:00:04Z</time>
      </trkpt>
      <trkpt lat="48.72536" lon="2.47762">
        <ele>124.346</ele>
        <time>2017-10-08T13:00:21Z</time>
      </trkpt>
      <trkpt lat="48.7253" lon="2.47733">
        <ele>124.397</ele>
        <time>2017-10-08T13:00:34Z</time>
      </trkpt>
      <trkpt lat="48.72526" lon="2.47718">
        <ele>124.446</ele>
        <time>2017-10-08T13:00:44Z</time>
      </trkpt>
      <trkpt lat="48.72521" lon="2.47696">
        <ele>124.504</ele>
        <time>2017-10-08T13:00:56Z</time>
      </trkpt>
      <trkpt lat="48.72513" lon="2.47661">
        <ele>124.593</ele>
        <time>2017-10-08T13:01:13Z</time>
      </trkpt>
      <trkpt lat="48.72509" lon="2.47639">
        <ele>124.694</ele>
        <time>2017-10-08T13:01:24Z</time>
      </trkpt>
      <trkpt lat="48.72502" lon="2.47621">
        <ele>124.813</ele>
        <time>2017-10-08T13:01:34Z</time>
      </trkpt>
      <trkpt lat="48.72484" lon="2.47623">
        <ele>124.905</ele>
        <time>2017-10-08T13:01:52Z</time>
      </trkpt>
      <trkpt lat="48.72467" lon="2.47628">
        <ele>124.899</ele>
        <time>2017-10-08T13:02:04Z</time>
      </trkpt>
      <trkpt lat="48.72454" lon="2.4763">
        <ele>124.903</ele>
        <time>2017-10-08T13:02:14Z</time>
      </trkpt>
      <trkpt lat="48.72429" lon="2.47648">
        <ele>124.928</ele>
        <time>2017-10-08T13:02:31Z</time>
      </trkpt>
      <trkpt lat="48.72414" lon="2.47653">
        <ele>124.986</ele>
        <time>2017-10-08T13:02:45Z</time>
      </trkpt>
      <trkpt lat="48.724" lon="2.47656">
        <ele>125.022</ele>
        <time>2017-10-08T13:02:52Z</time>
      </trkpt>
      <trkpt lat="48.72385" lon="2.47649">
        <ele>125.125</ele>
        <time>2017-10-08T13:03:06Z</time>
      </trkpt>
      <trkpt lat="48.72366" lon="2.47652">
        <ele>125.289</ele>
        <time>2017-10-08T13:03:22Z</time>
      </trkpt>
      <trkpt lat="48.7235" lon="2.4766">
        <ele>125.467</ele>
        <time>2017-10-08T13:03:38Z</time>
      </trkpt>
      <trkpt lat="48.72336" lon="2.47664">
        <ele>125.582</ele>
        <time>2017-10-08T13:03:48Z</time>
      </trkpt>
      <trkpt lat="48.72321" lon="2.47661">
        <ele>125.748</ele>
        <time>2017-10-08T13:04:04Z</time>
      </trkpt>
      <trkpt lat="48.72299" lon="2.4767">
        <ele>125.866</ele>
        <time>2017-10-08T13:04:19Z</time>
      </trkpt>
      <trkpt lat="48.72286" lon="2.47686">
        <ele>125.941</ele>
        <time>2017-10-08T13:04:28Z</time>
      </trkpt>
      <trkpt lat="48.72274" lon="2.477">
        <ele>126.112</ele>
        <time>2017-10-08T13:04:46Z</time>
      </trkpt>
      <trkpt lat="48.72261" lon="2.47711">
        <ele>126.221</ele>
        <time>2017-10-08T13:05:00Z</time>
      </trkpt>
      <trkpt lat="48.7225" lon="2.47719">
        <ele>126.305</ele>
        <time>2017-10-08T13:05:11Z</time>
      </trkpt>
      <trkpt lat="48.72233" lon="2.4773">
        <ele>126.385</ele>
        <time>2017-10-08T13:05:26Z</time>
      </trkpt>
      <trkpt lat="48.72205" lon="2.47742">
        <ele>126.491</ele>
        <time>2017-10-08T13:05:44Z</time>
      </trkpt>
      <trkpt lat="48.72191" lon="2.47744">
        <ele>126.618</ele>
        <time>2017-10-08T13:05:56Z</time>
      </trkpt>
      <trkpt lat="48.72178" lon="2.47741">
        <ele>126.787</ele>
        <time>2017-10-08T13:06:09Z</time>
      </trkpt>
      <trkpt lat="48.72165" lon="2.47736">
        <ele>126.992</ele>
        <time>2017-10-08T13:06:24Z</time>
      </trkpt>
      <trkpt lat="48.72151" lon="2.47731">
        <ele>127.219</ele>
        <time>2017-10-08T13:06:39Z</time>
      </trkpt>
      <trkpt lat="48.7213" lon="2.47732">
        <ele>127.412</ele>
        <time>2017-10-08T13:06:56Z</time>
      </trkpt>
      <trkpt lat="48.72114" lon="2.47727">
        <ele>127.525</ele>
        <time>2017-10-08T13:07:08Z</time>
      </trkpt>
      <trkpt lat="48.72096" lon="2.47722">
        <ele>127.632</ele>
        <time>2017-10-08T13:07:20Z</time>
      </trkpt>
      <trkpt lat="48.72082" lon="2.47707">
        <ele>127.751</ele>
        <time>2017-10-08T13:07:34Z</time>
      </trkpt>
      <trkpt lat="48.7207" lon="2.47692">
        <ele>127.846</ele>
        <time>2017-10-08T13:07:45Z</time>
      </trkpt>
      <trkpt lat="48.72055" lon="2.47678">
        <ele>127.949</ele>
        <time>2017-10-08T13:07:57Z</time>
      </trkpt>
      <trkpt lat="48.72047" lon="2.47672">
        <ele>127.997</ele>
        <time>2017-10-08T13:08:02Z</time>
      </trkpt>
      <trkpt lat="48.72027" lon="2.47661">
        <ele>128.17</ele>
        <time>2017-10-08T13:08:15Z</time>
      </trkpt>
      <trkpt lat="48.72017" lon="2.47651">
        <ele>128.322</ele>
        <time>2017-10-08T13:08:24Z</time>
      </trkpt>
      <trkpt lat="48.72004" lon="2.47637">
        <ele>128.539</ele>
        <time>2017-10-08T13:08:36Z</time>
      </trkpt>
      <trkpt lat="48.7199" lon="2.47617">
        <ele>128.773</ele>
        <time>2017-10-08T13:08:49Z</time>
      </trkpt>
      <trkpt lat="48.71977" lon="2.47598">
        <ele>129.012</ele>
        <time>2017-10-08T13:09:03Z</time>
      </trkpt>
      <trkpt lat="48.71967" lon="2.47585">
        <ele>129.201</ele>
        <time>2017-10-08T13:09:14Z</time>
      </trkpt>
      <trkpt lat="48.71955" lon="2.47576">
        <ele>129.475</ele>
        <time>2017-10-08T13:09:30Z</time>
      </trkpt>
      <trkpt lat="48.71929" lon="2.47569">
        <ele>129.765</ele>
        <time>2017-10-08T13:09:47Z</time>
      </trkpt>
      <trkpt lat="48.71919" lon="2.47565">
        <ele>129.862</ele>
        <time>2017-10-08T13:09:55Z</time>
      </trkpt>
      <trkpt lat="48.71906" lon="2.47558">
        <ele>129.941</ele>
        <time>2017-10-08T13:10:05Z</time>
      </trkpt>
      <trkpt lat="48.71888" lon="2.47553">
        <ele>129.981</ele>
        <time>2017-10-08T13:10:18Z</time>
      </trkpt>
      <trkpt lat="48.71871" lon="2.47548">
        <ele>129.972</ele>
        <time>2017-10-08T13:10:30Z</time>
      </trkpt>
      <trkpt lat="48.71852" lon="2.47539">
        <ele>129.951</ele>
        <time>2017-10-08T13:10:43Z</time>
      </trkpt>
      <trkpt lat="48.71832" lon="2.47532">
        <ele>129.913</ele>
        <time>2017-10-08T13:10:57Z</time>
      </trkpt>
      <trkpt lat="48.71821" lon="2.47529">
        <ele>129.909</ele>
        <time>2017-10-08T13:11:04Z</time>
      </trkpt>
      <trkpt lat="48.71802" lon="2.47522">
        <ele>129.937</ele>
        <time>2017-10-08T13:11:17Z</time>
      </trkpt>
      <trkpt lat="48.71786" lon="2.47516">
        <ele>129.94</ele>
        <time>2017-10-08T13:11:31Z</time>
      </trkpt>
      <trkpt lat="48.71769" lon="2.47498">
        <ele>129.844</ele>
        <time>2017-10-08T13:11:46Z</time>
      </trkpt>
      <trkpt lat="48.71759" lon="2.47476">
        <ele>129.73</ele>
        <time>2017-10-08T13:11:59Z</time>
      </trkpt>
      <trkpt lat="48.71751" lon="2.47448">
        <ele>129.603</ele>
        <time>2017-10-08T13:12:14Z</time>
      </trkpt>
      <trkpt lat="48.71749" lon="2.47424">
        <ele>129.533</ele>
        <time>2017-10-08T13:12:27Z</time>
      </trkpt>
      <trkpt lat="48.71743" lon="2.47397">
        <ele>129.465</ele>
        <time>2017-10-08T13:12:41Z</time>
      </trkpt>
      <trkpt lat="48.71742" lon="2.47374">
        <ele>129.391</ele>
        <time>2017-10-08T13:12:53Z</time>
      </trkpt>
      <trkpt lat="48.71747" lon="2.47346">
        <ele>129.269</ele>
        <time>2017-10-08T13:13:07Z</time>
      </trkpt>
      <trkpt lat="48.71754" lon="2.47323">
        <ele>129.122</ele>
        <time>2017-10-08T13:13:20Z</time>
      </trkpt>
      <trkpt lat="48.7176" lon="2.47296">
        <ele>128.913</ele>
        <time>2017-10-08T13:13:36Z</time>
      </trkpt>
      <trkpt lat="48.71766" lon="2.47282">
        <ele>128.808</ele>
        <time>2017-10-08T13:13:44Z</time>
      </trkpt>
      <trkpt lat="48.7177" lon="2.47264">
        <ele>128.685</ele>
        <time>2017-10-08T13:13:53Z</time>
      </trkpt>
      <trkpt lat="48.71779" lon="2.47232">
        <ele>128.439</ele>
        <time>2017-10-08T13:14:10Z</time>
      </trkpt>
      <trkpt lat="48.71778" lon="2.47203">
        <ele>128.224</ele>
        <time>2017-10-08T13:14:28Z</time>
      </trkpt>
      <trkpt lat="48.7176" lon="2.47194">
        <ele>128.019</ele>
        <time>2017-10-08T13:14:44Z</time>
      </trkpt>
      <trkpt lat="48.71742" lon="2.47189">
        <ele>127.824</ele>
        <time>2017-10-08T13:14:57Z</time>
      </trkpt>
      <trkpt lat="48.71728" lon="2.47184">
        <ele>127.658</ele>
        <time>2017-10-08T13:15:07Z</time>
      </trkpt>
      <trkpt lat="48.71712" lon="2.47166">
        <ele>127.38</ele>
        <time>2017-10-08T13:15:23Z</time>
      </trkpt>
      <trkpt lat="48.71708" lon="2.47139">
        <ele>127.13</ele>
        <time>2017-10-08T13:15:37Z</time>
      </trkpt>
      <trkpt lat="48.71694" lon="2.4713">
        <ele>126.966</ele>
        <time>2017-10-08T13:15:47Z</time>
      </trkpt>
      <trkpt lat="48.71679" lon="2.47115">
        <ele>126.754</ele>
        <time>2017-10-08T13:16:02Z</time>
      </trkpt>
      <trkpt lat="48.71661" lon="2.47098">
        <ele>126.571</ele>
        <time>2017-10-08T13:16:18Z</time>
      </trkpt>
      <trkpt lat="48.71648" lon="2.4709">
        <ele>126.466</ele>
        <time>2017-10-08T13:16:27Z</time>
      </trkpt>
      <trkpt lat="48.71631" lon="2.47088">
        <ele>126.292</ele>
        <time>2017-10-08T13:16:40Z</time>
      </trkpt>
      <trkpt lat="48.71624" lon="2.47108">
        <ele>126.074</ele>
        <time>2017-10-08T13:16:52Z</time>
      </trkpt>
      <trkpt lat="48.71622" lon="2.47152">
        <ele>125.695</ele>
        <time>2017-10-08T13:17:11Z</time>
      </trkpt>
      <trkpt lat="48.7162" lon="2.47165">
        <ele>125.543</ele>
        <time>2017-10-08T13:17:18Z</time>
      </trkpt>
      <trkpt lat="48.7162" lon="2.47165">
        <ele>72.6</ele>
        <time>2017-10-08T13:17:26Z</time>
      </trkpt>
      <trkpt lat="48.7162" lon="2.47165">
        <ele>72.6</ele>
        <time>2017-10-08T13:17:30Z</time>
      </trkpt>
      <trkpt lat="48.71619" lon="2.47174">
        <ele>125.321</ele>
        <time>2017-10-08T13:17:30Z</time>
      </trkpt>
      <trkpt lat="48.71616" lon="2.47208">
        <ele>124.943</ele>
        <time>2017-10-08T13:17:48Z</time>
      </trkpt>
      <trkpt lat="48.71617" lon="2.4723">
        <ele>124.732</ele>
        <time>2017-10-08T13:17:59Z</time>
      </trkpt>
      <trkpt lat="48.71619" lon="2.47252">
        <ele>124.499</ele>
        <time>2017-10-08T13:18:13Z</time>
      </trkpt>
      <trkpt lat="48.71622" lon="2.47275">
        <ele>124.278</ele>
        <time>2017-10-08T13:18:26Z</time>
      </trkpt>
      <trkpt lat="48.71622" lon="2.47275">
        <ele>71.6</ele>
        <time>2017-10-08T13:18:33Z</time>
      </trkpt>
      <trkpt lat="48.71622" lon="2.47275">
        <ele>71.6</ele>
        <time>2017-10-08T13:19:55Z</time>
      </trkpt>
      <trkpt lat="48.71617" lon="2.47237">
        <ele>122.425</ele>
        <time>2017-10-08T13:19:55Z</time>
      </trkpt>
      <trkpt lat="48.71619" lon="2.47208">
        <ele>122.058</ele>
        <time>2017-10-08T13:20:09Z</time>
      </trkpt>
      <trkpt lat="48.71622" lon="2.47177">
        <ele>121.746</ele>
        <time>2017-10-08T13:20:24Z</time>
      </trkpt>
      <trkpt lat="48.71622" lon="2.47177">
        <ele>121.746</ele>
        <time>2017-10-08T13:20:31Z</time>
      </trkpt>
      <trkpt lat="48.71622" lon="2.47177">
        <ele>72.8</ele>
        <time>2017-10-08T13:20:31Z</time>
      </trkpt>
      <trkpt lat="48.71622" lon="2.47177">
        <ele>72.8</ele>
        <time>2017-10-08T13:20:39Z</time>
      </trkpt>
      <trkpt lat="48.71605" lon="2.47168">
        <ele>121.498</ele>
        <time>2017-10-08T13:20:39Z</time>
      </trkpt>
      <trkpt lat="48.7159" lon="2.47162">
        <ele>121.335</ele>
        <time>2017-10-08T13:20:51Z</time>
      </trkpt>
      <trkpt lat="48.71566" lon="2.47158">
        <ele>121.105</ele>
        <time>2017-10-08T13:21:09Z</time>
      </trkpt>
      <trkpt lat="48.71544" lon="2.47154">
        <ele>120.878</ele>
        <time>2017-10-08T13:21:25Z</time>
      </trkpt>
      <trkpt lat="48.71521" lon="2.47144">
        <ele>120.576</ele>
        <time>2017-10-08T13:21:43Z</time>
      </trkpt>
      <trkpt lat="48.7152" lon="2.4713">
        <ele>120.333</ele>
        <time>2017-10-08T13:21:54Z</time>
      </trkpt>
      <trkpt lat="48.71522" lon="2.47094">
        <ele>119.881</ele>
        <time>2017-10-08T13:22:12Z</time>
      </trkpt>
      <trkpt lat="48.71524" lon="2.47054">
        <ele>119.42</ele>
        <time>2017-10-08T13:22:30Z</time>
      </trkpt>
      <trkpt lat="48.71527" lon="2.47031">
        <ele>119.148</ele>
        <time>2017-10-08T13:22:41Z</time>
      </trkpt>
      <trkpt lat="48.71529" lon="2.47005">
        <ele>118.904</ele>
        <time>2017-10-08T13:22:52Z</time>
      </trkpt>
      <trkpt lat="48.71534" lon="2.46991">
        <ele>118.712</ele>
        <time>2017-10-08T13:23:00Z</time>
      </trkpt>
      <trkpt lat="48.71538" lon="2.46966">
        <ele>118.311</ele>
        <time>2017-10-08T13:23:13Z</time>
      </trkpt>
      <trkpt lat="48.71535" lon="2.46939">
        <ele>117.694</ele>
        <time>2017-10-08T13:23:30Z</time>
      </trkpt>
      <trkpt lat="48.71518" lon="2.46927">
        <ele>117.09</ele>
        <time>2017-10-08T13:23:46Z</time>
      </trkpt>
      <trkpt lat="48.71504" lon="2.46919">
        <ele>116.718</ele>
        <time>2017-10-08T13:23:55Z</time>
      </trkpt>
      <trkpt lat="48.71492" lon="2.46915">
        <ele>116.263</ele>
        <time>2017-10-08T13:24:06Z</time>
      </trkpt>
      <trkpt lat="48.71471" lon="2.46913">
        <ele>115.613</ele>
        <time>2017-10-08T13:24:22Z</time>
      </trkpt>
      <trkpt lat="48.71471" lon="2.46913">
        <ele>115.613</ele>
        <time>2017-10-08T13:24:27Z</time>
      </trkpt>
      <trkpt lat="48.71471" lon="2.46913">
        <ele>54.6</ele>
        <time>2017-10-08T13:24:27Z</time>
      </trkpt>
      <trkpt lat="48.71471" lon="2.46913">
        <ele>54.6</ele>
        <time>2017-10-08T13:24:35Z</time>
      </trkpt>
      <trkpt lat="48.71457" lon="2.46909">
        <ele>115.046</ele>
        <time>2017-10-08T13:24:35Z</time>
      </trkpt>
      <trkpt lat="48.71439" lon="2.46924">
        <ele>114.294</ele>
        <time>2017-10-08T13:24:51Z</time>
      </trkpt>
      <trkpt lat="48.71436" lon="2.46945">
        <ele>113.884</ele>
        <time>2017-10-08T13:25:01Z</time>
      </trkpt>
      <trkpt lat="48.71436" lon="2.46945">
        <ele>52.7</ele>
        <time>2017-10-08T13:25:09Z</time>
      </trkpt>
      <trkpt lat="48.71436" lon="2.46945">
        <ele>52.7</ele>
        <time>2017-10-08T13:25:33Z</time>
      </trkpt>
      <trkpt lat="48.71417" lon="2.4695">
        <ele>112.671</ele>
        <time>2017-10-08T13:25:33Z</time>
      </trkpt>
      <trkpt lat="48.71401" lon="2.46955">
        <ele>112.221</ele>
        <time>2017-10-08T13:25:45Z</time>
      </trkpt>
      <trkpt lat="48.71398" lon="2.46959">
        <ele>112.117</ele>
        <time>2017-10-08T13:25:48Z</time>
      </trkpt>
      <trkpt lat="48.71398" lon="2.46959">
        <ele>49.3</ele>
        <time>2017-10-08T13:25:56Z</time>
      </trkpt>
      <trkpt lat="48.71398" lon="2.46959">
        <ele>49.3</ele>
        <time>2017-10-08T13:26:32Z</time>
      </trkpt>
      <trkpt lat="48.71426" lon="2.46954">
        <ele>111.023</ele>
        <time>2017-10-08T13:26:32Z</time>
      </trkpt>
      <trkpt lat="48.71437" lon="2.46937">
        <ele>110.638</ele>
        <time>2017-10-08T13:26:45Z</time>
      </trkpt>
      <trkpt lat="48.71441" lon="2.46921">
        <ele>110.405</ele>
        <time>2017-10-08T13:26:53Z</time>
      </trkpt>
      <trkpt lat="48.71454" lon="2.46905">
        <ele>109.962</ele>
        <time>2017-10-08T13:27:08Z</time>
      </trkpt>
      <trkpt lat="48.71472" lon="2.46913">
        <ele>109.528</ele>
        <time>2017-10-08T13:27:22Z</time>
      </trkpt>
      <trkpt lat="48.71486" lon="2.46913">
        <ele>109.191</ele>
        <time>2017-10-08T13:27:33Z</time>
      </trkpt>
      <trkpt lat="48.71497" lon="2.46914">
        <ele>108.956</ele>
        <time>2017-10-08T13:27:41Z</time>
      </trkpt>
      <trkpt lat="48.71513" lon="2.46922">
        <ele>108.613</ele>
        <time>2017-10-08T13:27:54Z</time>
      </trkpt>
      <trkpt lat="48.71528" lon="2.46929">
        <ele>108.371</ele>
        <time>2017-10-08T13:28:05Z</time>
      </trkpt>
      <trkpt lat="48.71533" lon="2.46932">
        <ele>108.291</ele>
        <time>2017-10-08T13:28:09Z</time>
      </trkpt>
      <trkpt lat="48.71533" lon="2.46932">
        <ele>60.9</ele>
        <time>2017-10-08T13:28:14Z</time>
      </trkpt>
      <trkpt lat="48.71533" lon="2.46932">
        <ele>60.9</ele>
        <time>2017-10-08T13:28:19Z</time>
      </trkpt>
      <trkpt lat="48.71536" lon="2.46933">
        <ele>108.164</ele>
        <time>2017-10-08T13:28:19Z</time>
      </trkpt>
      <trkpt lat="48.71545" lon="2.46923">
        <ele>107.966</ele>
        <time>2017-10-08T13:28:31Z</time>
      </trkpt>
      <trkpt lat="48.71554" lon="2.46902">
        <ele>107.826</ele>
        <time>2017-10-08T13:28:44Z</time>
      </trkpt>
      <trkpt lat="48.71564" lon="2.46879">
        <ele>107.734</ele>
        <time>2017-10-08T13:28:59Z</time>
      </trkpt>
      <trkpt lat="48.71563" lon="2.46869">
        <ele>107.698</ele>
        <time>2017-10-08T13:29:09Z</time>
      </trkpt>
      <trkpt lat="48.71548" lon="2.46857">
        <ele>107.705</ele>
        <time>2017-10-08T13:29:23Z</time>
      </trkpt>
      <trkpt lat="48.71531" lon="2.46847">
        <ele>107.783</ele>
        <time>2017-10-08T13:29:37Z</time>
      </trkpt>
      <trkpt lat="48.71524" lon="2.46836">
        <ele>107.828</ele>
        <time>2017-10-08T13:29:45Z</time>
      </trkpt>
      <trkpt lat="48.71518" lon="2.4681">
        <ele>107.873</ele>
        <time>2017-10-08T13:30:01Z</time>
      </trkpt>
      <trkpt lat="48.71495" lon="2.46795">
        <ele>107.869</ele>
        <time>2017-10-08T13:30:17Z</time>
      </trkpt>
      <trkpt lat="48.71476" lon="2.46784">
        <ele>107.852</ele>
        <time>2017-10-08T13:30:30Z</time>
      </trkpt>
      <trkpt lat="48.7147" lon="2.46769">
        <ele>107.792</ele>
        <time>2017-10-08T13:30:43Z</time>
      </trkpt>
      <trkpt lat="48.71475" lon="2.46732">
        <ele>107.552</ele>
        <time>2017-10-08T13:31:02Z</time>
      </trkpt>
      <trkpt lat="48.71483" lon="2.46699">
        <ele>107.227</ele>
        <time>2017-10-08T13:31:19Z</time>
      </trkpt>
      <trkpt lat="48.71486" lon="2.46665">
        <ele>106.882</ele>
        <time>2017-10-08T13:31:34Z</time>
      </trkpt>
      <trkpt lat="48.71486" lon="2.46644">
        <ele>106.677</ele>
        <time>2017-10-08T13:31:42Z</time>
      </trkpt>
      <trkpt lat="48.71488" lon="2.46622">
        <ele>106.396</ele>
        <time>2017-10-08T13:31:53Z</time>
      </trkpt>
      <trkpt lat="48.71494" lon="2.46588">
        <ele>105.982</ele>
        <time>2017-10-08T13:32:09Z</time>
      </trkpt>
      <trkpt lat="48.71499" lon="2.46568">
        <ele>105.706</ele>
        <time>2017-10-08T13:32:19Z</time>
      </trkpt>
      <trkpt lat="48.71502" lon="2.46555">
        <ele>105.462</ele>
        <time>2017-10-08T13:32:28Z</time>
      </trkpt>
      <trkpt lat="48.71518" lon="2.46527">
        <ele>105.033</ele>
        <time>2017-10-08T13:32:45Z</time>
      </trkpt>
      <trkpt lat="48.71534" lon="2.46506">
        <ele>104.744</ele>
        <time>2017-10-08T13:32:59Z</time>
      </trkpt>
      <trkpt lat="48.71542" lon="2.46494">
        <ele>104.589</ele>
        <time>2017-10-08T13:33:07Z</time>
      </trkpt>
      <trkpt lat="48.71555" lon="2.46476">
        <ele>104.377</ele>
        <time>2017-10-08T13:33:20Z</time>
      </trkpt>
      <trkpt lat="48.71566" lon="2.4646">
        <ele>104.231</ele>
        <time>2017-10-08T13:33:31Z</time>
      </trkpt>
      <trkpt lat="48.71564" lon="2.4643">
        <ele>104.025</ele>
        <time>2017-10-08T13:33:46Z</time>
      </trkpt>
      <trkpt lat="48.7157" lon="2.4641">
        <ele>103.785</ele>
        <time>2017-10-08T13:33:59Z</time>
      </trkpt>
      <trkpt lat="48.71582" lon="2.46395">
        <ele>103.567</ele>
        <time>2017-10-08T13:34:10Z</time>
      </trkpt>
      <trkpt lat="48.71588" lon="2.46383">
        <ele>103.427</ele>
        <time>2017-10-08T13:34:17Z</time>
      </trkpt>
      <trkpt lat="48.71579" lon="2.46364">
        <ele>103.202</ele>
        <time>2017-10-08T13:34:28Z</time>
      </trkpt>
      <trkpt lat="48.71569" lon="2.46343">
        <ele>102.895</ele>
        <time>2017-10-08T13:34:44Z</time>
      </trkpt>
      <trkpt lat="48.71563" lon="2.46329">
        <ele>102.739</ele>
        <time>2017-10-08T13:34:52Z</time>
      </trkpt>
      <trkpt lat="48.71552" lon="2.46315">
        <ele>102.539</ele>
        <time>2017-10-08T13:35:02Z</time>
      </trkpt>
      <trkpt lat="48.71537" lon="2.46293">
        <ele>102.221</ele>
        <time>2017-10-08T13:35:16Z</time>
      </trkpt>
      <trkpt lat="48.71527" lon="2.46279">
        <ele>101.969</ele>
        <time>2017-10-08T13:35:26Z</time>
      </trkpt>
      <trkpt lat="48.71516" lon="2.46264">
        <ele>101.667</ele>
        <time>2017-10-08T13:35:38Z</time>
      </trkpt>
      <trkpt lat="48.71512" lon="2.46236">
        <ele>101.312</ele>
        <time>2017-10-08T13:35:55Z</time>
      </trkpt>
      <trkpt lat="48.71519" lon="2.46203">
        <ele>101.035</ele>
        <time>2017-10-08T13:36:12Z</time>
      </trkpt>
      <trkpt lat="48.71512" lon="2.46181">
        <ele>100.88</ele>
        <time>2017-10-08T13:36:24Z</time>
      </trkpt>
      <trkpt lat="48.71506" lon="2.46157">
        <ele>100.776</ele>
        <time>2017-10-08T13:36:36Z</time>
      </trkpt>
      <trkpt lat="48.715" lon="2.46132">
        <ele>100.668</ele>
        <time>2017-10-08T13:36:50Z</time>
      </trkpt>
      <trkpt lat="48.71501" lon="2.46094">
        <ele>100.574</ele>
        <time>2017-10-08T13:37:02Z</time>
      </trkpt>
      <trkpt lat="48.71496" lon="2.46083">
        <ele>100.504</ele>
        <time>2017-10-08T13:37:09Z</time>
      </trkpt>
      <trkpt lat="48.71486" lon="2.46075">
        <ele>100.393</ele>
        <time>2017-10-08T13:37:17Z</time>
      </trkpt>
      <trkpt lat="48.71469" lon="2.46101">
        <ele>100.131</ele>
        <time>2017-10-08T13:37:32Z</time>
      </trkpt>
      <trkpt lat="48.71459" lon="2.46113">
        <ele>99.9351</ele>
        <time>2017-10-08T13:37:44Z</time>
      </trkpt>
      <trkpt lat="48.71457" lon="2.46119">
        <ele>99.8859</ele>
        <time>2017-10-08T13:37:46Z</time>
      </trkpt>
      <trkpt lat="48.71457" lon="2.46119">
        <ele>36.4</ele>
        <time>2017-10-08T13:37:53Z</time>
      </trkpt>
      <trkpt lat="48.71457" lon="2.46119">
        <ele>36.4</ele>
        <time>2017-10-08T13:38:21Z</time>
      </trkpt>
      <trkpt lat="48.71446" lon="2.46136">
        <ele>99.5561</ele>
        <time>2017-10-08T13:38:21Z</time>
      </trkpt>
      <trkpt lat="48.71433" lon="2.46137">
        <ele>99.3528</ele>
        <time>2017-10-08T13:38:35Z</time>
      </trkpt>
      <trkpt lat="48.71416" lon="2.46159">
        <ele>99.1116</ele>
        <time>2017-10-08T13:38:51Z</time>
      </trkpt>
      <trkpt lat="48.71403" lon="2.46186">
        <ele>98.7755</ele>
        <time>2017-10-08T13:39:08Z</time>
      </trkpt>
      <trkpt lat="48.71394" lon="2.46212">
        <ele>98.4968</ele>
        <time>2017-10-08T13:39:22Z</time>
      </trkpt>
      <trkpt lat="48.71381" lon="2.46243">
        <ele>98.2341</ele>
        <time>2017-10-08T13:39:38Z</time>
      </trkpt>
      <trkpt lat="48.71362" lon="2.4624">
        <ele>98.079</ele>
        <time>2017-10-08T13:39:52Z</time>
      </trkpt>
      <trkpt lat="48.71351" lon="2.46222">
        <ele>97.8525</ele>
        <time>2017-10-08T13:40:09Z</time>
      </trkpt>
      <trkpt lat="48.71334" lon="2.46201">
        <ele>97.55</ele>
        <time>2017-10-08T13:40:25Z</time>
      </trkpt>
      <trkpt lat="48.71322" lon="2.46184">
        <ele>97.3437</ele>
        <time>2017-10-08T13:40:38Z</time>
      </trkpt>
      <trkpt lat="48.71312" lon="2.46176">
        <ele>97.2419</ele>
        <time>2017-10-08T13:40:45Z</time>
      </trkpt>
      <trkpt lat="48.71303" lon="2.46168">
        <ele>97.1055</ele>
        <time>2017-10-08T13:40:55Z</time>
      </trkpt>
      <trkpt lat="48.71282" lon="2.46145">
        <ele>96.8123</ele>
        <time>2017-10-08T13:41:13Z</time>
      </trkpt>
      <trkpt lat="48.71265" lon="2.46127">
        <ele>96.5187</ele>
        <time>2017-10-08T13:41:27Z</time>
      </trkpt>
      <trkpt lat="48.71249" lon="2.4611">
        <ele>96.2053</ele>
        <time>2017-10-08T13:41:40Z</time>
      </trkpt>
      <trkpt lat="48.71237" lon="2.46093">
        <ele>95.9265</ele>
        <time>2017-10-08T13:41:52Z</time>
      </trkpt>
      <trkpt lat="48.7122" lon="2.46074">
        <ele>95.603</ele>
        <time>2017-10-08T13:42:06Z</time>
      </trkpt>
      <trkpt lat="48.71203" lon="2.46057">
        <ele>95.3139</ele>
        <time>2017-10-08T13:42:19Z</time>
      </trkpt>
      <trkpt lat="48.71194" lon="2.46048">
        <ele>95.1712</ele>
        <time>2017-10-08T13:42:26Z</time>
      </trkpt>
      <trkpt lat="48.71184" lon="2.46036">
        <ele>94.9951</ele>
        <time>2017-10-08T13:42:35Z</time>
      </trkpt>
      <trkpt lat="48.7117" lon="2.46022">
        <ele>94.8171</ele>
        <time>2017-10-08T13:42:45Z</time>
      </trkpt>
      <trkpt lat="48.71152" lon="2.46006">
        <ele>94.5364</ele>
        <time>2017-10-08T13:43:01Z</time>
      </trkpt>
      <trkpt lat="48.71137" lon="2.46002">
        <ele>94.3262</ele>
        <time>2017-10-08T13:43:13Z</time>
      </trkpt>
      <trkpt lat="48.71127" lon="2.46012">
        <ele>94.0949</ele>
        <time>2017-10-08T13:43:26Z</time>
      </trkpt>
      <trkpt lat="48.71122" lon="2.46022">
        <ele>93.9884</ele>
        <time>2017-10-08T13:43:32Z</time>
      </trkpt>
      <trkpt lat="48.71122" lon="2.46022">
        <ele>32.6</ele>
        <time>2017-10-08T13:43:39Z</time>
      </trkpt>
      <trkpt lat="48.71122" lon="2.46022">
        <ele>32.6</ele>
        <time>2017-10-08T13:45:02Z</time>
      </trkpt>
      <trkpt lat="48.71112" lon="2.46044">
        <ele>93.4538</ele>
        <time>2017-10-08T13:45:02Z</time>
      </trkpt>
      <trkpt lat="48.71107" lon="2.46068">
        <ele>93.3313</ele>
        <time>2017-10-08T13:45:13Z</time>
      </trkpt>
      <trkpt lat="48.71104" lon="2.46091">
        <ele>93.2074</ele>
        <time>2017-10-08T13:45:26Z</time>
      </trkpt>
      <trkpt lat="48.71097" lon="2.46121">
        <ele>93.0411</ele>
        <time>2017-10-08T13:45:43Z</time>
      </trkpt>
      <trkpt lat="48.71093" lon="2.46143">
        <ele>92.9275</ele>
        <time>2017-10-08T13:45:54Z</time>
      </trkpt>
      <trkpt lat="48.71087" lon="2.46172">
        <ele>92.7536</ele>
        <time>2017-10-08T13:46:10Z</time>
      </trkpt>
      <trkpt lat="48.71079" lon="2.46204">
        <ele>92.6125</ele>
        <time>2017-10-08T13:46:26Z</time>
      </trkpt>
      <trkpt lat="48.71072" lon="2.46227">
        <ele>92.5387</ele>
        <time>2017-10-08T13:46:37Z</time>
      </trkpt>
      <trkpt lat="48.71068" lon="2.4625">
        <ele>92.4751</ele>
        <time>2017-10-08T13:46:50Z</time>
      </trkpt>
      <trkpt lat="48.71063" lon="2.46285">
        <ele>92.4297</ele>
        <time>2017-10-08T13:47:06Z</time>
      </trkpt>
      <trkpt lat="48.71063" lon="2.46312">
        <ele>92.3945</ele>
        <time>2017-10-08T13:47:19Z</time>
      </trkpt>
      <trkpt lat="48.71065" lon="2.46339">
        <ele>92.3275</ele>
        <time>2017-10-08T13:47:33Z</time>
      </trkpt>
      <trkpt lat="48.71064" lon="2.46354">
        <ele>92.2767</ele>
        <time>2017-10-08T13:47:41Z</time>
      </trkpt>
      <trkpt lat="48.71063" lon="2.4638">
        <ele>92.1976</ele>
        <time>2017-10-08T13:47:52Z</time>
      </trkpt>
      <trkpt lat="48.71062" lon="2.46399">
        <ele>92.143</ele>
        <time>2017-10-08T13:48:01Z</time>
      </trkpt>
      <trkpt lat="48.71063" lon="2.46434">
        <ele>92.0719</ele>
        <time>2017-10-08T13:48:16Z</time>
      </trkpt>
      <trkpt lat="48.71072" lon="2.46449">
        <ele>92.0168</ele>
        <time>2017-10-08T13:48:27Z</time>
      </trkpt>
      <trkpt lat="48.71084" lon="2.46451">
        <ele>91.9602</ele>
        <time>2017-10-08T13:48:36Z</time>
      </trkpt>
      <trkpt lat="48.71094" lon="2.4647">
        <ele>91.8118</ele>
        <time>2017-10-08T13:48:56Z</time>
      </trkpt>
      <trkpt lat="48.71094" lon="2.46488">
        <ele>91.7389</ele>
        <time>2017-10-08T13:49:07Z</time>
      </trkpt>
      <trkpt lat="48.71096" lon="2.46509">
        <ele>91.6905</ele>
        <time>2017-10-08T13:49:15Z</time>
      </trkpt>
      <trkpt lat="48.71097" lon="2.46524">
        <ele>91.6331</ele>
        <time>2017-10-08T13:49:24Z</time>
      </trkpt>
      <trkpt lat="48.71098" lon="2.46549">
        <ele>91.5582</ele>
        <time>2017-10-08T13:49:35Z</time>
      </trkpt>
      <trkpt lat="48.71098" lon="2.46561">
        <ele>91.5073</ele>
        <time>2017-10-08T13:49:42Z</time>
      </trkpt>
      <trkpt lat="48.711" lon="2.46581">
        <ele>91.4369</ele>
        <time>2017-10-08T13:49:51Z</time>
      </trkpt>
      <trkpt lat="48.71102" lon="2.46611">
        <ele>91.3162</ele>
        <time>2017-10-08T13:50:04Z</time>
      </trkpt>
      <trkpt lat="48.71104" lon="2.46635">
        <ele>91.1764</ele>
        <time>2017-10-08T13:50:16Z</time>
      </trkpt>
      <trkpt lat="48.71106" lon="2.46653">
        <ele>91.0796</ele>
        <time>2017-10-08T13:50:24Z</time>
      </trkpt>
      <trkpt lat="48.71105" lon="2.46669">
        <ele>90.9836</ele>
        <time>2017-10-08T13:50:32Z</time>
      </trkpt>
      <trkpt lat="48.71107" lon="2.46699">
        <ele>90.8117</ele>
        <time>2017-10-08T13:50:47Z</time>
      </trkpt>
      <trkpt lat="48.71112" lon="2.46723">
        <ele>90.6874</ele>
        <time>2017-10-08T13:50:59Z</time>
      </trkpt>
      <trkpt lat="48.71115" lon="2.46759">
        <ele>90.552</ele>
        <time>2017-10-08T13:51:15Z</time>
      </trkpt>
      <trkpt lat="48.71119" lon="2.4678">
        <ele>90.4669</ele>
        <time>2017-10-08T13:51:27Z</time>
      </trkpt>
      <trkpt lat="48.7113" lon="2.46803">
        <ele>90.3777</ele>
        <time>2017-10-08T13:51:41Z</time>
      </trkpt>
      <trkpt lat="48.71138" lon="2.46816">
        <ele>90.3192</ele>
        <time>2017-10-08T13:51:50Z</time>
      </trkpt>
      <trkpt lat="48.71153" lon="2.46833">
        <ele>90.2428</ele>
        <time>2017-10-08T13:52:02Z</time>
      </trkpt>
      <trkpt lat="48.7116" lon="2.46839">
        <ele>90.2032</ele>
        <time>2017-10-08T13:52:08Z</time>
      </trkpt>
      <trkpt lat="48.71178" lon="2.46851">
        <ele>90.1172</ele>
        <time>2017-10-08T13:52:23Z</time>
      </trkpt>
      <trkpt lat="48.71193" lon="2.46869">
        <ele>90.0651</ele>
        <time>2017-10-08T13:52:39Z</time>
      </trkpt>
      <trkpt lat="48.71188" lon="2.46895">
        <ele>90.0594</ele>
        <time>2017-10-08T13:52:54Z</time>
      </trkpt>
      <trkpt lat="48.71188" lon="2.46895">
        <ele>90.0594</ele>
        <time>2017-10-08T13:53:01Z</time>
      </trkpt>
      <trkpt lat="48.71188" lon="2.46895">
        <ele>34.3</ele>
        <time>2017-10-08T13:53:01Z</time>
      </trkpt>
      <trkpt lat="48.71188" lon="2.46895">
        <ele>34.3</ele>
        <time>2017-10-08T13:53:15Z</time>
      </trkpt>
      <trkpt lat="48.71172" lon="2.46887">
        <ele>90.0262</ele>
        <time>2017-10-08T13:53:15Z</time>
      </trkpt>
      <trkpt lat="48.71154" lon="2.4688">
        <ele>89.9575</ele>
        <time>2017-10-08T13:53:30Z</time>
      </trkpt>
      <trkpt lat="48.71144" lon="2.46868">
        <ele>89.9122</ele>
        <time>2017-10-08T13:53:38Z</time>
      </trkpt>
      <trkpt lat="48.71134" lon="2.46857">
        <ele>89.8633</ele>
        <time>2017-10-08T13:53:46Z</time>
      </trkpt>
      <trkpt lat="48.71121" lon="2.4684">
        <ele>89.7842</ele>
        <time>2017-10-08T13:53:59Z</time>
      </trkpt>
      <trkpt lat="48.71111" lon="2.46823">
        <ele>89.7133</ele>
        <time>2017-10-08T13:54:10Z</time>
      </trkpt>
      <trkpt lat="48.71089" lon="2.4684">
        <ele>89.6063</ele>
        <time>2017-10-08T13:54:25Z</time>
      </trkpt>
      <trkpt lat="48.71075" lon="2.46862">
        <ele>89.5132</ele>
        <time>2017-10-08T13:54:39Z</time>
      </trkpt>
      <trkpt lat="48.71067" lon="2.46876">
        <ele>89.4515</ele>
        <time>2017-10-08T13:54:49Z</time>
      </trkpt>
      <trkpt lat="48.7106" lon="2.4689">
        <ele>89.4036</ele>
        <time>2017-10-08T13:54:57Z</time>
      </trkpt>
      <trkpt lat="48.71046" lon="2.46914">
        <ele>89.3188</ele>
        <time>2017-10-08T13:55:11Z</time>
      </trkpt>
      <trkpt lat="48.71035" lon="2.46934">
        <ele>89.2417</ele>
        <time>2017-10-08T13:55:23Z</time>
      </trkpt>
      <trkpt lat="48.71024" lon="2.4696">
        <ele>89.146</ele>
        <time>2017-10-08T13:55:37Z</time>
      </trkpt>
      <trkpt lat="48.71011" lon="2.46981">
        <ele>89.0527</ele>
        <time>2017-10-08T13:55:50Z</time>
      </trkpt>
      <trkpt lat="48.71001" lon="2.47002">
        <ele>88.9698</ele>
        <time>2017-10-08T13:56:02Z</time>
      </trkpt>
      <trkpt lat="48.7099" lon="2.4703">
        <ele>88.8781</ele>
        <time>2017-10-08T13:56:17Z</time>
      </trkpt>
      <trkpt lat="48.7098" lon="2.47042">
        <ele>88.8195</ele>
        <time>2017-10-08T13:56:27Z</time>
      </trkpt>
      <trkpt lat="48.70962" lon="2.47054">
        <ele>88.736</ele>
        <time>2017-10-08T13:56:41Z</time>
      </trkpt>
      <trkpt lat="48.70947" lon="2.47068">
        <ele>88.6646</ele>
        <time>2017-10-08T13:56:53Z</time>
      </trkpt>
      <trkpt lat="48.70929" lon="2.47083">
        <ele>88.5523</ele>
        <time>2017-10-08T13:57:10Z</time>
      </trkpt>
      <trkpt lat="48.70911" lon="2.47096">
        <ele>88.461</ele>
        <time>2017-10-08T13:57:25Z</time>
      </trkpt>
      <trkpt lat="48.70901" lon="2.47111">
        <ele>88.383</ele>
        <time>2017-10-08T13:57:39Z</time>
      </trkpt>
      <trkpt lat="48.70892" lon="2.47123">
        <ele>88.3331</ele>
        <time>2017-10-08T13:57:49Z</time>
      </trkpt>
      <trkpt lat="48.7088" lon="2.47155">
        <ele>88.2715</ele>
        <time>2017-10-08T13:58:05Z</time>
      </trkpt>
      <trkpt lat="48.70877" lon="2.47166">
        <ele>88.2426</ele>
        <time>2017-10-08T13:58:13Z</time>
      </trkpt>
      <trkpt lat="48.70875" lon="2.47186">
        <ele>88.2131</ele>
        <time>2017-10-08T13:58:23Z</time>
      </trkpt>
      <trkpt lat="48.70873" lon="2.47201">
        <ele>88.1965</ele>
        <time>2017-10-08T13:58:30Z</time>
      </trkpt>
      <trkpt lat="48.70865" lon="2.47228">
        <ele>88.1622</ele>
        <time>2017-10-08T13:58:43Z</time>
      </trkpt>
      <trkpt lat="48.70859" lon="2.47253">
        <ele>88.1344</ele>
        <time>2017-10-08T13:58:54Z</time>
      </trkpt>
      <trkpt lat="48.70857" lon="2.47276">
        <ele>88.1087</ele>
        <time>2017-10-08T13:59:06Z</time>
      </trkpt>
      <trkpt lat="48.70855" lon="2.473">
        <ele>88.075</ele>
        <time>2017-10-08T13:59:18Z</time>
      </trkpt>
      <trkpt lat="48.70851" lon="2.47336">
        <ele>88.013</ele>
        <time>2017-10-08T13:59:35Z</time>
      </trkpt>
      <trkpt lat="48.70857" lon="2.47359">
        <ele>87.9609</ele>
        <time>2017-10-08T13:59:46Z</time>
      </trkpt>
      <trkpt lat="48.70874" lon="2.47373">
        <ele>87.8972</ele>
        <time>2017-10-08T13:59:58Z</time>
      </trkpt>
      <trkpt lat="48.70884" lon="2.47382">
        <ele>87.8548</ele>
        <time>2017-10-08T14:00:06Z</time>
      </trkpt>
      <trkpt lat="48.70896" lon="2.47393">
        <ele>87.7996</ele>
        <time>2017-10-08T14:00:16Z</time>
      </trkpt>
      <trkpt lat="48.70907" lon="2.47422">
        <ele>87.6994</ele>
        <time>2017-10-08T14:00:32Z</time>
      </trkpt>
      <trkpt lat="48.70918" lon="2.47443">
        <ele>87.5927</ele>
        <time>2017-10-08T14:00:45Z</time>
      </trkpt>
      <trkpt lat="48.70932" lon="2.47461">
        <ele>87.4756</ele>
        <time>2017-10-08T14:00:58Z</time>
      </trkpt>
      <trkpt lat="48.70942" lon="2.47468">
        <ele>87.4165</ele>
        <time>2017-10-08T14:01:05Z</time>
      </trkpt>
      <trkpt lat="48.7096" lon="2.47476">
        <ele>87.3299</ele>
        <time>2017-10-08T14:01:19Z</time>
      </trkpt>
      <trkpt lat="48.70981" lon="2.4748">
        <ele>87.2559</ele>
        <time>2017-10-08T14:01:35Z</time>
      </trkpt>
      <trkpt lat="48.70989" lon="2.47477">
        <ele>87.2427</ele>
        <time>2017-10-08T14:01:40Z</time>
      </trkpt>
      <trkpt lat="48.70989" lon="2.47477">
        <ele>34.9</ele>
        <time>2017-10-08T14:01:48Z</time>
      </trkpt>
      <trkpt lat="48.70989" lon="2.47477">
        <ele>34.9</ele>
        <time>2017-10-08T14:02:14Z</time>
      </trkpt>
      <trkpt lat="48.70996" lon="2.47491">
        <ele>87.1719</ele>
        <time>2017-10-08T14:02:14Z</time>
      </trkpt>
      <trkpt lat="48.70999" lon="2.47501">
        <ele>87.1326</ele>
        <time>2017-10-08T14:02:26Z</time>
      </trkpt>
      <trkpt lat="48.71" lon="2.47524">
        <ele>87.0841</ele>
        <time>2017-10-08T14:02:38Z</time>
      </trkpt>
      <trkpt lat="48.71" lon="2.47545">
        <ele>87.0322</ele>
        <time>2017-10-08T14:02:56Z</time>
      </trkpt>
      <trkpt lat="48.70996" lon="2.47564">
        <ele>87.0332</ele>
        <time>2017-10-08T14:03:08Z</time>
      </trkpt>
      <trkpt lat="48.70996" lon="2.47564">
        <ele>87.0332</ele>
        <time>2017-10-08T14:03:15Z</time>
      </trkpt>
      <trkpt lat="48.70996" lon="2.47564">
        <ele>36.1</ele>
        <time>2017-10-08T14:03:15Z</time>
      </trkpt>
      <trkpt lat="48.70996" lon="2.47564">
        <ele>36.1</ele>
        <time>2017-10-08T14:03:26Z</time>
      </trkpt>
      <trkpt lat="48.71" lon="2.47586">
        <ele>87.0822</ele>
        <time>2017-10-08T14:03:26Z</time>
      </trkpt>
      <trkpt lat="48.71004" lon="2.47602">
        <ele>87.1345</ele>
        <time>2017-10-08T14:03:42Z</time>
      </trkpt>
      <trkpt lat="48.70979" lon="2.47621">
        <ele>87.0987</ele>
        <time>2017-10-08T14:04:40Z</time>
      </trkpt>
      <trkpt lat="48.70971" lon="2.47636">
        <ele>87.1068</ele>
        <time>2017-10-08T14:04:48Z</time>
      </trkpt>
      <trkpt lat="48.70962" lon="2.47665">
        <ele>87.1357</ele>
        <time>2017-10-08T14:05:03Z</time>
      </trkpt>
      <trkpt lat="48.70973" lon="2.47685">
        <ele>87.153</ele>
        <time>2017-10-08T14:05:16Z</time>
      </trkpt>
      <trkpt lat="48.70984" lon="2.47705">
        <ele>87.1554</ele>
        <time>2017-10-08T14:05:29Z</time>
      </trkpt>
      <trkpt lat="48.70999" lon="2.47725">
        <ele>87.1716</ele>
        <time>2017-10-08T14:05:43Z</time>
      </trkpt>
      <trkpt lat="48.71015" lon="2.47746">
        <ele>87.2508</ele>
        <time>2017-10-08T14:05:59Z</time>
      </trkpt>
      <trkpt lat="48.7103" lon="2.4777">
        <ele>87.3559</ele>
        <time>2017-10-08T14:06:12Z</time>
      </trkpt>
      <trkpt lat="48.71037" lon="2.47789">
        <ele>87.4263</ele>
        <time>2017-10-08T14:06:21Z</time>
      </trkpt>
      <trkpt lat="48.71045" lon="2.47795">
        <ele>87.4778</ele>
        <time>2017-10-08T14:06:29Z</time>
      </trkpt>
      <trkpt lat="48.71068" lon="2.47787">
        <ele>87.5803</ele>
        <time>2017-10-08T14:06:45Z</time>
      </trkpt>
      <trkpt lat="48.71078" lon="2.47788">
        <ele>87.6322</ele>
        <time>2017-10-08T14:06:53Z</time>
      </trkpt>
      <trkpt lat="48.71086" lon="2.47815">
        <ele>87.701</ele>
        <time>2017-10-08T14:07:07Z</time>
      </trkpt>
      <trkpt lat="48.71091" lon="2.47843">
        <ele>87.7361</ele>
        <time>2017-10-08T14:07:21Z</time>
      </trkpt>
      <trkpt lat="48.71095" lon="2.47867">
        <ele>87.7424</ele>
        <time>2017-10-08T14:07:33Z</time>
      </trkpt>
      <trkpt lat="48.71098" lon="2.47896">
        <ele>87.7248</ele>
        <time>2017-10-08T14:07:48Z</time>
      </trkpt>
      <trkpt lat="48.71103" lon="2.4793">
        <ele>87.7041</ele>
        <time>2017-10-08T14:08:04Z</time>
      </trkpt>
      <trkpt lat="48.71106" lon="2.47953">
        <ele>87.6944</ele>
        <time>2017-10-08T14:08:16Z</time>
      </trkpt>
      <trkpt lat="48.71113" lon="2.4798">
        <ele>87.7124</ele>
        <time>2017-10-08T14:08:30Z</time>
      </trkpt>
      <trkpt lat="48.71126" lon="2.47979">
        <ele>87.7255</ele>
        <time>2017-10-08T14:08:40Z</time>
      </trkpt>
      <trkpt lat="48.71146" lon="2.47974">
        <ele>87.7586</ele>
        <time>2017-10-08T14:08:56Z</time>
      </trkpt>
      <trkpt lat="48.71166" lon="2.47967">
        <ele>87.8326</ele>
        <time>2017-10-08T14:09:10Z</time>
      </trkpt>
      <trkpt lat="48.71177" lon="2.4798">
        <ele>87.9354</ele>
        <time>2017-10-08T14:09:23Z</time>
      </trkpt>
      <trkpt lat="48.7119" lon="2.47975">
        <ele>88.0223</ele>
        <time>2017-10-08T14:09:34Z</time>
      </trkpt>
      <trkpt lat="48.71209" lon="2.47975">
        <ele>88.1319</ele>
        <time>2017-10-08T14:09:46Z</time>
      </trkpt>
      <trkpt lat="48.71229" lon="2.4797">
        <ele>88.2635</ele>
        <time>2017-10-08T14:10:00Z</time>
      </trkpt>
      <trkpt lat="48.71236" lon="2.47979">
        <ele>88.3603</ele>
        <time>2017-10-08T14:10:10Z</time>
      </trkpt>
      <trkpt lat="48.71241" lon="2.48004">
        <ele>88.5354</ele>
        <time>2017-10-08T14:10:25Z</time>
      </trkpt>
      <trkpt lat="48.71248" lon="2.48037">
        <ele>88.7702</ele>
        <time>2017-10-08T14:10:42Z</time>
      </trkpt>
      <trkpt lat="48.71252" lon="2.48062">
        <ele>88.9303</ele>
        <time>2017-10-08T14:10:54Z</time>
      </trkpt>
      <trkpt lat="48.71257" lon="2.48091">
        <ele>89.0833</ele>
        <time>2017-10-08T14:11:08Z</time>
      </trkpt>
      <trkpt lat="48.71261" lon="2.48114">
        <ele>89.193</ele>
        <time>2017-10-08T14:11:20Z</time>
      </trkpt>
      <trkpt lat="48.71269" lon="2.48148">
        <ele>89.3032</ele>
        <time>2017-10-08T14:11:38Z</time>
      </trkpt>
      <trkpt lat="48.71275" lon="2.48173">
        <ele>89.3471</ele>
        <time>2017-10-08T14:11:50Z</time>
      </trkpt>
      <trkpt lat="48.71275" lon="2.48173">
        <ele>37.9</ele>
        <time>2017-10-08T14:11:58Z</time>
      </trkpt>
      <trkpt lat="48.71275" lon="2.48173">
        <ele>37.9</ele>
        <time>2017-10-08T14:12:30Z</time>
      </trkpt>
      <trkpt lat="48.71281" lon="2.48198">
        <ele>89.4189</ele>
        <time>2017-10-08T14:12:30Z</time>
      </trkpt>
      <trkpt lat="48.71283" lon="2.48228">
        <ele>89.4517</ele>
        <time>2017-10-08T14:12:46Z</time>
      </trkpt>
      <trkpt lat="48.71286" lon="2.48246">
        <ele>89.4933</ele>
        <time>2017-10-08T14:12:55Z</time>
      </trkpt>
      <trkpt lat="48.71291" lon="2.48273">
        <ele>89.5644</ele>
        <time>2017-10-08T14:13:10Z</time>
      </trkpt>
      <trkpt lat="48.71295" lon="2.48294">
        <ele>89.6495</ele>
        <time>2017-10-08T14:13:26Z</time>
      </trkpt>
      <trkpt lat="48.7128" lon="2.48301">
        <ele>89.7707</ele>
        <time>2017-10-08T14:13:39Z</time>
      </trkpt>
      <trkpt lat="48.71277" lon="2.4833">
        <ele>90.0498</ele>
        <time>2017-10-08T14:13:55Z</time>
      </trkpt>
      <trkpt lat="48.71267" lon="2.48347">
        <ele>90.4193</ele>
        <time>2017-10-08T14:14:03Z</time>
      </trkpt>
      <trkpt lat="48.71263" lon="2.4837">
        <ele>91.163</ele>
        <time>2017-10-08T14:14:14Z</time>
      </trkpt>
      <trkpt lat="48.71265" lon="2.48398">
        <ele>91.7893</ele>
        <time>2017-10-08T14:14:27Z</time>
      </trkpt>
      <trkpt lat="48.71267" lon="2.48423">
        <ele>92.1929</ele>
        <time>2017-10-08T14:14:39Z</time>
      </trkpt>
      <trkpt lat="48.71269" lon="2.48451">
        <ele>92.4958</ele>
        <time>2017-10-08T14:14:51Z</time>
      </trkpt>
      <trkpt lat="48.71265" lon="2.48469">
        <ele>92.7448</ele>
        <time>2017-10-08T14:15:03Z</time>
      </trkpt>
      <trkpt lat="48.71254" lon="2.48481">
        <ele>93.0154</ele>
        <time>2017-10-08T14:15:16Z</time>
      </trkpt>
      <trkpt lat="48.71252" lon="2.4851">
        <ele>93.4206</ele>
        <time>2017-10-08T14:15:33Z</time>
      </trkpt>
      <trkpt lat="48.71252" lon="2.4854">
        <ele>93.8938</ele>
        <time>2017-10-08T14:15:47Z</time>
      </trkpt>
      <trkpt lat="48.71253" lon="2.48566">
        <ele>94.0926</ele>
        <time>2017-10-08T14:15:59Z</time>
      </trkpt>
      <trkpt lat="48.71254" lon="2.48583">
        <ele>94.2061</ele>
        <time>2017-10-08T14:16:06Z</time>
      </trkpt>
      <trkpt lat="48.71256" lon="2.48598">
        <ele>94.3574</ele>
        <time>2017-10-08T14:16:14Z</time>
      </trkpt>
      <trkpt lat="48.71265" lon="2.48627">
        <ele>94.6999</ele>
        <time>2017-10-08T14:16:30Z</time>
      </trkpt>
      <trkpt lat="48.7127" lon="2.48655">
        <ele>94.9928</ele>
        <time>2017-10-08T14:16:44Z</time>
      </trkpt>
      <trkpt lat="48.71276" lon="2.48679">
        <ele>95.2883</ele>
        <time>2017-10-08T14:16:56Z</time>
      </trkpt>
      <trkpt lat="48.71282" lon="2.48702">
        <ele>95.6122</ele>
        <time>2017-10-08T14:17:07Z</time>
      </trkpt>
      <trkpt lat="48.71288" lon="2.48728">
        <ele>96.0291</ele>
        <time>2017-10-08T14:17:21Z</time>
      </trkpt>
      <trkpt lat="48.71293" lon="2.48744">
        <ele>96.2536</ele>
        <time>2017-10-08T14:17:30Z</time>
      </trkpt>
      <trkpt lat="48.71293" lon="2.48744">
        <ele>45</ele>
        <time>2017-10-08T14:17:38Z</time>
      </trkpt>
      <trkpt lat="48.71293" lon="2.48744">
        <ele>45</ele>
        <time>2017-10-08T14:18:30Z</time>
      </trkpt>
      <trkpt lat="48.713" lon="2.48789">
        <ele>97.0222</ele>
        <time>2017-10-08T14:18:30Z</time>
      </trkpt>
      <trkpt lat="48.71306" lon="2.48814">
        <ele>97.2479</ele>
        <time>2017-10-08T14:18:42Z</time>
      </trkpt>
      <trkpt lat="48.71315" lon="2.48842">
        <ele>97.4244</ele>
        <time>2017-10-08T14:18:56Z</time>
      </trkpt>
      <trkpt lat="48.71325" lon="2.48861">
        <ele>97.4848</ele>
        <time>2017-10-08T14:19:07Z</time>
      </trkpt>
      <trkpt lat="48.71341" lon="2.48882">
        <ele>97.4788</ele>
        <time>2017-10-08T14:19:21Z</time>
      </trkpt>
      <trkpt lat="48.71357" lon="2.48898">
        <ele>97.3649</ele>
        <time>2017-10-08T14:19:35Z</time>
      </trkpt>
      <trkpt lat="48.7137" lon="2.48909">
        <ele>97.2576</ele>
        <time>2017-10-08T14:19:45Z</time>
      </trkpt>
      <trkpt lat="48.7139" lon="2.48913">
        <ele>97.0827</ele>
        <time>2017-10-08T14:19:58Z</time>
      </trkpt>
      <trkpt lat="48.714" lon="2.48916">
        <ele>96.9774</ele>
        <time>2017-10-08T14:20:04Z</time>
      </trkpt>
      <trkpt lat="48.71414" lon="2.48928">
        <ele>96.7653</ele>
        <time>2017-10-08T14:20:17Z</time>
      </trkpt>
      <trkpt lat="48.71428" lon="2.48935">
        <ele>96.6193</ele>
        <time>2017-10-08T14:20:27Z</time>
      </trkpt>
      <trkpt lat="48.71444" lon="2.48942">
        <ele>96.4525</ele>
        <time>2017-10-08T14:20:39Z</time>
      </trkpt>
      <trkpt lat="48.7146" lon="2.48948">
        <ele>96.2953</ele>
        <time>2017-10-08T14:20:49Z</time>
      </trkpt>
      <trkpt lat="48.71468" lon="2.48953">
        <ele>96.1624</ele>
        <time>2017-10-08T14:20:57Z</time>
      </trkpt>
      <trkpt lat="48.71483" lon="2.48948">
        <ele>95.9097</ele>
        <time>2017-10-08T14:21:14Z</time>
      </trkpt>
      <trkpt lat="48.71483" lon="2.48948">
        <ele>38.9</ele>
        <time>2017-10-08T14:21:28Z</time>
      </trkpt>
      <trkpt lat="48.71483" lon="2.48948">
        <ele>38.9</ele>
        <time>2017-10-08T14:21:30Z</time>
      </trkpt>
      <trkpt lat="48.71483" lon="2.48948">
        <ele>38.9</ele>
        <time>2017-10-08T14:21:30Z</time>
      </trkpt>
      <trkpt lat="48.71483" lon="2.48948">
        <ele>38.9</ele>
        <time>2017-10-08T14:22:06Z</time>
      </trkpt>
    </trkseg>
  </trk>
</gpx>